[[{"header":{"parameterUnit":"m.s-1","parameterCategory":1,"la1":31.0,"la2":29.5877,"lo1":-88.7671,"lo2":-86.6584,"dy":0.0162,"dx":0.0185,"nx":115,"ny":88,"refTime":"2023-09-05T06:00:00:Z","depth":0,"parameterNumber":2,"parameterNumberName":"U-component_of_WINDS"},"data":[0.0,0.0,0.0,0.0,0.0,0.0,0.0,0.0,0.0,0.0,0.0,0.0,0.0,0.0,0.0,0.0,0.0,0.0,0.0,0.0,0.0,0.0,0.0,0.0,0.0,0.0,0.0,0.0,0.0,0.0,0.0,0.0,0.0,0.0,0.0,0.0,0.0,0.0,0.0,0.0,0.0,0.0,0.0,0.0,0.0,0.0,0.0,0.0,0.0,0.0,0.0,0.0,0.0,0.0,0.0,0.0,0.0,0.0,0.0,0.0,0.0,0.0,0.0,0.0,0.0,0.0,0.0,0.0,0.0,0.0,0.0,0.0,0.0,0.0,0.0,0.0,0.0,0.0,0.0,0.0,0.0,0.0,0.0,0.0,0.0,0.0,0.0,0.0,0.0,0.0,0.0,0.0,0.0,0.0,0.0,0.0,0.0,0.0,0.0,0.0,0.0,0.0,0.0,0.0,0.0,0.0,0.0,0.0,0.0,0.0,0.0,0.0,0.0,0.0,0.0,0.0,0.0,0.0,0.0,0.0,0.0,0.0,0.0,0.0,0.0,0.0,0.0,0.0,0.0,0.0,0.0,0.0,0.0,0.0,0.0,0.0,0.0,0.0,0.0,0.0,0.0,0.0,0.0,0.0,0.0,0.0,0.0,0.0,0.0,0.0,0.0,0.0,0.0,0.0,0.0,0.0,0.0,0.0,0.0,0.0,0.0,0.0,0.0,0.0,0.0,0.0,0.0,0.0,0.0,0.0,0.0,0.0,0.0,0.0,0.0,0.0,0.0,0.0,0.0,0.0,0.0,0.0,0.0,0.0,0.0,0.0,0.0,0.0,0.0,0.0,0.0,0.0,0.0,0.0,0.0,0.0,0.0,0.0,0.0,0.0,0.0,0.0,0.0,0.0,0.0,0.0,0.0,0.0,0.0,0.0,0.0,0.0,0.0,0.0,0.0,0.0,0.0,0.0,0.0,0.0,0.0,0.0,0.0,0.0,0.0,0.0,0.0,0.0,0.0,0.0,0.0,0.0,0.0,0.0,0.0,0.0,0.0,0.0,0.0,0.0,0.0,0.0,0.0,0.0,0.0,0.0,0.0,0.0,0.0,0.0,0.0,0.0,0.0,0.0,0.0,0.0,0.0,0.0,0.0,0.0,0.0,0.0,0.0,0.0,0.0,0.0,0.0,0.0,0.0,0.0,0.0,0.0,0.0,0.0,0.0,0.0,0.0,0.0,0.0,0.0,0.0,0.0,0.0,0.0,0.0,0.0,0.0,0.0,0.0,0.0,0.0,0.0,0.0,0.0,0.0,0.0,0.0,0.0,0.0,0.0,0.0,0.0,0.0,0.0,0.0,0.0,0.0,0.0,0.0,0.0,0.0,0.0,0.0,0.0,0.0,0.0,0.0,0.0,0.0,0.0,0.0,0.0,0.0,0.0,0.0,0.0,0.0,0.0,0.0,0.0,0.0,0.0,0.0,0.0,0.0,0.0,0.0,0.0,0.0,0.0,0.0,0.0,0.0,0.0,0.0,0.0,0.0,0.0,0.0,0.0,0.0,0.0,0.0,0.0,0.0,0.0,0.0,0.0,0.0,0.0,0.0,0.0,0.0,0.0,0.0,0.0,0.0,0.0,0.0,0.0,0.0,0.0,0.0,0.0,0.0,0.0,0.0,0.0,0.0,0.0,0.0,0.0,0.0,0.0,0.0,0.0,0.0,0.0,0.0,0.0,0.0,0.0,0.0,0.0,0.0,0.0,0.0,0.0,0.0,0.0,0.0,0.0,0.0,0.0,0.0,0.0,0.0,0.0,0.0,0.0,0.0,0.0,0.0,0.0,0.0,0.0,0.0,0.0,0.0,0.0,0.0,0.0,0.0,0.0,0.0,0.0,0.0,0.0,0.0,0.0,0.0,0.0,0.0,0.0,0.0,0.0,0.0,0.0,0.0,0.0,0.0,0.0,0.0,0.0,0.0,0.0,0.0,0.0,0.0,0.0,0.0,0.0,0.0,0.0,0.0,0.0,0.0,0.0,0.0,0.0,0.0,0.0,0.0,0.0,0.0,0.0,0.0,0.0,0.0,0.0,0.0,0.0,0.0,0.0,0.0,0.0,0.0,0.0,0.0,0.0,0.0,0.0,0.0,0.0,0.0,0.0,0.0,0.0,0.0,0.0,0.0,0.0,0.0,0.0,0.0,0.0,0.0,0.0,0.0,0.0,0.0,0.0,0.0,0.0,0.0,0.0,0.0,0.0,0.0,0.0,0.0,0.0,0.0,0.0,0.0,0.0,0.0,0.0,0.0,0.0,0.0,0.0,0.0,0.0,0.0,0.0,0.0,0.0,0.0,0.0,0.0,0.0,0.0,0.0,0.0,0.0,0.0,0.0,0.0,0.0,0.0,0.0,0.0,0.0,0.0,0.0,0.0,0.0,0.0,0.0,0.0,0.0,0.0,0.0,0.0,0.0,0.0,0.0,0.0,0.0,0.0,0.0,0.0,0.0,0.0,0.0,0.0,0.0,0.0,0.0,0.0,0.0,0.0,0.0,0.0,0.0,0.0,0.0,0.0,0.0,0.0,0.0,0.0,0.0,0.0,0.0,0.0,0.0,0.0,0.0,0.0,0.0,0.0,0.0,0.0,0.0,0.0,0.0,0.0,0.0,0.0,0.0,0.0,0.0,0.0,0.0,0.0,0.0,0.0,0.0,0.0,0.0,0.0,0.0,0.0,0.0,0.0,0.0,0.0,0.0,0.0,0.0,0.0,0.0,0.0,0.0,0.0,0.0,0.0,0.0,0.0,0.0,0.0,0.0,0.0,0.0,0.0,0.0,0.0,0.0,0.0,0.0,0.0,0.0,0.0,0.0,0.0,0.0,0.0,0.0,0.0,0.0,0.0,0.0,0.0,0.0,0.0,0.0,0.0,0.0,0.0,0.0,0.0,0.0,0.0,0.0,0.0,0.0,0.0,0.0,0.0,0.0,0.0,0.0,0.0,0.0,0.0,0.0,0.0,0.0,0.0,0.0,0.0,0.0,0.0,0.0,0.0,0.0,0.0,0.0,0.0,0.0,0.0,0.0,0.0,0.0,0.0,0.0,0.0,0.0,0.0,0.0,0.0,0.0,0.0,0.0,0.0,0.0,0.0,0.0,0.0,0.0,0.0,0.0,0.0,0.0,0.0,0.0,0.0,0.0,0.0,0.0,0.0,0.0,0.0,0.0,0.0,0.0,0.0,0.0,0.0,0.0,0.0,0.0,0.0,0.0,0.0,0.0,0.0,0.0,0.0,0.0,0.0,0.0,0.0,0.0,0.0,0.0,0.0,0.0,0.0,0.0,0.0,0.0,0.0,0.0,0.0,0.0,0.0,0.0,0.0,0.0,0.0,0.0,0.0,0.0,0.0,0.0,0.0,0.0,0.0,0.0,0.0,0.0,0.0,0.0,0.0,0.0,0.0,0.0,0.0,0.0,0.0,0.0,0.0,0.0,0.0,0.0,0.0,0.0,0.0,0.0,0.0,0.0,0.0,0.0,0.0,0.0,0.0,0.0,0.0,0.0,0.0,0.0,0.0,0.0,0.0,0.0,0.0,0.0,0.0,0.0,0.0,0.0,0.0,0.0,0.0,0.0,0.0,0.0,0.0,0.0,0.0,0.0,0.0,0.0,0.0,0.0,0.0,0.0,0.0,0.0,0.0,0.0,0.0,0.0,0.0,0.0,0.0,0.0,0.0,0.0,0.0,0.0,0.0,0.0,0.0,0.0,0.0,0.0,0.0,0.0,0.0,0.0,0.0,0.0,0.0,0.0,0.0,0.0,0.0,0.0,0.0,0.0,0.0,0.0,0.0,0.0,0.0,0.0,0.0,0.0,0.0,0.0,0.0,0.0,0.0,0.0,0.0,0.0,0.0,0.0,0.0,0.0,0.0,0.0,0.0,0.0,0.0,0.0,0.0,0.0,0.0,0.0,0.0,0.0,0.0,0.0,0.0,0.0,0.0,0.0,0.0,0.0,0.0,0.0,0.0,0.0,0.0,0.0,0.0,0.0,0.0,0.0,0.0,0.0,0.0,0.0,0.0,0.0,0.0,0.0,0.0,0.0,0.0,0.0,0.0,0.0,0.0,0.0,0.0,0.0,0.0,0.0,0.0,0.0,0.0,0.0,0.0,0.0,0.0,0.0,0.0,0.0,0.0,0.0,0.0,0.0,0.0,0.0,0.0,0.0,0.0,0.0,0.0,0.0,0.0,0.0,0.0,0.0,0.0,0.0,0.0,0.0,0.0,0.0,-0.0177,0.0,0.0,0.0,0.0,0.0,0.0,0.0,0.0,0.0,0.0,0.0,0.0,0.0,0.0,0.0,0.0,0.0,0.0,0.0,0.0,0.0,0.0,0.0,0.0,0.0,0.0,0.0,0.0,0.0,0.0,0.0,0.0,0.0,0.0,0.0,0.0,0.0,0.0,0.0,0.0,0.0,0.0,0.0,0.0,0.0,0.0,0.0,0.0,0.0,0.0,0.0,0.0,0.0,0.0,0.0,0.0,0.0,0.0,0.0,0.0,0.0,0.0,0.0,0.0,0.0,0.0,0.0,0.0,0.0,0.0,0.0,0.0,0.0,0.0,0.0,0.0,0.0,0.0,0.0,0.0,0.0,0.0,0.0,0.0,0.0,0.0,0.0,0.0,0.0,0.0,0.0,0.0,0.0,0.0,0.0,0.0,0.0,0.0,0.0,0.0,0.0,0.0,0.0,0.0,0.0,0.0,0.0,0.0,0.0,0.0,0.0442,0.0392,0.0353,0.0444,0.0614,0.0,0.0,0.0,0.0,0.0,0.0,0.0,0.0,0.0,0.0,0.0,0.0,0.0,0.0,0.0,0.0,0.0,0.0,0.0,0.0,0.0,0.0,0.0,0.0,0.0,0.0,0.0,0.0,0.0,0.0,0.0,0.0,0.0,0.0,0.0,0.0,0.0,0.0,0.0,0.0,0.0,0.0,0.0,0.0,0.0,0.0,0.0,0.0,0.0,0.0,0.0,0.0,0.0,0.0,0.0,0.0,0.0,0.0,0.0,0.0,0.0,0.0,0.0,0.0,0.0,0.0,0.0,0.0,0.0,0.0,0.0,0.0,0.0,0.0,0.0,0.0,0.0,0.0,0.0,0.0,0.0,0.0,0.0,0.0,0.0,0.0,0.0,0.0,0.0,0.0,0.0,0.0,0.0,0.0,0.0,0.0,0.0,0.0,0.0,0.0,0.0,0.0,0.0,0.0,0.0,0.0,0.0,0.0,0.0,0.0,0.0,0.0,0.1164,0.1379,0.1682,0.0,0.0,0.0,0.0,0.0,0.0,0.0,0.0,0.0,0.0,0.0,0.0,0.0,0.0,0.0,0.0,0.0,0.0,0.0,0.0,0.0,0.0,0.0,0.0,0.0,0.0,0.0,0.0,0.0,0.0,0.0,0.0,0.0,0.0,0.0,0.0,0.0,0.0,0.0,0.0,0.0,0.0,0.0,0.0,0.0,0.0,0.0,0.0,0.0,0.0,0.0,0.0,0.0,0.0,0.0,0.0,0.0,0.0,0.0,0.0,0.0,0.0,0.0,0.0,0.0,0.0,0.0,0.0,0.0,0.0,0.0,0.0,0.0,0.0,0.0,0.0,0.0,0.0,0.0,0.0,0.0,0.0,0.0,0.0,0.0,0.0,0.0,0.0,0.0,0.0,0.0,0.0,0.0,0.0,0.0,0.0,0.0,0.0,0.0,0.0,0.0,0.0,0.0,0.0,0.0,0.0,0.0,0.0,0.0,0.0,0.1681,0.2142,0.2336,0.0,0.3196,0.0,0.0,0.0,0.0,0.0,0.0,0.0,0.0,0.0,0.0,0.0,0.0,0.0,0.0,0.0,0.0,0.0,0.0,0.0,0.0,0.0,0.0,0.0,0.0,0.0,0.0,0.0,0.0,0.0,0.0,0.0,0.0,0.0,0.0,0.0,0.0,0.0,0.0,0.0,0.0,0.0,0.0,0.0,0.0,0.0,0.0,0.0,0.0,0.0,0.0,0.0,0.0,0.0,0.0,0.0,0.0,0.0,0.0,0.0,0.0,0.0,0.0,0.0,0.0,0.0,0.0,0.0,0.0,0.0,0.0,0.0,0.0,0.0,0.0,0.0,0.0,0.0,0.0,0.0,0.0,0.0,0.0,0.0,0.0,0.0,0.0,0.0,0.0,0.0,0.0,0.0,0.0,0.0,0.0,0.0,0.0,0.0,0.0,0.0,0.0,0.0,0.0,0.0,0.0,0.0,0.0,0.0,0.0,0.0,0.0,0.2143,0.213,0.2668,0.2944,0.0,0.0,0.0,0.0,0.0,0.0,0.0,0.0,0.0,0.0,0.0,0.0,0.0,0.0,0.0,0.0,0.0,0.0,0.0,0.0,0.0,0.0,0.0,0.0,0.0,0.0,0.0,0.0,0.0,0.0,0.0,0.0,0.0,0.0,0.0,0.0,0.0,0.0,0.0,0.0,0.0,0.0,0.0,0.0,0.0,0.0,0.0,0.0,0.0,0.0,0.0,0.0,0.0,0.0,0.0,0.0,0.0,0.0,0.0,0.0,0.0,0.0,0.0,0.0,0.0,0.0,0.0,0.0,0.0,0.0,0.0,0.0,0.0,0.0,0.0,0.0,0.0,0.0,0.0,0.0,0.0,0.0,0.0,0.0,0.0,0.0,0.0,0.0,0.0,0.0,0.0,0.0,0.0,0.0,0.0,0.0,0.0,0.0,0.0,0.0,0.0,0.0,0.0,0.0,0.0,0.0,0.0,0.0,0.0,0.0,0.2568,0.2735,0.2668,0.3156,0.3347,0.3145,0.0,0.0,0.0,0.0,0.0,0.0,0.0,0.0,0.0,0.0,0.0,0.0,0.0,0.0,0.0,0.0,0.0,0.0,0.0,0.0,0.0,0.0,0.0,0.0,0.0,0.0,0.0,0.0,0.0,0.0,0.0,0.0,0.0,0.0,0.0,0.0,0.0,0.0,0.0,0.0,0.0,0.0,0.0,0.0,0.0,0.0,0.0,0.0,0.0,0.0,0.0,0.0,0.0,0.0,0.0,0.0,0.0,0.0,0.0,0.0,0.0,0.0,0.0,0.0,0.0,0.0,0.0,0.0,0.0,0.0,0.0,0.0,0.0,0.0,0.0,0.0,0.0,0.0,0.0,0.0,0.0,0.0,0.0,0.0,0.0,0.0,0.0,0.0,0.0,0.0,0.0,0.0,0.0,0.0,0.0,0.0,0.0,0.0,0.0,0.0,0.0,0.0,0.0,0.0,0.0,0.0,0.0,0.0,0.3153,0.3233,0.3567,0.4104,0.4094,0.4193,0.0,0.0,0.0,0.0,0.0,0.0,0.0,0.0,0.0,0.0,0.0,0.0,0.0,0.0,0.0,0.0,0.0,0.0,0.0,0.0,0.0,0.0,0.0,0.0,0.0,0.0,0.0,0.0,0.0,0.0,0.0,0.0,0.0,0.0,0.0,0.0,0.0,0.0,0.0,0.0,0.0,0.0,0.0,0.0,0.0,0.0,0.0,0.0,0.0,0.0,0.0,0.0,0.0,0.0,0.0,0.0,0.0,0.0,0.0,0.0,0.0,0.0,0.0,0.0,0.0,0.0,0.0,0.0,0.0,0.0,0.0,0.0,0.0,0.0,0.0,0.0,0.0,0.0,0.0,0.0,0.0,0.0,0.0,0.0,0.0,0.0,0.0,0.0,0.0,0.0,0.0,0.0,0.0,0.0,0.0,0.0,0.0,0.0,0.0,0.0,0.0,0.0,0.0,0.0,0.0,0.0,0.0,0.0,0.0,0.2638,0.2772,0.3073,0.3515,0.3903,0.4297,0.0,0.0,0.0,0.0,0.0,0.0,0.0,0.0,0.0,0.0,0.0,0.0,0.0,0.0,0.0,0.0,0.0,0.0,0.0,0.0,0.0,0.0,0.0,0.0,0.0,0.0,0.0,0.0,0.0,0.0,0.0,0.0,0.0,0.0,0.0,0.0,0.0,0.0,0.0,0.0,0.0,0.0,0.0,0.0,0.0,0.0,0.0,0.0,0.0,0.0,0.0,0.0,0.0,0.0,0.0,0.0,0.0,0.0,0.0,0.0,0.0,0.0,0.0,0.0,0.0,0.0,0.0,0.0,0.0,0.0,0.0,0.0,0.0,0.0,0.0,0.0,0.0,0.0,0.0,0.0,0.0,0.0,0.0,0.0,0.0,0.0,0.0,0.0,0.0,0.0,0.0,0.0,0.0,0.0,0.0,0.0,0.0,0.0,0.0,0.0,0.0,0.0,0.0,0.0,0.0,0.0,0.0,0.0,0.0,0.2659,0.0,0.3425,0.3416,0.4183,0.4666,0.0,0.0,0.0,0.0,0.0,0.0,0.0,0.0,0.0,0.0,0.0,0.0,0.0,0.0,0.0,0.0,0.0,0.0,0.0,0.0,0.0,0.0,0.0,0.0,0.0,0.0,0.0,0.0,0.0,0.0,0.0,0.0,0.0,0.0,0.0,0.0,0.0,0.0,0.0,0.0,0.0,0.0,0.0,0.0,0.0,0.0,0.0,0.0,0.0,0.0,0.0,0.0,0.0,0.0,0.0,0.0,0.0,0.0,0.0,0.0,0.0,0.0,0.0,0.0,0.0,0.0,0.0,0.0,0.0,0.0,0.0,0.0,0.0,0.0,0.0,0.0,0.0,0.0,0.0,0.0,0.0,0.0,0.0,0.0,0.0,0.0,0.0,0.0,0.0,0.0,0.0,0.0,0.0,0.0,0.0,0.0,0.0,0.0,0.0,0.0,0.0,0.0,0.0,0.0,0.0,0.0,0.0,0.0,0.3032,0.3412,0.45,0.4699,0.4061,0.4999,0.5338,0.0,0.0,0.0,0.0,0.0,0.0,0.0,0.0,0.0,0.0,0.0,0.0,0.0,0.0,0.0,0.0,0.0,0.0,0.0,0.0,0.0,0.0,0.0,0.0,0.0,0.0,0.0,0.0,0.0,0.0,0.0,0.0,0.0,0.0,0.0,0.0,0.0,0.0,0.0,0.0,0.0,0.0,0.0,0.0,0.0,0.0,0.0,0.0,0.0,0.0,0.0,0.0,0.0,0.0,0.0,0.0,0.0,0.0,0.0,0.0,0.0,0.0,0.0,0.0,0.0,0.0,0.0,0.0,0.0,0.0,0.0,0.0,0.0,0.0,0.0,0.0,0.0,0.0,0.0,0.0,0.0,0.0,0.0,0.0,0.0,0.0,0.0,0.0,0.0,0.0,0.0,0.0,0.0,0.0,0.0,0.0,0.0,0.0,0.0,0.0,0.0,0.0,0.0,0.0,0.0,0.0,0.0,0.0,0.0,0.3507,0.4064,0.4472,0.4701,0.511,0.5467,0.0,0.0,0.0,0.0,0.0,0.0,0.0,0.0,0.0,0.0,0.0,0.0,0.0,0.0,0.0,0.0,0.0,0.0,0.0,0.0,0.0,0.0,0.0,0.0,0.0,0.0,0.0,0.0,0.0,0.0,0.0,0.0,0.0,0.0,0.0,0.0,0.0,0.0,0.0,0.0,0.0,0.0,0.0,0.0,0.0,0.0,0.0,0.0,0.0,0.0,0.0,0.0,0.0,0.0,0.0,0.0,0.0,0.0,0.0,0.0,0.0,0.0,0.0,0.0,0.0,0.0,0.0,0.0,0.0,0.0,0.0,0.0,0.0,0.0,0.0,0.0,0.0,0.0,0.0,0.0,0.0,0.0,0.0,0.0,0.0,0.0,0.0,0.0,0.0,0.0,0.0,0.0,0.0,0.0,0.0,0.0,0.0,0.0,0.0,0.0,0.0,0.0,0.0,0.0,0.0,0.0,0.0,0.0,0.0,0.4405,0.4538,0.4717,0.4915,0.5338,0.5626,0.5762,0.0,0.0,0.0,0.0,0.0,0.0,0.0,0.0,0.0,0.0,0.0,0.0,0.0,0.0,0.0,0.0,0.0,0.0,0.0,0.0,0.0,0.0,0.0,0.0,0.0,0.0,0.0,0.0,0.0,0.0,0.0,0.0,0.0,0.0,0.0,0.0,0.0,0.0,0.0,0.0,0.0,0.0,0.0,0.0,0.0,0.0,0.0,0.0,0.0,0.0,0.0,0.0,0.0,0.0,0.0,0.0,0.0,0.0,0.0,0.0,0.0,0.0,0.0,0.0,0.0,0.0,0.0,0.0,0.0,0.0,0.0,0.0,0.0,0.0,0.0,0.0,0.0,0.0,0.0,0.0,0.0,0.0,0.0,0.0,0.0,0.0,0.0,0.0,0.0,0.0,0.0,0.0,0.0,0.0,0.0,0.0,0.0,0.0,0.0,0.0,0.0,0.0,0.0,0.0,0.0,0.0,0.0,0.0,0.5927,0.5835,0.5504,0.4931,0.5792,0.5887,0.0,0.0,0.0,0.0,0.0,0.0,0.0,0.0,0.0,0.0,0.0,0.0,0.0,0.0,0.0,0.0,0.0,0.0,0.0,0.0,0.0,0.0,0.0,0.0,0.0,0.0,0.0,0.0,0.0,0.0,0.0,0.0,0.0,0.0,0.0,0.0,0.0,0.0,0.0,0.0,0.0,0.0,0.0,0.0,0.0,0.0,0.0,0.0,0.0,0.0,0.0,0.0,0.0,0.0,0.0,0.0,0.0,0.0,0.0,0.0,0.0,0.0,0.0,0.0,0.0,0.0,0.0,0.0,0.0,0.0,0.0,0.0,0.0,0.0,0.0,0.0,0.0,0.0,0.0,0.0,0.0,0.0,0.0,0.0,0.0,0.0,0.0,0.0,0.0,0.0,0.0,0.0,0.0,0.0,0.0,0.0,0.0,0.0,0.0,0.0,0.0,0.0,0.0,0.0,0.0,0.0,0.0,0.0,0.0,0.7288,0.7038,0.6613,0.6082,0.6632,0.6491,0.0,0.0,0.0,0.0,0.0,0.0,0.0,0.0,0.0,0.0,0.0,0.0,0.0,0.0,0.0,0.0,0.0,0.0,0.0,0.0,0.0,0.0,0.0,0.0,0.0,0.0,0.0,0.0,0.0,0.0,0.0,0.0,0.0,0.0,0.0,0.0,0.0,0.0,0.0,0.0,0.0,0.0,0.0,0.0,0.0,0.0,0.0,0.0,0.0,0.0,0.0,0.0,0.0,0.0,0.0,0.0,0.0,0.0,0.0,0.0,0.0,0.0,0.0,0.0,0.0,0.0,0.0,0.0,0.0,0.0,0.0,0.0,0.0,0.0,0.0,0.0,0.0,0.0,0.0,0.0,0.0,0.0,0.0,0.0,0.0,0.0,0.0,0.0,0.0,0.0,0.0,0.0,0.0,0.0,0.0,0.0,0.0,0.0,0.0,0.0,0.0,0.0,0.0,0.0,0.0,0.0,0.0,0.0,0.6712,0.757,0.7895,0.7793,0.7288,0.7545,0.7149,0.0,0.0,0.0,0.0,0.0,0.0,0.0,0.0,0.0,0.0,0.0,0.0,0.0,0.0,0.0,0.0,0.0,0.0,0.0,0.0,0.0,0.0,0.0,0.0,0.0,0.0,0.0,0.0,0.0,0.0,0.0,0.0,0.0,0.0,0.0,0.0,0.0,0.0,0.0,0.0,0.0,0.0,0.0,0.0,0.0,0.0,0.0,0.0,0.0,0.0,0.0,0.0,0.0,0.0,0.0,0.0,0.0,0.0,0.0,0.0,0.0,0.0,0.0,0.0,0.0,0.0,0.0,0.0,0.0,0.0,0.0,0.0,0.0,0.0,0.0,0.0,0.0,0.0,0.0,0.0,0.0,0.0,0.0,0.0,0.0,0.0,0.0,0.0,0.0,0.0,0.0,0.0,0.0,0.0,0.0,0.0,0.0,0.0,0.0,0.0,0.0,0.0,0.0,0.0,0.0,0.0,0.0,0.0,0.6958,0.7316,0.8449,0.8822,0.8375,0.8381,0.7751,0.0,0.0,0.0,0.0,0.0,0.0,0.0,0.0,0.0,0.0,0.0,0.0,0.0,0.0,0.0,0.0,0.0,0.0,0.0,0.0,0.0,0.0,0.0,0.0,0.0,0.0,0.0,0.0,0.0,0.0,0.0,0.0,0.0,0.0,0.0,0.0,0.0,0.0,0.0,0.0,0.0,0.0,0.0,0.0,0.0,0.0,0.0,0.0,0.0,0.0,0.0,0.0,0.0,0.0,0.0,0.0,0.0,0.0,0.0,0.0,0.0,0.0,0.0,0.0,0.0,0.0,0.0,0.0,0.0,0.0,0.0,0.0,0.0,0.0,0.0,0.0,0.0,0.0,0.0,0.0,0.0,0.0,0.0,0.0,0.0,0.0,0.0,0.0,0.0,0.0,0.0,0.0,0.0,0.0,0.0,0.0,0.0,0.0,0.0,0.0,0.0,0.0,0.0,0.0,0.0,0.0,0.0,0.0,0.7026,0.7974,0.8557,0.8811,0.8693,0.8495,0.7992,0.0,0.0,0.0,0.0,0.0,0.0,0.0,0.0,0.0,0.0,0.0,0.0,0.0,0.0,0.0,0.0,0.0,0.0,0.0,0.0,0.0,0.0,0.0,0.0,0.0,0.0,0.0,0.0,0.0,0.0,0.0,0.0,0.0,0.0,0.0,0.0,0.0,0.0,0.0,0.0,0.0,0.0,0.0,0.0,0.0,0.0,0.0,0.0,0.7038,0.0,0.0,0.0,0.0,0.0,0.0,0.0,0.0,0.0,0.0,0.0,0.0,0.0,0.0,0.0,0.0,0.0,0.0,0.0,0.0,0.0,0.0,0.0,0.0,0.0,0.0,0.0,0.0,0.0,0.0,0.0,0.0,0.0,0.0,0.0,0.0,0.0,0.0,0.0,0.0,0.0,0.0,0.0,0.0,0.0,0.0,0.0,0.0,0.0,0.0,0.0,0.0,0.0,0.0,0.0,0.0,0.0,0.0,0.0,0.686,0.7726,0.8497,0.8962,0.9067,0.88,0.8383,0.0,0.0,0.0,0.0,0.0,0.0,0.0,0.0,0.0,0.0,0.0,0.0,0.0,0.0,0.0,0.0,0.0,0.0,0.0,0.0,0.0,0.0,0.0,0.0,0.0,0.0,0.0,0.0,0.0,0.0,0.0,0.0,0.0,0.0,0.0,0.0,0.0,0.0,0.0,0.0,0.0,0.0,0.0,0.0,0.0,0.0,0.0,0.0,0.0,0.0,0.0,0.0,0.0,0.0,0.0,0.0,0.0,0.0,0.0,0.0,0.0,0.0,0.0,0.0,0.0,0.0,0.0,0.0,0.0,0.0,0.0,0.0,0.0,0.0,0.0,0.0,0.0,0.0,0.0,0.0,0.0,0.0,0.0,0.0,0.0,0.0,0.0,0.0,0.0,0.0,0.0,0.0,0.0,0.0,0.0,0.0,0.0,0.0,0.0,0.0,0.0,0.0,0.0,0.0,0.0,0.0,0.0,0.5928,0.6743,0.7362,0.8353,0.9029,0.9404,0.8995,0.874,0.8686,0.0,0.0,0.0,0.0,0.0,0.0,0.0,0.0,0.0,0.0,0.0,0.0,0.0,0.0,0.0,0.0,0.0,0.0,0.0,0.0,0.0,0.0,0.0,0.0,0.0,0.0,0.0,0.0,0.0,0.0,0.0,0.0,0.0,0.0,0.0,0.0,0.0,0.0,0.6969,0.7306,0.0,0.0,0.0,0.0,0.0,0.0,0.0,0.0,0.7413,0.0,0.0,0.0,0.0,0.0,0.0,0.0,0.0,0.0,0.0,0.0,0.0,0.0,0.0,0.0,0.0,0.0,0.0,0.0,0.0,0.0,0.0,0.0,0.0,0.0,0.0,0.0,0.0,0.0,0.0,0.0,0.0,0.0,0.0,0.0,0.0,0.0,0.0,0.0,0.0,0.0,0.0,0.0,0.0,0.0,0.0,0.0,0.0,0.0,0.0,0.0,0.0,0.0,0.0,0.0,0.0,0.4613,0.5939,0.7098,0.8009,0.8205,0.8693,0.9429,0.8613,0.8565,0.9412,0.0,0.0,0.0,0.0,0.0,0.0,0.0,0.0,0.0,0.0,0.0,0.0,0.0,0.0,0.0,0.0,0.0,0.0,0.0,0.0,0.0,0.0,0.0,0.0,0.0,0.0,0.0,0.0,0.0,0.0,0.0,0.0,0.0,0.0,0.0,0.0,0.0,0.0,0.0,0.7326,0.8011,0.0,0.0,0.0,0.0,0.0,0.0,0.0,0.0,0.7969,0.0,0.0,0.0,0.0,0.0,0.0,0.0,0.0,0.0,0.0,0.0,0.0,0.0,0.0,0.0,0.0,0.0,0.0,0.0,0.0,0.0,0.0,0.0,0.0,0.0,0.0,0.0,0.0,0.0,0.0,0.0,0.0,0.0,0.0,0.0,0.0,0.0,0.0,0.0,0.0,0.0,0.0,0.0,0.0,0.0,0.0,0.0,0.0,0.0,0.0,0.0,0.0,0.0,0.0,0.0,0.4897,0.5817,0.6772,0.761,0.7871,0.8264,0.8795,0.814,0.8271,0.0,0.0,0.0,0.0,0.0,0.0,0.0,0.0,0.0,0.0,0.0,0.0,0.0,0.0,0.0,0.0,0.0,0.0,0.0,0.0,0.0,0.0,0.0,0.0,0.0,0.0,0.0,0.0,0.0,0.0,0.0,0.0,0.0,0.0,0.0,0.0,0.0,0.0,0.0,0.0,0.7307,0.7907,0.8638,0.0,0.0,0.0,0.0,0.0,0.0,0.863,0.8256,0.0,0.0,0.0,0.0,0.0,0.0,0.0,0.0,0.0,0.0,0.0,0.0,0.0,0.0,0.0,0.0,0.0,0.0,0.0,0.0,0.0,0.0,0.0,0.0,0.0,0.0,0.0,0.0,0.0,0.0,0.0,0.0,0.0,0.0,0.0,0.0,0.0,0.0,0.0,0.0,0.0,0.0,0.0,0.0,0.0,0.0,0.0,0.0,0.0,0.0,0.0,0.0,0.0,0.0,0.0,0.5176,0.5656,0.6275,0.6957,0.737,0.7786,0.8174,0.782,0.8093,0.0,0.0,0.0,0.0,0.0,0.0,0.0,0.0,0.0,0.0,0.0,0.0,0.0,0.0,0.0,0.0,0.0,0.0,0.0,0.0,0.0,0.0,0.0,0.0,0.0,0.0,0.0,0.0,0.0,0.0,0.0,0.0,0.0,0.0,0.0,0.0,0.0,0.0,0.0,0.0,0.0,0.8082,0.8676,0.9191,0.0,0.0,0.0,0.0,0.9993,0.9288,0.0,0.0,0.0,0.0,0.0,0.0,0.0,0.0,0.0,0.0,0.0,0.0,0.0,0.0,0.0,0.0,0.0,0.0,0.0,0.0,0.0,0.0,0.0,0.0,0.0,0.0,0.0,0.0,0.0,0.0,0.0,0.0,0.0,0.0,0.0,0.0,0.0,0.0,0.0,0.0,0.0,0.0,0.0,0.0,0.0,0.0,0.0,0.0,0.0,0.0,0.0,0.0,0.0,0.0,0.0,0.0,0.5307,0.5584,0.603,0.6606,0.6758,0.7271,0.8163,0.7824,0.8386,0.0,0.0,0.0,0.0,0.0,0.0,0.0,0.0,0.0,0.0,0.0,0.0,0.0,0.0,0.0,0.0,0.0,0.0,0.0,0.0,0.0,0.0,0.0,0.0,0.0,0.0,0.0,0.0,0.0,0.0,0.0,0.0,0.0,0.0,0.0,0.0,0.0,0.0,0.0,0.0,0.0,0.8954,0.9564,0.9629,0.9867,0.0,0.0,0.9925,1.068,1.0692,0.0,0.0,0.0,0.0,0.0,0.0,0.0,0.0,0.0,0.0,0.0,0.0,0.0,0.0,0.0,0.0,0.0,0.0,0.0,0.0,0.0,0.0,0.0,0.0,0.0,0.0,0.0,0.0,0.0,0.0,0.0,0.0,0.0,0.0,0.0,0.0,0.0,0.0,0.0,0.0,0.0,0.0,0.0,0.0,0.0,0.0,0.0,0.0,0.0,0.0,0.0,0.0,0.0,0.0,0.0,0.5631,0.5087,0.5298,0.5628,0.603,0.6335,0.6821,0.7498,0.7355,0.7858,0.0,0.0,0.0,0.0,0.0,0.0,0.0,0.0,0.0,0.0,0.0,0.0,0.0,0.0,0.0,0.0,0.0,0.0,0.0,0.0,0.0,0.0,0.0,0.0,0.0,0.0,0.0,0.0,0.0,0.0,0.0,0.0,0.0,0.0,0.0,0.0,0.0,0.0,0.0,0.0,0.0,0.0,0.9465,0.9947,0.0,0.0,0.0,1.0662,1.1027,0.0,0.0,0.0,0.0,0.0,0.0,0.0,0.0,0.0,0.0,0.0,0.0,0.0,0.0,0.0,0.0,0.0,0.0,0.0,0.0,0.0,0.0,0.0,0.0,0.0,0.0,0.0,0.0,0.0,0.0,0.0,0.0,0.0,0.0,0.0,0.0,0.0,0.0,0.0,0.0,0.0,0.0,0.0,0.0,0.0,0.0,0.0,0.0,0.0,0.0,0.0,0.0,0.0,0.0,0.0,0.0,0.0,0.5177,0.5126,0.5282,0.5638,0.6143,0.6639,0.7046,0.7307,0.0,0.0,0.0,0.0,0.0,0.0,0.0,0.0,0.0,0.0,0.0,0.0,0.0,0.0,0.0,0.0,0.0,0.0,0.0,0.0,0.0,0.0,0.0,0.0,0.0,0.0,0.0,0.8004,0.0,0.0,0.0,0.0,0.0,0.0,0.0,0.0,0.0,0.0,0.0,0.0,0.0,0.0,0.8956,0.9558,1.0164,1.0633,0.0,0.0,1.1015,1.1108,1.093,1.0846,0.0,0.0,0.0,0.0,0.0,0.0,0.0,0.0,0.0,0.0,0.0,0.0,0.0,0.0,0.0,0.0,0.0,0.0,0.0,0.0,0.0,0.0,0.0,0.0,0.0,0.0,0.0,0.0,0.0,0.0,0.0,0.0,0.0,0.0,0.0,0.0,0.0,0.0,0.0,0.0,0.0,0.0,0.0,0.0,0.0,0.0,0.0,0.0,0.0,0.0,0.0,0.0,0.0,0.0,0.6629,0.584,0.5225,0.5171,0.5678,0.64,0.6908,0.7197,0.8099,0.9108,0.0,0.0,0.0,0.0,0.0,0.0,0.0,0.0,0.0,0.0,0.0,0.0,0.0,0.0,0.0,0.0,0.0,0.0,0.0,0.0,0.0,0.0,0.0,0.0,0.0,0.0,0.0,0.0,0.0,0.0,0.0,0.0,0.0,0.0,0.0,0.0,0.0,0.0,0.0,0.0,0.0,1.0179,1.0325,1.0222,1.0267,0.0,1.0698,1.0777,1.0904,1.1413,1.1579,1.0938,0.0,0.0,0.0,0.0,0.0,0.0,0.0,0.0,0.0,0.0,0.0,0.0,0.0,0.0,0.0,0.0,0.0,0.0,0.0,0.0,0.0,0.0,0.0,0.0,0.0,0.0,0.0,0.0,0.0,0.0,0.0,0.0,0.0,0.0,0.0,0.0,0.0,0.0,0.0,0.0,0.0,0.0,0.0,0.0,0.0,0.0,0.0,0.0,0.0,0.0,0.0,0.0,0.0,0.6472,0.6069,0.5394,0.5363,0.6046,0.6601,0.7091,0.756,0.8244,0.8794,0.0,0.0,0.0,0.0,0.0,0.0,0.0,0.0,0.0,0.0,0.0,0.0,0.0,0.0,0.0,0.0,0.0,0.0,0.0,0.0,0.0,0.0,0.0,0.0,0.0,0.0,0.0,0.0,0.7221,0.6973,0.6645,0.0,0.0,0.0,0.0,0.0,0.0,0.0,0.0,0.0,0.0,0.9618,1.0071,1.0154,0.0,0.0,1.0955,1.1189,1.0887,1.1024,1.1068,1.077,1.0651,0.0,0.0,0.0,0.0,0.0,0.0,0.0,0.0,0.0,0.0,0.0,0.0,0.0,0.0,0.0,0.0,0.0,0.0,0.0,0.0,0.0,0.0,0.0,0.0,0.0,0.0,0.0,0.0,0.0,0.0,0.0,0.0,0.0,0.0,0.0,0.0,0.0,0.0,0.0,0.0,0.0,0.0,0.0,0.0,0.0,0.0,0.0,0.0,0.0,0.0,0.0,0.0,0.6508,0.6192,0.5578,0.5597,0.6324,0.6839,0.7327,0.7796,0.8437,0.8777,0.0,0.0,0.0,0.0,0.0,0.0,0.0,0.0,0.0,0.0,0.0,0.0,0.0,0.0,0.0,0.0,0.0,0.0,0.0,0.0,0.0,0.0,0.0,0.0,0.0,0.0,0.0,0.0,0.7354,0.7154,0.677,0.0,0.0,0.0,0.0,0.0,0.0,0.0,0.0,0.0,0.0,0.9219,0.9721,0.9861,0.997,1.0167,1.069,1.0996,1.0693,1.0583,1.0503,1.0485,0.0,0.0,0.0,0.0,0.0,0.0,0.0,0.0,0.0,0.0,0.0,0.0,0.0,0.0,0.0,0.0,0.0,0.0,0.0,0.0,0.0,0.0,0.0,0.0,0.0,0.0,0.0,0.62,0.0,0.0,0.5901,0.0,0.0,0.0,0.0,0.0,0.0,0.0,0.0,0.0,0.0,0.0,0.0,0.0,0.0,0.0,0.0,0.0,0.0,0.0,0.0,0.0,0.0,0.6831,0.621,0.5782,0.5822,0.6388,0.7174,0.7612,0.7797,0.8678,0.936,0.9719,0.0,0.0,0.0,0.0,0.0,0.0,0.0,0.0,0.0,0.0,0.0,0.0,0.0,0.0,0.0,0.0,0.0,0.0,0.0,0.0,0.0,0.0,0.0,0.0,0.0,0.0,0.938,0.8134,0.7227,0.0,0.0,0.0,0.0,0.0,0.0,0.0,0.0,0.0,0.9517,0.9428,0.9369,0.9345,0.9265,0.9357,0.9688,0.9779,0.9898,1.0288,1.0192,1.0065,0.0,0.0,0.0,0.0,0.0,0.0,0.0,0.0,0.0,0.0,0.0,0.0,0.0,0.0,0.0,0.0,0.0,0.0,0.0,0.0,0.0,0.0,0.0,0.0,0.0,0.0,0.0,0.6909,0.6819,0.0,0.0,0.0,0.0,0.0,0.0,0.0,0.0,0.0,0.0,0.0,0.8919,0.8935,0.0,0.0,0.0,0.0,0.0,0.0,0.0,0.0,0.0,0.0,0.0,0.0,0.6095,0.6281,0.5479,0.5514,0.6416,0.6739,0.6955,0.7155,0.7918,0.8584,0.9111,0.0,0.0,0.0,0.0,0.0,0.0,0.0,0.0,0.0,0.0,0.0,0.0,0.0,0.0,0.0,0.0,0.0,0.0,0.0,0.0,0.0,0.0,0.0,0.0,0.0,0.9669,0.0,0.0,0.0,0.0,0.0,0.0,0.0,0.0,0.0,0.0,0.9452,0.9511,0.9193,0.9368,0.9529,0.9488,0.9368,0.947,0.0,0.0,0.0,0.0,0.0,0.0,0.0,0.0,0.0,0.0,0.0,0.0,0.0,0.0,1.0343,0.99,1.0093,1.0435,1.0769,0.0,0.0,0.0,0.0,0.0,0.0,0.0,0.0,0.0,0.0,0.0,0.0,0.0,0.0,0.743,0.7694,0.7534,0.0,0.0,0.0,0.0,0.0,0.0,0.0,0.0,0.8458,0.8531,0.869,0.8561,0.854,0.8582,0.8257,0.8244,0.0,0.0,0.0,0.0,0.0,0.0,0.0,0.0,0.5891,0.628,0.558,0.5698,0.6671,0.6816,0.6952,0.7197,0.7924,0.8449,0.8688,0.8839,0.8781,0.0,0.0,0.0,0.0,0.0,0.0,0.0,0.0,0.0,0.0,0.0,0.0,0.0,0.0,0.0,0.0,0.0,0.0,0.0,0.0,0.0,0.0,0.0,0.9095,0.0,0.0,0.0,0.0,0.0,0.0,0.0,0.0,0.0,0.9039,0.9374,0.9536,0.9261,0.9545,0.978,0.9747,0.0,0.0,0.0,0.0,0.0,0.0,0.0,0.9717,0.9661,0.9603,0.973,1.0149,1.0529,1.0648,1.029,0.0,0.0,0.9813,0.9958,1.0254,1.0751,1.0208,0.9994,1.0943,1.0089,0.9354,0.0,0.0,0.0,0.0,0.804,0.0,0.0,0.0,0.7875,0.8166,0.0,0.7945,0.0,0.0,0.0,0.0,0.7759,0.7827,0.0,0.0,0.8632,0.8461,0.834,0.8345,0.8558,0.8925,0.8138,0.7984,0.8378,0.7999,0.0,0.0,0.0,0.0,0.0,0.0,0.6203,0.6207,0.6034,0.6333,0.7026,0.7306,0.7576,0.7836,0.8592,0.8829,0.855,0.9686,0.993,0.8921,0.8297,0.0,0.0,0.0,0.0,0.0,0.0,0.0,0.0,0.0,0.0,0.0,0.0,0.0,0.0,0.0,0.0,0.0,0.0,0.0,0.0,0.8658,0.0,0.0,0.0,0.0,0.0,0.0,0.0,0.0,0.0,0.9239,0.8928,0.9248,0.9525,0.9557,0.0,0.0,0.0,0.0,0.9917,1.0081,0.9709,0.964,1.0265,0.9827,0.9576,0.9944,0.0,0.0,1.0253,1.0108,1.0185,1.0772,1.0678,1.0463,1.0301,1.0321,1.0416,1.0674,1.0622,1.0576,1.055,1.007,0.9559,0.9839,0.0,0.0,0.0,0.0,0.9051,0.8859,0.8643,0.8639,0.8596,0.8537,0.8466,0.0,0.0,0.0,0.0,0.0,0.0,0.8764,0.8975,0.8927,0.8942,0.893,0.8613,0.855,0.877,0.8441,0.8333,0.8427,0.7923,0.7564,0.7365,0.0,0.0,0.0,0.0,0.6157,0.6298,0.5782,0.5822,0.6461,0.6639,0.6874,0.7167,0.7557,0.7817,0.7992,0.8783,0.8967,0.8429,0.8915,0.0,0.0,0.0,0.0,0.0,0.0,0.0,0.0,0.0,0.0,0.0,0.0,0.0,0.0,0.0,0.0,0.0,0.0,0.0,0.9105,0.8614,0.8345,0.0,0.0,0.0,0.0,0.0,0.0,0.0,0.0,0.0,0.8823,0.9312,0.9557,0.0,0.0,0.9647,0.9748,0.9631,0.9679,1.0044,0.9886,0.0,0.9903,0.9741,0.9457,0.9012,0.9337,0.9803,1.0233,1.0517,1.0745,1.088,1.095,1.0866,1.0448,1.0669,1.0896,1.0844,1.0542,1.0392,1.0626,1.0024,0.9453,1.0191,0.9906,0.9801,0.9687,0.9591,0.9467,0.9234,0.8955,0.9043,0.9061,0.9141,0.9028,0.8945,0.8879,0.8731,0.0,0.0,0.0,0.891,0.8984,0.8858,0.8882,0.892,0.8528,0.8457,0.8688,0.8439,0.8374,0.8527,0.7977,0.7606,0.7357,0.0,0.6678,0.6332,0.6121,0.6154,0.6407,0.5839,0.5799,0.6343,0.6525,0.6766,0.7019,0.7317,0.7636,0.7992,0.8755,0.9004,0.8585,0.9351,0.9334,0.0,0.0,0.0,0.0,0.0,0.0,0.0,0.0,0.0,0.0,0.0,0.9694,0.9296,0.0,0.0,0.0,0.9415,0.909,0.839,0.8284,0.0,0.0,0.0,0.0,0.0,0.0,0.0,0.8767,0.8685,0.8642,0.8752,0.9002,0.9156,0.9156,0.9345,0.9531,0.9606,0.0,0.9538,0.9762,0.9607,0.9506,0.9611,0.9426,0.9163,0.8842,0.9161,0.9561,0.9819,1.0126,1.0423,1.0697,1.0819,1.0668,1.0022,1.0218,1.0542,1.064,1.0358,1.017,1.0572,0.9901,0.9345,1.0155,0.9998,1.0184,1.0007,0.9665,0.9829,0.9684,0.9318,0.9274,0.9632,1.0195,0.9527,0.9402,0.9669,0.9036,0.0,0.8456,0.8609,0.8784,0.8927,0.8618,0.8524,0.8615,0.8335,0.8391,0.8716,0.8288,0.8264,0.8599,0.8162,0.7901,0.7801,0.7039,0.6595,0.6482,0.6215,0.6224,0.6488,0.6137,0.6133,0.6518,0.6833,0.7054,0.7177,0.7656,0.8051,0.8319,0.9324,0.9616,0.9129,0.9626,0.9483,0.8607,0.0,0.0,0.0,0.0,0.0,0.0,0.0,0.0,0.0,0.0,0.0,0.0,0.0,0.0,1.025,0.9813,0.0,0.7275,0.7902,0.0,0.0,0.0,0.8435,0.8462,0.868,0.8741,0.8628,0.0,0.0,0.8675,0.8484,0.8568,0.9053,0.9355,0.9509,0.9439,0.939,0.9359,0.9275,0.8979,0.8916,0.9296,0.8896,0.8697,0.9037,0.9177,0.9226,0.9284,0.931,0.9621,1.03,1.035,0.9977,0.9344,0.9247,0.9453,1.0046,1.0066,1.0006,1.019,0.9776,0.9247,1.0261,1.0059,0.9902,0.9967,1.0226,1.0629,1.0636,1.0333,1.0409,1.02,0.982,0.942,0.9126,0.8772,0.8535,0.8548,0.8794,0.866,0.8834,0.9187,0.9066,0.9028,0.9075,0.8993,0.8954,0.8914,0.8793,0.8837,0.8866,0.843,0.8206,0.8144,0.7419,0.7109,0.72,0.6987,0.6779,0.6669,0.6467,0.6257,0.6037,0.6665,0.7021,0.705,0.7648,0.8109,0.8371,0.9219,0.9412,0.8934,0.9534,0.9135,0.7491,0.8467,0.0,0.0,0.0,0.0,0.0,0.0,0.0,0.0,0.0,0.9346,0.9319,0.0,0.8741,0.0,0.9296,0.8941,0.8354,0.8347,0.0,0.0,0.8744,0.8791,0.9052,0.885,0.8703,0.8667,0.8468,0.8402,0.8521,0.8271,0.8117,0.8206,0.8509,0.8728,0.8882,0.8765,0.8643,0.8671,0.8633,0.862,0.8674,0.8378,0.8228,0.8806,0.8645,0.8587,0.9004,0.9056,0.9198,0.9542,0.9591,0.923,0.8475,0.8464,0.8611,0.8763,0.9411,0.9963,0.9717,0.9432,0.9135,0.9911,0.9792,0.9489,0.9652,1.0092,1.0047,1.0209,1.0409,1.0031,0.9658,0.931,0.9359,0.923,0.8954,0.8639,0.8654,0.8863,0.859,0.8617,0.8886,0.8805,0.8756,0.876,0.8651,0.8602,0.8557,0.8521,0.8521,0.8553,0.8246,0.8111,0.8111,0.7788,0.7544,0.7429,0.6983,0.6635,0.6426,0.619,0.6022,0.5921,0.6353,0.6665,0.6766,0.7272,0.7625,0.7864,0.8495,0.8784,0.8639,0.9167,0.8976,0.7906,0.8027,0.7804,0.0,0.0,0.0,0.0,0.0,0.0,0.0,0.0,0.0,0.0,0.0,0.8535,0.8988,0.9135,0.9143,0.8912,0.8771,0.8765,0.8969,0.8725,0.8579,0.8695,0.8504,0.8341,0.8181,0.8028,0.7863,0.7852,0.7773,0.7652,0.7534,0.775,0.7991,0.8144,0.8118,0.8122,0.8118,0.8197,0.8201,0.8156,0.7762,0.761,0.7956,0.7824,0.773,0.8072,0.8148,0.8295,0.8544,0.8532,0.832,0.7691,0.7702,0.7881,0.8111,0.8562,0.8985,0.8889,0.8855,0.87,0.9513,0.9479,0.9147,0.9225,0.9564,0.8964,0.9184,0.9843,0.9083,0.8712,0.8744,0.9155,0.9319,0.9279,0.8914,0.8765,0.8749,0.8406,0.8287,0.8295,0.8189,0.814,0.8095,0.7908,0.7863,0.7897,0.7867,0.7863,0.7934,0.7867,0.7829,0.7829,0.7946,0.7745,0.7308,0.6591,0.6179,0.6035,0.5757,0.5717,0.5918,0.607,0.6239,0.6492,0.6786,0.7033,0.7238,0.7632,0.8012,0.8299,0.8537,0.8677,0.8638,0.7389,0.7111,0.0,0.731,0.0,0.0,0.0,0.0,0.0,0.0,0.0,0.0,0.8795,0.8565,0.8699,0.9083,0.9239,0.9009,0.8902,0.8805,0.8598,0.8324,0.8077,0.7934,0.7897,0.7773,0.7523,0.744,0.7269,0.7066,0.716,0.7157,0.694,0.7021,0.7196,0.7311,0.745,0.759,0.7587,0.7617,0.7572,0.7492,0.716,0.6894,0.708,0.7063,0.6911,0.7017,0.716,0.7265,0.7549,0.7528,0.7314,0.6926,0.7009,0.7224,0.7509,0.7676,0.7885,0.8121,0.8195,0.815,0.9578,0.9544,0.9133,0.894,0.8916,0.8443,0.8469,0.8821,0.8968,0.8772,0.8345,0.8423,0.8382,0.8308,0.8422,0.8381,0.8148,0.8032,0.7916,0.7836,0.7795,0.7704,0.7579,0.7572,0.7478,0.7346,0.7454,0.7496,0.7496,0.7492,0.7538,0.7565,0.7461,0.7209,0.681,0.0,0.0,0.0,0.5689,0.5579,0.547,0.6027,0.635,0.6448,0.6891,0.0,0.7355,0.7642,0.7836,0.7843,0.7621,0.0,0.0,0.0,0.0,0.0,0.0,0.0,0.0,0.0,0.0,0.0,0.8498,0.8382,0.8357,0.8544,0.8525,0.8273,0.8585,0.8695,0.8399,0.8277,0.8148,0.8077,0.7919,0.7746,0.7603,0.745,0.7374,0.7412,0.7112,0.6852,0.6868,0.6656,0.6389,0.6207,0.6127,0.617,0.6292,0.6732,0.6995,0.6901,0.6807,0.6634,0.6735,0.6556,0.6468,0.6729,0.6774,0.6774,0.6868,0.6914,0.696,0.7106,0.6956,0.6664,0.6286,0.647,0.669,0.6552,0.6854,0.7297,0.7781,0.7836,0.768,0.926,0.9232,0.8774,0.8689,0.0,0.8151,0.8027,0.8246,0.8325,0.8244,0.8037,0.7999,0.7983,0.8052,0.8006,0.7882,0.7724,0.7489,0.737,0.7328,0.716,0.7034,0.695,0.6901,0.6855,0.682,0.6823,0.6823,0.682,0.6741,0.6741,0.6781,0.6669,0.6492,0.6304,0.5841,0.5556,0.5521,0.5468,0.5471,0.5492,0.5885,0.6077,0.6115,0.6577,0.0,0.0,0.0,0.0,0.0,0.0,0.0,0.0,0.6921,0.0,0.7054,0.736,0.7591,0.7739,0.7716,0.7699,0.7631,0.7572,0.7747,0.8121,0.8269,0.8285,0.819,0.8302,0.8226,0.7863,0.7784,0.7617,0.7416,0.7283,0.7157,0.7024,0.6855,0.6725,0.6605,0.6383,0.6215,0.613,0.609,0.5919,0.5698,0.5696,0.5701,0.561,0.6087,0.6428,0.651,0.6304,0.6218,0.6346,0.6176,0.6087,0.6346,0.6343,0.6304,0.6447,0.6447,0.6492,0.6636,0.6532,0.6292,0.5976,0.6152,0.6346,0.6195,0.6298,0.6559,0.6901,0.7108,0.7238,0.8752,0.8771,0.8383,0.8374,0.8603,0.8025,0.7836,0.7917,0.7592,0.0,0.0,0.7634,0.7744,0.7885,0.752,0.741,0.7386,0.691,0.6805,0.6884,0.6544,0.6398,0.6349,0.6181,0.6147,0.6239,0.6145,0.6093,0.6053,0.5973,0.5933,0.5984,0.5952,0.5866,0.5663,0.5369,0.5239,0.5285,0.5239,0.5371,0.568,0.5755,0.5793,0.5793,0.615,0.6279,0.6139,0.6233,0.6319,0.6392,0.6349,0.6352,0.6346,0.6141,0.612,0.6365,0.6224,0.6278,0.6625,0.6683,0.6626,0.6396,0.6574,0.708,0.7938,0.7901,0.7859,0.7916,0.7818,0.7603,0.7311,0.7234,0.7073,0.6784,0.6644,0.6513,0.6346,0.6215,0.6039,0.5787,0.5701,0.5567,0.5308,0.544,0.5486,0.527,0.5262,0.5354,0.514,0.544,0.587,0.5956,0.5838,0.5841,0.6002,0.5838,0.5717,0.597,0.5876,0.5793,0.589,0.5936,0.6073,0.6312,0.6242,0.6053,0.5833,0.5964,0.6036,0.5919,0.5947,0.5945,0.5913,0.6259,0.6629,0.8212,0.8034,0.7991,0.8003,0.8034,0.8128,0.7991,0.7681,0.7155,0.6941,0.707,0.7127,0.7188,0.7228,0.6949,0.6928,0.711,0.6659,0.6474,0.6459,0.6206,0.5976,0.5804,0.5669,0.562,0.5623,0.5623,0.562,0.5623,0.558,0.5583,0.5583,0.569,0.5428,0.4838,0.4842,0.4838,0.4822,0.5145,0.5417,0.5682,0.5752,0.5793,0.5793,0.5973,0.5973,0.5873,0.5879,0.5879,0.5876,0.5841,0.5806,0.5806,0.6016,0.6095,0.5959,0.6349,0.6564,0.6517,0.6647,0.6667,0.6674,0.6661,0.6848,0.7143,0.715,0.7101,0.6937,0.6813,0.6644,0.6504,0.6462,0.638,0.6164,0.6121,0.6002,0.5707,0.5666,0.5575,0.5354,0.5221,0.5091,0.5009,0.4886,0.4718,0.4629,0.462,0.4491,0.4535,0.4845,0.5111,0.5157,0.5157,0.5198,0.5364,0.532,0.5323,0.5412,0.5494,0.5575,0.5585,0.5712,0.5847,0.6047,0.5938,0.5881,0.589,0.589,0.5733,0.5509,0.5669,0.5795,0.5352,0.5516,0.5767,0.7992,0.7859,0.768,0.7509,0.7512,0.8095,0.7884,0.7155,0.7013,0.7029,0.7086,0.6957,0.693,0.6993,0.6764,0.6707,0.6753,0.6354,0.6199,0.6188,0.5864,0.5672,0.5585,0.5455,0.541,0.5458,0.5412,0.5364,0.5323,0.5323,0.532,0.5226,0.5106,0.4751,0.4214,0.4399,0.4542,0.4589,0.4898,0.5106,0.5323,0.5275,0.5272,0.5277,0.5407,0.5407,0.5369,0.5371,0.5369,0.5369,0.5333,0.5336,0.5333,0.5458,0.5453,0.5229,0.5615,0.5836,0.5795,0.5879,0.5962,0.6044,0.6004,0.6004,0.6176,0.6465,0.6553,0.6431,0.631,0.6145,0.6007,0.5964,0.5879,0.5666,0.5618,0.5491,0.5282,0.5147,0.5055,0.4884,0.4799,0.4709,0.4622,0.4539,0.446,0.4368,0.4184,0.3965,0.3965,0.4056,0.4324,0.4668,0.4755,0.4845,0.4932,0.4975,0.5021,0.5116,0.5239,0.532,0.5323,0.5453,0.5547,0.5644,0.5628,0.557,0.5489,0.5441,0.5327,0.5119,0.5106,0.5129,0.4946,0.4891,0.5017,0.7801,0.7602,0.7323,0.7087,0.698,0.7566,0.7337,0.6793,0.6801,0.6985,0.7209,0.6909,0.6834,0.693,0.6756,0.6627,0.6555,0.6182,0.6034,0.6068,0.5712,0.5559,0.5517,0.5435,0.5395,0.5443,0.5346,0.523,0.5142,0.5046,0.5018,0.4948,0.4614,0.4137,0.3689,0.4051,0.4277,0.4298,0.4513,0.4687,0.4809,0.4774,0.4719,0.4716,0.4797,0.4838,0.4852,0.4895,0.4895,0.4852,0.4852,0.4854,0.4898,0.4895,0.4803,0.4672,0.4803,0.4975,0.4973,0.4975,0.5104,0.5318,0.5195,0.5149,0.5318,0.561,0.5867,0.5964,0.5841,0.5674,0.5501,0.5501,0.5415,0.5152,0.5154,0.5062,0.4898,0.4764,0.4672,0.4502,0.4458,0.4412,0.4276,0.4278,0.428,0.4148,0.388,0.3656,0.3565,0.3437,0.3702,0.4094,0.4355,0.4397,0.4537,0.4539,0.4583,0.4675,0.4845,0.4886,0.4888,0.498,0.5113,0.5157,0.5195,0.5096,0.49,0.4956,0.4918,0.4766,0.4759,0.4757,0.4631,0.4436,0.4444,0.7465,0.6949,0.6807,0.6665,0.6458,0.6041,0.6249,0.6738,0.6253,0.6411,0.7034,0.7076,0.7015,0.7047,0.6684,0.6615,0.6772,0.6258,0.5996,0.6022,0.5886,0.5688,0.5524,0.5535,0.5598,0.5535,0.5291,0.5089,0.4894,0.4705,0.4722,0.489,0.442,0.3844,0.341,0.3849,0.3975,0.3678,0.398,0.4247,0.4367,0.4419,0.4442,0.4456,0.4456,0.4449,0.4384,0.453,0.4578,0.4362,0.4416,0.4456,0.4543,0.4535,0.4497,0.4294,0.4202,0.419,0.4368,0.4176,0.4278,0.4753,0.4556,0.4514,0.4679,0.4585,0.4753,0.5123,0.5167,0.5026,0.4893,0.4891,0.4845,0.4707,0.4663,0.4622,0.4541,0.4548,0.4451,0.432,0.4278,0.423,0.4014,0.397,0.393,0.3801,0.3575,0.3393,0.3257,0.3262,0.3353,0.3527,0.3612,0.3741,0.3829,0.3787,0.3877,0.3875,0.4047,0.418,0.4186,0.4274,0.4447,0.4672,0.4587,0.4517,0.4485,0.4498,0.4584,0.443,0.4482,0.4653,0.4329,0.4043,0.4096,0.7208,0.6937,0.6495,0.6193,0.6,0.5545,0.5613,0.6057,0.5984,0.6046,0.6216,0.6381,0.6596,0.6864,0.6701,0.6544,0.6213,0.5727,0.5429,0.5317,0.5142,0.4956,0.4855,0.4857,0.496,0.517,0.4863,0.4571,0.4414,0.4358,0.4374,0.4397,0.4064,0.3746,0.3483,0.3601,0.3657,0.3681,0.374,0.3814,0.3852,0.3822,0.38,0.3746,0.3834,0.3883,0.3961,0.4072,0.4108,0.407,0.4115,0.4115,0.4154,0.4359,0.409,0.3242,0.336,0.3594,0.3729,0.3677,0.3773,0.4198,0.4111,0.4066,0.4245,0.4334,0.4415,0.4361,0.4357,0.4322,0.4282,0.4278,0.4228,0.4186,0.4186,0.4144,0.4054,0.4056,0.3968,0.3884,0.3886,0.3845,0.3753,0.3707,0.3619,0.3396,0.3217,0.3138,0.3038,0.3038,0.3086,0.3216,0.3126,0.3127,0.3393,0.3434,0.339,0.3435,0.3568,0.3656,0.3743,0.3832,0.4008,0.423,0.4186,0.4182,0.4194,0.4196,0.4194,0.4098,0.3957,0.4043,0.3852,0.3679,0.3771,0.6983,0.6763,0.608,0.565,0.5443,0.5095,0.5132,0.5409,0.551,0.5561,0.5504,0.567,0.5887,0.6216,0.6327,0.6059,0.5658,0.53,0.5025,0.4811,0.4702,0.4596,0.4443,0.4441,0.4598,0.4758,0.4503,0.4163,0.3925,0.407,0.4099,0.3904,0.3843,0.3711,0.3612,0.3513,0.3571,0.3661,0.3668,0.3666,0.36,0.3417,0.3288,0.3278,0.337,0.3421,0.3462,0.3582,0.3604,0.3557,0.356,0.3657,0.3698,0.3869,0.3405,0.2376,0.265,0.2965,0.3112,0.3111,0.3257,0.3556,0.3512,0.3562,0.3794,0.3919,0.385,0.3596,0.3494,0.3508,0.3736,0.3737,0.3692,0.3739,0.3739,0.3692,0.3653,0.3646,0.3659,0.361,0.3591,0.3563,0.3469,0.3387,0.3259,0.3023,0.2967,0.2909,0.2909,0.2783,0.2824,0.2961,0.273,0.276,0.3051,0.3037,0.2947,0.2993,0.3038,0.3126,0.3255,0.33,0.339,0.3478,0.3654,0.3818,0.3842,0.3819,0.3908,0.3798,0.3684,0.3607,0.3607,0.3481,0.344,0.6669,0.6169,0.5435,0.496,0.4644,0.4634,0.4721,0.4886,0.48,0.4959,0.5173,0.5062,0.5013,0.5177,0.5177,0.5232,0.5277,0.5042,0.4873,0.4818,0.4805,0.4871,0.4876,0.4876,0.4867,0.4727,0.4341,0.3968,0.3661,0.3758,0.3744,0.3637,0.3751,0.3708,0.361,0.3692,0.3724,0.3615,0.3669,0.3673,0.3569,0.3281,0.3119,0.3159,0.3224,0.3137,0.2922,0.3111,0.3094,0.2717,0.2823,0.3005,0.3178,0.2858,0.2373,0.1949,0.2093,0.227,0.2327,0.2332,0.253,0.2928,0.2793,0.2776,0.3199,0.3139,0.2957,0.283,0.2694,0.2762,0.3256,0.3266,0.3269,0.3275,0.334,0.3385,0.3443,0.3414,0.35,0.3439,0.3421,0.3311,0.3132,0.2956,0.2886,0.2836,0.2798,0.279,0.2725,0.2739,0.2748,0.2634,0.2599,0.2574,0.2578,0.2547,0.2457,0.246,0.2595,0.255,0.2414,0.2412,0.2592,0.2726,0.295,0.3171,0.339,0.3514,0.3628,0.3605,0.3521,0.3475,0.3428,0.3395,0.336,0.543,0.4888,0.4387,0.4202,0.4168,0.4027,0.402,0.4194,0.4332,0.4237,0.4128,0.4182,0.4128,0.4021,0.3852,0.4182,0.4736,0.4679,0.446,0.4237,0.4182,0.4128,0.3965,0.4022,0.4022,0.391,0.3856,0.3725,0.3635,0.3627,0.3669,0.3644,0.3664,0.3575,0.3443,0.3464,0.358,0.3581,0.3467,0.3352,0.3244,0.3022,0.2875,0.2866,0.3074,0.3075,0.2863,0.3023,0.2963,0.2662,0.2611,0.2632,0.2627,0.2297,0.1972,0.1829,0.1919,0.1893,0.1837,0.1838,0.1892,0.2106,0.2105,0.2153,0.2476,0.2728,0.2876,0.2565,0.2213,0.2231,0.2523,0.2645,0.2667,0.2667,0.2669,0.2675,0.2718,0.2719,0.2719,0.2719,0.2719,0.2668,0.2681,0.2621,0.2672,0.2672,0.2725,0.2781,0.2725,0.2674,0.2665,0.2619,0.2372,0.2179,0.2245,0.2313,0.2281,0.2285,0.2286,0.2287,0.2241,0.2194,0.2329,0.2369,0.2504,0.2728,0.3036,0.3258,0.335,0.3427,0.3355,0.3299,0.328,0.3245,0.3298,0.4506,0.4044,0.3745,0.3602,0.3621,0.3394,0.3387,0.3462,0.3663,0.3573,0.3298,0.3463,0.3465,0.3301,0.3132,0.3408,0.4018,0.4019,0.3907,0.3687,0.3687,0.3579,0.347,0.3528,0.3528,0.3471,0.353,0.3585,0.3473,0.3528,0.3486,0.3416,0.3433,0.3378,0.3267,0.3264,0.3302,0.3302,0.3132,0.3019,0.2853,0.2689,0.2635,0.2633,0.2799,0.2855,0.2688,0.2762,0.2709,0.25,0.2446,0.2379,0.2304,0.1871,0.1698,0.179,0.1627,0.1459,0.1403,0.1291,0.1234,0.1291,0.1344,0.1455,0.1679,0.2294,0.2519,0.2242,0.157,0.1347,0.1558,0.1664,0.1827,0.2036,0.2089,0.2036,0.1981,0.2087,0.2195,0.2252,0.2202,0.2196,0.2245,0.2352,0.2513,0.2613,0.272,0.272,0.261,0.2504,0.2421,0.2379,0.2077,0.1871,0.1867,0.1852,0.1969,0.1972,0.2018,0.2064,0.202,0.1975,0.1973,0.2059,0.219,0.2458,0.2682,0.2948,0.3084,0.3174,0.3205,0.3138,0.3152,0.3159,0.3193,0.3883,0.3727,0.3519,0.3223,0.2998,0.2912,0.2828,0.2705,0.2912,0.2961,0.2851,0.3018,0.3074,0.3077,0.302,0.3131,0.3188,0.3186,0.3299,0.3414,0.3414,0.3471,0.3528,0.3416,0.3416,0.3528,0.3585,0.3416,0.3189,0.3302,0.3294,0.3183,0.3124,0.3126,0.307,0.3015,0.2963,0.2794,0.2794,0.2685,0.2463,0.241,0.2466,0.2465,0.252,0.241,0.2239,0.228,0.2298,0.2188,0.2134,0.211,0.2102,0.1618,0.1457,0.1514,0.1178,0.0953,0.0897,0.0617,0.0561,0.0673,0.0561,0.0616,0.1007,0.1401,0.1852,0.1852,0.0953,0.0224,0.0393,0.0668,0.0999,0.1567,0.1552,0.1385,0.1332,0.1561,0.1843,0.1889,0.1826,0.19,0.207,0.2051,0.2098,0.2382,0.2497,0.2437,0.2149,0.2092,0.1948,0.1758,0.1655,0.1616,0.1497,0.1434,0.1524,0.1614,0.1749,0.1794,0.1704,0.1659,0.1569,0.1611,0.1835,0.206,0.2326,0.2549,0.2681,0.2726,0.2817,0.2907,0.295,0.2991,0.3081,0.3121,0.2742,0.2589,0.2503,0.245,0.2359,0.2192,0.1961,0.2406,0.2518,0.235,0.2406,0.2574,0.2631,0.2631,0.2688,0.28,0.2856,0.2967,0.3132,0.3189,0.319,0.3137,0.3135,0.3189,0.3246,0.3246,0.3189,0.3135,0.3137,0.3189,0.3189,0.3021,0.2909,0.2799,0.2575,0.2406,0.2293,0.218,0.207,0.1959,0.2019,0.2076,0.2189,0.2076,0.1964,0.1962,0.2107,0.2207,0.2097,0.1988,0.1887,0.1792,0.1346,0.0897,0.0617,0.0561,0.0505,0.0393,0.0336,0.0224,0.0224,0.0168,0.0224,0.0392,0.0504,0.0785,0.1178,0.0505,-0.0056,-0.0224,0.0673,0.1122,0.0897,0.0785,0.0729,0.0672,0.0784,0.084,0.0953,0.1065,0.1121,0.1066,0.1065,0.1346,0.1628,0.1682,0.1624,0.157,0.1682,0.1881,0.1747,0.1598,0.1341,0.1233,0.1047,0.0987,0.1167,0.1301,0.1391,0.1345,0.1345,0.1255,0.1255,0.1479,0.1658,0.1926,0.2103,0.2191,0.2324,0.2369,0.2503,0.2681,0.2771,0.286,0.2513,0.2321,0.2041,0.1913,0.1999,0.1861,0.1772,0.1683,0.1961,0.2075,0.1961,0.2072,0.2183,0.2297,0.2353,0.241,0.241,0.2465,0.2576,0.274,0.2965,0.2967,0.2912,0.2912,0.2934,0.2904,0.2907,0.2906,0.291,0.2882,0.2869,0.2925,0.2774,0.2604,0.2469,0.2296,0.2128,0.2071,0.1958,0.1847,0.1847,0.1849,0.1908,0.1966,0.191,0.174,0.1515,0.1514,0.1569,0.1572,0.1403,0.1291,0.1403,0.0729,0.0112,-0.0168,-0.0168,-0.0056,-0.0168,-0.0224,-0.0224,-0.0336,-0.0336,-0.028,-0.0224,-0.028,-0.0112,0.0056,-0.0112,-0.0505,-0.0617,0.0168,0.0617,0.0168,-0.0,-0.0,0.0056,-0.0,0.0056,0.0112,0.028,0.0224,0.0224,0.028,0.0505,0.0617,0.0616,0.0727,0.0785,0.0953,0.1099,0.1232,0.1085,0.0946,0.0959,0.0743,0.0451,0.0629,0.0853,0.0898,0.0898,0.0987,0.0987,0.0942,0.1077,0.1211,0.1478,0.1567,0.1655,0.1789,0.1968,0.2103,0.2237,0.2415,0.2504,0.212,0.2322,0.1761,0.1591,0.1653,0.1438,0.1474,0.1684,0.1684,0.1684,0.1796,0.1849,0.1959,0.2015,0.2184,0.2183,0.2071,0.2071,0.208,0.2253,0.2538,0.2766,0.2763,0.267,0.2599,0.253,0.2537,0.2538,0.254,0.2473,0.2393,0.2444,0.237,0.2197,0.2141,0.2128,0.2015,0.196,0.1903,0.1903,0.1903,0.1959,0.1849,0.1684,0.1741,0.1515,0.0841,0.0504,0.0448,0.0729,0.0505,0.0393,0.0561,-0.0112,-0.0617,-0.0897,-0.0785,-0.0729,-0.0841,-0.0785,-0.0785,-0.0785,-0.0785,-0.0897,-0.0785,-0.0729,-0.0729,-0.0673,-0.0785,-0.0841,-0.0785,-0.0449,-0.028,-0.0393,-0.0505,-0.0561,-0.0393,-0.0617,-0.0617,-0.0449,-0.0505,-0.0561,-0.0449,-0.0336,-0.028,-0.0336,-0.028,-0.0168,-0.0056,0.0112,0.011,0.0214,0.0311,0.0404,0.0343,0.0193,-0.0047,0.0047,0.0326,0.0551,0.0589,0.0676,0.0764,0.0763,0.0814,0.0902,0.099,0.1129,0.1259,0.1435,0.157,0.1614,0.1792,0.2015,0.2238,0.1674,0.1662,0.1452,0.1407,0.1468,0.139,0.1347,0.1408,0.1572,0.1459,0.1347,0.1402,0.157,0.1738,0.1738,0.1738,0.1792,0.1737,0.1875,0.2086,0.2208,0.2324,0.2277,0.22,0.211,0.207,0.2194,0.2192,0.2072,0.2034,0.2117,0.2386,0.1992,0.1798,0.1861,0.1628,0.1684,0.1796,0.1514,0.1457,0.1514,0.1738,0.1458,0.0841,0.0841,0.0561,-0.0,-0.0393,-0.0336,0.0112,-0.028,-0.0561,-0.0393,-0.0673,-0.1009,-0.1291,-0.1122,-0.0897,-0.1009,-0.0953,-0.0897,-0.0897,-0.0897,-0.0897,-0.0897,-0.0897,-0.0897,-0.0897,-0.0897,-0.0785,-0.0617,-0.0449,-0.0393,-0.0393,-0.0505,-0.0617,-0.0673,-0.0785,-0.0841,-0.0785,-0.0897,-0.0953,-0.0897,-0.0785,-0.0729,-0.0729,-0.0729,-0.0729,-0.0561,-0.0392,-0.0277,-0.0433,-0.0421,-0.0309,-0.0302,-0.0447,-0.0541,-0.0543,-0.0195,0.0286,0.0373,0.0454,0.0542,0.0584,0.0689,0.083,0.0828,0.0874,0.1004,0.1134,0.1277,0.1421,0.1534,0.1702,0.1883,0.167,0.1386,0.1305,0.1328,0.1334,0.1374,0.1337,0.1298,0.1347,0.1291,0.1122,0.1178,0.1291,0.1403,0.1403,0.1458,0.1514,0.1535,0.1561,0.1531,0.1573,0.1762,0.1876,0.1716,0.1551,0.1633,0.176,0.1759,0.1701,0.1716,0.1687,0.1633,0.1681,0.1536,0.1148,0.1185,0.1347,0.1628,0.1178,0.0897,0.1122,0.1235,0.1066,0.0505,0.0336,-0.0056,-0.0673,-0.0841,-0.0729,-0.0505,-0.0729,-0.0897,-0.0897,-0.1009,-0.1178,-0.1403,-0.1178,-0.1066,-0.1009,-0.0953,-0.0897,-0.0897,-0.0897,-0.0897,-0.0897,-0.0897,-0.0897,-0.0897,-0.0841,-0.0729,-0.0617,-0.0505,-0.0505,-0.0561,-0.0505,-0.0505,-0.0673,-0.0729,-0.0785,-0.0897,-0.1066,-0.1122,-0.1009,-0.1009,-0.0953,-0.0897,-0.0841,-0.0841,-0.0841,-0.0672,-0.067,-0.0821,-0.0858,-0.0683,-0.0621,-0.0714,-0.0708,-0.066,-0.0609,-0.0149,0.0146,0.0282,0.0329,0.0471,0.0613,0.0708,0.0711,0.0709,0.0796,0.0981,0.1078,0.1202,0.1313,0.1435,0.1615,0.1848,0.135,0.1193,0.1217,0.1298,0.1264,0.1253,0.1236,0.1178,0.1122,0.1066,0.1066,0.1071,0.1071,0.1192,0.1243,0.1189,0.1227,0.1128,0.1034,0.1066,0.1277,0.163,0.1257,0.1146,0.1292,0.1232,0.1296,0.1235,0.1193,0.0978,0.0877,0.1237,0.1092,0.0645,0.0684,0.1068,0.1122,0.0729,0.0449,0.0561,0.0561,0.0449,0.0224,-0.0056,-0.0449,-0.0897,-0.1009,-0.0897,-0.0897,-0.0897,-0.0897,-0.0953,-0.1122,-0.1178,-0.1066,-0.1122,-0.1122,-0.0953,-0.0953,-0.0897,-0.0897,-0.0897,-0.0897,-0.0897,-0.0897,-0.0953,-0.0953,-0.0785,-0.0785,-0.0785,-0.0617,-0.0617,-0.0785,-0.0673,-0.0561,-0.0505,-0.0617,-0.0729,-0.0841,-0.1009,-0.1009,-0.1009,-0.1009,-0.1066,-0.1066,-0.0953,-0.0841,-0.0841,-0.0785,-0.0897,-0.1116,-0.1096,-0.1022,-0.0955,-0.0942,-0.0832,-0.0726,-0.0783,-0.0518,-0.0051,0.0101,0.0201,0.0299,0.0343,0.0489,0.0593,0.0638,0.0677,0.0759,0.0896,0.1013,0.1079,0.1168,0.1302,0.1361,0.1161,0.109,0.1116,0.1307,0.126,0.1176,0.1123,0.1122,0.1067,0.0954,0.0954,0.0912,0.0932,0.099,0.0991,0.0933,0.0781,0.068,0.0955,0.0984,0.1065,0.1189,0.0857,0.0928,0.1,0.0734,0.0667,0.0601,0.0334,0.0132,0.0449,0.0498,0.0426,0.0177,0.0114,-0.0,-0.0168,-0.0,-0.0056,-0.0336,-0.0224,-0.028,-0.0505,-0.0729,-0.0897,-0.1066,-0.1066,-0.1066,-0.1066,-0.0953,-0.0897,-0.0953,-0.1009,-0.1066,-0.1122,-0.1009,-0.1009,-0.1009,-0.0953,-0.0897,-0.0897,-0.0897,-0.0897,-0.0897,-0.1009,-0.1066,-0.1122,-0.1122,-0.1066,-0.0897,-0.0617,-0.0673,-0.1009,-0.1066,-0.1066,-0.1178,-0.1009,-0.0897,-0.0897,-0.1009,-0.1122,-0.1066,-0.1066,-0.1122,-0.1178,-0.1066,-0.0841,-0.0841,-0.0841,-0.1009,-0.1234,-0.1226,-0.1151,-0.1146,-0.108,-0.086,-0.0802,-0.0804,-0.0752,-0.032,-0.0158,-0.0156,-0.0051,0.0101,0.0253,0.0412,0.0506,0.0498,0.0632,0.076,0.0837,0.0961,0.0999,0.1077,0.1494,0.1247,0.1217,0.118,0.1149,0.1207,0.1117,0.1016,0.1009,0.0962,0.0916,0.0861,0.0812,0.0649,0.0657,0.0654,0.0585,0.0363,0.0316,0.0524,0.0804,0.0674,0.0202,0.0337,0.0472,0.0674,0.0404,0.0067,-0.0202,-0.0201,-0.0066,-0.0065,-0.0,-0.0243,-0.053,-0.0456,-0.0562,-0.0729,-0.0617,-0.0617,-0.0785,-0.0729,-0.0729,-0.0897,-0.1009,-0.1066,-0.1178,-0.1122,-0.1122,-0.1178,-0.1122,-0.1066,-0.1122,-0.1178,-0.1234,-0.1122,-0.1234,-0.1122,-0.1066,-0.0953,-0.0897,-0.0897,-0.0897,-0.0897,-0.0897,-0.0953,-0.1066,-0.1178,-0.1235,-0.1291,-0.1066,-0.0841,-0.0897,-0.1009,-0.1178,-0.1234,-0.1291,-0.1234,-0.1122,-0.1122,-0.1178,-0.1178,-0.1178,-0.1178,-0.1178,-0.1178,-0.1234,-0.1066,-0.0897,-0.0897,-0.1009,-0.1178,-0.1234,-0.123,-0.1286,-0.117,-0.0944,-0.0829,-0.0883,-0.0718,-0.0441,-0.0434,-0.0534,-0.0423,-0.0263,-0.0,0.0161,0.0263,-0.0,0.0609,0.0744,0.0814,0.0883,0.1008,0.1085,0.1766,0.1398,0.1327,0.1232,0.1039,0.1133,0.0985,0.0788,0.0846,0.0801,0.0817,0.0822,0.0648,0.0478,0.0487,0.0478,0.0237,-0.0,-0.0127,0.0198,0.0465,-0.0,-0.0538,-0.0404,-0.0135,0.0135,-0.0,-0.0403,-0.0604,-0.0534,-0.0461,-0.0579,-0.0497,-0.0665,-0.1058,-0.1086,-0.0953,-0.0953,-0.101,-0.1009,-0.1009,-0.0897,-0.0953,-0.1066,-0.1122,-0.1122,-0.1234,-0.1234,-0.1178,-0.1291,-0.1291,-0.1291,-0.1403,-0.1403,-0.1459,-0.1122,-0.1347,-0.1291,-0.1066,-0.0953,-0.0953,-0.0897,-0.0897,-0.0897,-0.0953,-0.1009,-0.1066,-0.1234,-0.1403,-0.1459,-0.1291,-0.1178,-0.1066,-0.1178,-0.1234,-0.1234,-0.1346,-0.1459,-0.1403,-0.1291,-0.1235,-0.1234,-0.1234,-0.1234,-0.1234,-0.1234,-0.1291,-0.1291,-0.1122,-0.1009,-0.1122,-0.1291,-0.1347,-0.1291,-0.1347,-0.1234,-0.1009,-0.0897,-0.0897,-0.0785,-0.0617,-0.0665,-0.0712,-0.0719,-0.0554,-0.0278,-0.0,-0.0,-0.0,-0.0,0.0665,0.0683,0.0852,0.1017,0.1049,0.1422,0.1362,0.1128,0.1096,0.1071,0.1064,0.0811,0.0452,0.0518,0.0461,0.0398,0.0466,0.0598,0.067,0.0799,0.0558,-0.0,-0.0374,-0.0441,-0.026,-0.0196,-0.0792,-0.1007,-0.1009,-0.0874,-0.074,-0.0603,-0.0669,-0.0866,-0.0987,-0.0972,-0.1083,-0.0978,-0.1007,-0.1052,-0.1086,-0.1178,-0.1178,-0.1234,-0.1234,-0.1178,-0.1066,-0.1009,-0.1234,-0.1291,-0.1347,-0.1291,-0.1291,-0.1234,-0.1122,-0.1234,-0.1403,-0.1459,-0.1459,-0.1347,-0.1291,-0.1347,-0.1347,-0.1122,-0.1066,-0.1009,-0.0897,-0.0897,-0.0953,-0.101,-0.1122,-0.129,-0.1459,-0.1572,-0.1628,-0.1684,-0.1571,-0.1682,-0.1794,-0.1795,-0.1796,-0.2018,-0.1962,-0.174,-0.1571,-0.1459,-0.1347,-0.1347,-0.1403,-0.1403,-0.1459,-0.1515,-0.1515,-0.1459,-0.1291,-0.1234,-0.1403,-0.1515,-0.1459,-0.1347,-0.1234,-0.1066,-0.0897,-0.0897,-0.0841,-0.0785,-0.0841,-0.0841,-0.0785,-0.0729,-0.0559,-0.0,-0.0,-0.0,-0.0,-0.0,-0.0,0.0725,0.0898,0.0921,0.1356,0.142,0.1018,0.0932,0.0969,0.0725,0.0646,0.062,0.0628,0.046,0.0231,0.0176,0.0297,0.0302,0.0061,-0.0187,-0.0439,-0.0561,-0.0691,-0.0772,-0.1245,-0.1459,-0.1479,-0.1479,-0.1412,-0.1338,-0.1128,-0.1054,-0.1183,-0.13,-0.1397,-0.1353,-0.1252,-0.1229,-0.1324,-0.1358,-0.1404,-0.1403,-0.1403,-0.1347,-0.1347,-0.1178,-0.1234,-0.1291,-0.1403,-0.1403,-0.1347,-0.1403,-0.1403,-0.1403,-0.1459,-0.1572,-0.1628,-0.1628,-0.1459,-0.1403,-0.1459,-0.1403,-0.1178,-0.1122,-0.1122,-0.1009,-0.0953,-0.0953,-0.1066,-0.1289,-0.1626,-0.1907,-0.2019,-0.2019,-0.2018,-0.1963,-0.2017,-0.2128,-0.213,-0.2242,-0.2296,-0.2352,-0.2185,-0.1962,-0.1795,-0.1684,-0.1572,-0.1572,-0.1572,-0.1628,-0.174,-0.1796,-0.174,-0.1627,-0.1458,-0.1571,-0.1684,-0.1572,-0.1459,-0.1291,-0.1178,-0.1009,-0.0953,-0.0897,-0.0897,-0.0953,-0.0897,-0.0841,-0.0785,-0.0729,-0.0,-0.0,-0.0,-0.0,-0.0,-0.0,-0.0,0.0772,0.0847,0.1167,0.1237,0.0837,0.0568,0.0494,0.0487,0.0532,0.0685,0.0515,0.0232,-0.0118,-0.0,-0.0,-0.0,-0.0555,-0.0881,-0.0874,-0.0749,-0.1077,-0.1548,-0.184,-0.1934,-0.1949,-0.1883,-0.1816,-0.1743,-0.1589,-0.1559,-0.156,-0.1526,-0.148,-0.1508,-0.1481,-0.1444,-0.1467,-0.1405,-0.1515,-0.1572,-0.1572,-0.1515,-0.1403,-0.1403,-0.1403,-0.1347,-0.1347,-0.1403,-0.1403,-0.1515,-0.1515,-0.1572,-0.1628,-0.174,-0.1741,-0.1852,-0.1738,-0.157,-0.1684,-0.1515,-0.1291,-0.1347,-0.1347,-0.1178,-0.1122,-0.1121,-0.1345,-0.1736,-0.2128,-0.2464,-0.2465,-0.2464,-0.2352,-0.2297,-0.2409,-0.2518,-0.2631,-0.2631,-0.2685,-0.274,-0.2853,-0.2575,-0.2243,-0.2131,-0.2073,-0.1963,-0.2019,-0.2019,-0.2075,-0.2076,-0.202,-0.1906,-0.1794,-0.1795,-0.1796,-0.1684,-0.1572,-0.1403,-0.1291,-0.1178,-0.1122,-0.1066,-0.1066,-0.1066,-0.1009,-0.0953,-0.0897,-0.0785,-0.0673,-0.056,-0.0,-0.0,-0.0,-0.0,-0.0,0.0735,0.0813,0.0328,0.02,0.0317,-0.0124,-0.0552,0.0351,0.0519,0.0059,-0.0359,-0.0722,-0.0706,-0.0242,-0.0,-0.0,-0.0712,-0.098,-0.0967,-0.1089,-0.141,-0.1874,-0.1954,-0.1985,-0.2148,-0.2153,-0.2086,-0.2014,-0.1938,-0.1876,-0.1778,-0.1686,-0.1638,-0.1628,-0.1571,-0.1468,-0.1303,-0.1406,-0.1347,-0.1403,-0.1628,-0.174,-0.174,-0.174,-0.1628,-0.1628,-0.1628,-0.1628,-0.1515,-0.1572,-0.1515,-0.1403,-0.1515,-0.1628,-0.1684,-0.2018,-0.2017,-0.196,-0.1794,-0.1628,-0.1459,-0.1627,-0.1628,-0.1458,-0.1513,-0.1791,-0.196,-0.2241,-0.2632,-0.2852,-0.2744,-0.2688,-0.2742,-0.2689,-0.2914,-0.308,-0.3079,-0.3242,-0.3351,-0.3129,-0.3186,-0.3187,-0.2854,-0.274,-0.2683,-0.2518,-0.2465,-0.241,-0.241,-0.2355,-0.2299,-0.2185,-0.2129,-0.213,-0.1963,-0.1851,-0.1684,-0.1515,-0.1403,-0.1291,-0.1234,-0.1178,-0.1234,-0.1234,-0.1122,-0.1066,-0.1008,-0.0948,-0.0833,-0.0722,-0.0503,-0.0,-0.0,-0.0,-0.0,0.0744,0.0724,0.0504,0.0197,0.0325,0.0064,-0.0432,-0.0,0.0058,-0.0115,-0.0639,-0.0872,-0.0867,-0.0712,-0.0425,-0.0249,-0.0701,-0.1019,-0.1013,-0.0963,-0.1226,-0.1817,-0.1899,-0.1927,-0.2147,-0.222,-0.222,-0.2146,-0.206,-0.1923,-0.19,-0.1793,-0.1732,-0.1797,-0.17,-0.1622,-0.1381,-0.1472,-0.1462,-0.1515,-0.1684,-0.1797,-0.1797,-0.1797,-0.1797,-0.1684,-0.1741,-0.1684,-0.1515,-0.1572,-0.1515,-0.1347,-0.1403,-0.1626,-0.1794,-0.1906,-0.1906,-0.241,-0.2577,-0.2466,-0.2074,-0.213,-0.2018,-0.1906,-0.196,-0.2128,-0.241,-0.2691,-0.2914,-0.302,-0.3022,-0.3078,-0.3132,-0.3135,-0.3304,-0.3416,-0.347,-0.3469,-0.3576,-0.363,-0.3519,-0.3519,-0.3465,-0.3296,-0.3072,-0.2797,-0.2633,-0.2577,-0.2577,-0.2521,-0.2577,-0.2575,-0.252,-0.2466,-0.2242,-0.2018,-0.1796,-0.1628,-0.1459,-0.1403,-0.1347,-0.1291,-0.1347,-0.1347,-0.1291,-0.1279,-0.1266,-0.1207,-0.1042,-0.0879,-0.0662,-0.0384,-0.0,0.0209,0.0453,0.0541,0.0528,0.0972,0.0511,0.0518,0.0381,0.0061,-0.0182,-0.0177,-0.0171,-0.0684,-0.0858,-0.0869,-0.0955,-0.0736,-0.0437,-0.0696,-0.1023,-0.1651,-0.0969,-0.1236,-0.1643,-0.1926,-0.2013,-0.2153,-0.222,-0.222,-0.222,-0.2056,-0.1978,-0.1977,-0.1828,-0.1774,-0.1807,-0.172,-0.166,-0.1654,-0.1567,-0.1484,-0.1484,-0.1711,-0.1815,-0.1802,-0.1797,-0.1797,-0.1797,-0.174,-0.1628,-0.1459,-0.1459,-0.1403,-0.1459,-0.157,-0.1793,-0.196,-0.2238,-0.2352,-0.2798,-0.3077,-0.3189,-0.2911,-0.2799,-0.2631,-0.2524,-0.2605,-0.28,-0.2939,-0.3082,-0.3226,-0.341,-0.3478,-0.3531,-0.3524,-0.3467,-0.3523,-0.3635,-0.3691,-0.3637,-0.358,-0.3688,-0.3798,-0.3742,-0.3742,-0.3687,-0.3465,-0.3077,-0.2855,-0.2745,-0.2745,-0.2745,-0.2799,-0.2854,-0.2855,-0.2746,-0.2578,-0.2298,-0.2075,-0.1908,-0.1683,-0.1515,-0.1403,-0.1403,-0.1459,-0.1515,-0.1459,-0.1496,-0.1474,-0.1371,-0.1162,-0.0988,-0.0814,-0.0533,-0.0314,-0.0051,0.0149,0.0244,0.0242,0.15,0.1113,0.0723,0.0536,0.0295,0.0343,0.0057,-0.0234,-0.0703,-0.0775,-0.0674,-0.0884,-0.1021,-0.0905,-0.0657,-0.1262,-0.294,-0.1876,-0.1871,-0.2141,-0.2354,-0.222,-0.222,-0.222,-0.222,-0.2153,-0.2068,-0.2045,-0.2032,-0.193,-0.1766,-0.1599,-0.1653,-0.1641,-0.1573,-0.1554,-0.1516,-0.1512,-0.1742,-0.1837,-0.1811,-0.1797,-0.1797,-0.1797,-0.1684,-0.1572,-0.1572,-0.1459,-0.1459,-0.1571,-0.1794,-0.2016,-0.2182,-0.2759,-0.3106,-0.3272,-0.3648,-0.3764,-0.3642,-0.3377,-0.325,-0.3216,-0.3334,-0.354,-0.3593,-0.3784,-0.393,-0.3855,-0.3919,-0.3857,-0.3831,-0.3799,-0.3774,-0.3771,-0.3828,-0.3799,-0.3801,-0.3912,-0.3965,-0.3965,-0.391,-0.3855,-0.3745,-0.3357,-0.3078,-0.2968,-0.2967,-0.2967,-0.3022,-0.3077,-0.3079,-0.3025,-0.2857,-0.2633,-0.2465,-0.2186,-0.1849,-0.1682,-0.1627,-0.1572,-0.1628,-0.1628,-0.1628,-0.1562,-0.1545,-0.1443,-0.1271,-0.1129,-0.0943,-0.0717,-0.0504,-0.0355,-0.0252,-0.0149,-0.0198,0.2071,0.1686,0.1549,0.1272,0.0942,0.0813,0.064,0.0235,-0.0589,-0.0972,-0.0826,-0.0772,-0.0848,-0.0928,-0.1003,-0.155,-0.2899,-0.2356,-0.2288,-0.2288,-0.2356,-0.2288,-0.222,-0.222,-0.222,-0.2152,-0.2083,-0.1946,-0.1797,-0.1941,-0.1738,-0.157,-0.1647,-0.1703,-0.1693,-0.1601,-0.1614,-0.1745,-0.1805,-0.1854,-0.1809,-0.1797,-0.1797,-0.1797,-0.1684,-0.1572,-0.1572,-0.1403,-0.157,-0.1794,-0.2015,-0.224,-0.2532,-0.3253,-0.3685,-0.388,-0.4304,-0.4403,-0.4213,-0.3962,-0.3666,-0.3823,-0.3854,-0.401,-0.4078,-0.4194,-0.4232,-0.4207,-0.4238,-0.412,-0.4086,-0.3968,-0.3922,-0.3896,-0.3915,-0.3925,-0.3964,-0.4021,-0.4021,-0.3964,-0.3964,-0.3965,-0.3802,-0.3638,-0.3414,-0.3189,-0.3189,-0.3188,-0.3245,-0.3299,-0.3301,-0.3303,-0.3136,-0.2856,-0.2688,-0.2351,-0.2015,-0.1905,-0.1795,-0.174,-0.1684,-0.174,-0.1739,-0.1675,-0.1607,-0.1541,-0.1403,-0.1301,-0.1073,-0.087,-0.0822,-0.0724,-0.0666,-0.0558,-0.0509,0.2518,0.2072,0.2128,0.1817,0.1393,0.1218,0.0992,0.0589,-0.0236,-0.0855,-0.0969,-0.0716,-0.0463,-0.0604,-0.128,-0.1617,-0.2425,-0.2356,-0.2423,-0.2423,-0.2355,-0.2288,-0.2221,-0.2217,-0.2209,-0.2205,-0.2148,-0.2013,-0.1849,-0.2074,-0.1946,-0.1802,-0.1717,-0.1766,-0.1689,-0.1789,-0.185,-0.1972,-0.1943,-0.188,-0.1833,-0.1805,-0.1797,-0.1797,-0.1684,-0.1628,-0.1627,-0.157,-0.1681,-0.2016,-0.2296,-0.2589,-0.3014,-0.3577,-0.4111,-0.4631,-0.4921,-0.4949,-0.4642,-0.447,-0.4207,-0.4234,-0.4304,-0.4377,-0.4464,-0.4451,-0.4488,-0.4603,-0.4516,-0.4372,-0.4365,-0.4291,-0.4207,-0.4169,-0.4017,-0.4021,-0.3964,-0.3965,-0.3964,-0.3909,-0.3909,-0.3855,-0.3745,-0.3638,-0.3526,-0.3245,-0.302,-0.3187,-0.3577,-0.3577,-0.3576,-0.3523,-0.3413,-0.3134,-0.2854,-0.2519,-0.2184,-0.1794,-0.174,-0.174,-0.174,-0.1796,-0.1797,-0.1737,-0.1718,-0.1687,-0.1617,-0.1499,-0.1319,-0.1093,-0.0994,-0.0948,-0.0896,-0.0784,-0.073,0.2741,0.2239,0.2409,0.2077,0.1466,0.1462,0.1088,0.053,0.0356,-0.0184,-0.0844,-0.093,-0.0269,0.0202,-0.0942,-0.1548,-0.1884,-0.2221,-0.249,-0.2555,-0.2422,-0.2356,-0.2356,-0.2283,-0.2203,-0.2161,-0.2184,-0.2129,-0.2082,-0.2131,-0.2083,-0.2018,-0.1873,-0.1732,-0.1609,-0.1812,-0.1981,-0.2116,-0.1981,-0.1929,-0.1804,-0.1815,-0.1801,-0.1868,-0.1812,-0.1757,-0.1757,-0.1712,-0.194,-0.2378,-0.2785,-0.3044,-0.3274,-0.4041,-0.4649,-0.5097,-0.508,-0.4969,-0.4755,-0.4791,-0.4723,-0.4611,-0.4586,-0.4656,-0.4672,-0.4708,-0.4818,-0.4872,-0.4864,-0.4847,-0.4765,-0.4692,-0.4532,-0.4364,-0.4278,-0.4134,-0.4027,-0.3955,-0.3964,-0.3865,-0.3798,-0.3744,-0.3634,-0.3524,-0.3524,-0.3299,-0.2962,-0.3129,-0.3744,-0.3968,-0.3912,-0.3853,-0.3745,-0.3524,-0.3189,-0.2745,-0.2355,-0.1908,-0.174,-0.1796,-0.1796,-0.1852,-0.1852,-0.1796,-0.1842,-0.182,-0.1777,-0.1789,-0.1586,-0.1391,-0.1228,-0.1126,-0.1129,-0.1019,-0.0903,0.2911,0.2691,0.2635,0.2128,0.14,0.1569,0.1313,0.0828,0.0739,0.0128,-0.0728,-0.0605,-0.0202,0.0067,0.0135,-0.074,-0.1816,-0.2018,-0.2421,-0.2554,-0.2351,-0.2288,-0.222,-0.2216,-0.2206,-0.22,-0.2214,-0.2147,-0.2195,-0.2214,-0.2083,-0.2018,-0.1881,-0.1596,-0.152,-0.1649,-0.1897,-0.1791,-0.1883,-0.1926,-0.1839,-0.1816,-0.1876,-0.2026,-0.197,-0.1969,-0.2031,-0.1995,-0.2292,-0.2792,-0.3214,-0.3395,-0.3688,-0.4494,-0.4804,-0.495,-0.4911,-0.5247,-0.515,-0.514,-0.498,-0.4873,-0.4773,-0.4832,-0.4875,-0.486,-0.4962,-0.5143,-0.5276,-0.5233,-0.5057,-0.5135,-0.5013,-0.4734,-0.4522,-0.4326,-0.416,-0.4066,-0.3982,-0.3894,-0.3796,-0.3796,-0.3687,-0.3745,-0.3747,-0.3856,-0.363,-0.3519,-0.3967,-0.425,-0.4307,-0.4187,-0.4019,-0.3856,-0.3524,-0.3078,-0.2633,-0.2243,-0.2074,-0.2017,-0.2017,-0.1963,-0.1962,-0.1906,-0.1961,-0.1961,-0.2018,-0.2017,-0.1836,-0.1705,-0.1533,-0.1422,-0.1374,-0.125,-0.1066,0.3025,0.2815,0.2678,0.2185,0.1567,0.1512,0.1142,0.0652,0.0685,0.0259,-0.0132,-0.0066,0.0201,0.0403,0.0404,0.0404,-0.1276,-0.1728,-0.2121,-0.2255,-0.2254,-0.2183,-0.2189,-0.2142,-0.1998,-0.2004,-0.2076,-0.2078,-0.2047,-0.2142,-0.2085,-0.195,-0.1748,-0.1602,-0.1591,-0.1656,-0.1715,-0.1708,-0.1826,-0.2044,-0.204,-0.2067,-0.2117,-0.2262,-0.2332,-0.2331,-0.2346,-0.2365,-0.2566,-0.3142,-0.3458,-0.3766,-0.4303,-0.4642,-0.4864,-0.4748,-0.4887,-0.5284,-0.534,-0.5201,-0.5017,-0.4984,-0.4855,-0.4883,-0.509,-0.5082,-0.5151,-0.535,-0.5556,-0.5481,-0.5321,-0.5474,-0.5407,-0.5111,-0.4784,-0.4513,-0.4315,-0.4215,-0.3856,-0.3774,-0.3754,-0.3806,-0.386,-0.3965,-0.4024,-0.4189,-0.4353,-0.4299,-0.419,-0.4416,-0.4531,-0.4413,-0.4241,-0.4022,-0.3745,-0.3409,-0.2965,-0.2577,-0.2409,-0.2296,-0.2017,-0.1906,-0.196,-0.2015,-0.2016,-0.2073,-0.2241,-0.2235,-0.2116,-0.2061,-0.195,-0.1786,-0.1628,-0.1437,-0.119,0.3038,0.2678,0.2486,0.2299,0.1966,0.1178,0.0514,-0.0,-0.0,-0.0,0.0967,0.0323,0.0391,0.0733,0.0334,0.0133,0.0066,-0.0716,-0.1233,-0.1818,-0.2027,-0.202,-0.2037,-0.1996,-0.1862,-0.1783,-0.1785,-0.2,-0.1887,-0.2127,-0.2153,-0.1883,-0.1816,-0.1742,-0.1675,-0.1673,-0.173,-0.1824,-0.1989,-0.2215,-0.2354,-0.2403,-0.2449,-0.2522,-0.2653,-0.259,-0.2535,-0.2542,-0.2842,-0.3258,-0.3503,-0.4128,-0.4592,-0.4869,-0.4876,-0.4865,-0.5009,-0.513,-0.5359,-0.5223,-0.5151,-0.5117,-0.5074,-0.5087,-0.5155,-0.516,-0.5294,-0.5427,-0.5556,-0.5618,-0.5597,-0.5643,-0.5753,-0.5375,-0.4982,-0.475,-0.4547,-0.43,-0.3877,-0.372,-0.3669,-0.3725,-0.3896,-0.4058,-0.4078,-0.4353,-0.4517,-0.4572,-0.4519,-0.4577,-0.4636,-0.4525,-0.4354,-0.4133,-0.391,-0.3741,-0.3351,-0.2964,-0.2745,-0.2576,-0.2241,-0.2017,-0.2128,-0.2183,-0.2128,-0.2183,-0.2353,-0.2464,-0.2462,-0.2353,-0.2185,-0.1962,-0.174,-0.1514,-0.1269,0.3309,0.298,0.2845,0.2296,0.1456,0.0617,0.0171,-0.0,-0.0,0.0365,0.0939,0.0876,0.0632,0.0317,0.0063,-0.0,-0.0,-0.0128,-0.0322,-0.0842,-0.1635,-0.1851,-0.1929,-0.1868,-0.1802,-0.1802,-0.187,-0.2004,-0.2267,-0.2356,-0.2085,-0.1748,-0.1883,-0.1816,-0.1816,-0.1816,-0.1927,-0.2036,-0.2206,-0.2443,-0.2599,-0.2688,-0.2693,-0.2847,-0.2923,-0.286,-0.2861,-0.2728,-0.3022,-0.3462,-0.3513,-0.3974,-0.496,-0.4949,-0.4818,-0.4909,-0.4894,-0.4911,-0.5267,-0.5221,-0.5138,-0.5196,-0.5143,-0.5087,-0.5155,-0.515,-0.5286,-0.5423,-0.5622,-0.5686,-0.5751,-0.5756,-0.5839,-0.5625,-0.5229,-0.4811,-0.4602,-0.4262,-0.3835,-0.3613,-0.3557,-0.364,-0.3812,-0.394,-0.4075,-0.4405,-0.4625,-0.4737,-0.4847,-0.4908,-0.4853,-0.4688,-0.4632,-0.4467,-0.441,-0.4298,-0.3795,-0.3405,-0.3188,-0.2912,-0.2577,-0.2409,-0.2353,-0.2353,-0.2297,-0.2353,-0.2465,-0.2576,-0.2686,-0.2464,-0.2297,-0.2074,-0.1795,-0.157,-0.1458,0.3171,0.2909,0.284,0.2155,0.1173,0.0672,0.0454,0.0346,0.0116,0.0294,0.0726,0.0909,0.0738,0.0315,-0.0,-0.0,-0.0,-0.0,-0.0258,-0.0842,-0.1316,-0.1577,-0.1784,-0.1858,-0.1796,-0.1802,-0.1935,-0.2122,-0.2346,-0.2423,-0.2153,-0.195,-0.1951,-0.2018,-0.2085,-0.2149,-0.225,-0.2358,-0.2531,-0.2781,-0.2948,-0.3051,-0.3163,-0.3182,-0.3198,-0.3203,-0.3131,-0.2987,-0.3181,-0.3622,-0.3549,-0.3969,-0.4818,-0.4801,-0.4669,-0.4659,-0.4686,-0.4793,-0.4975,-0.4971,-0.4963,-0.5039,-0.5088,-0.5045,-0.5047,-0.5109,-0.5271,-0.5425,-0.569,-0.5822,-0.5886,-0.5883,-0.5885,-0.5877,-0.535,-0.4843,-0.4547,-0.4197,-0.3825,-0.3528,-0.3489,-0.3508,-0.3644,-0.3772,-0.4019,-0.4408,-0.4741,-0.4965,-0.5075,-0.5132,-0.5075,-0.4963,-0.4908,-0.4853,-0.4798,-0.4686,-0.4239,-0.385,-0.3745,-0.3469,-0.3023,-0.2744,-0.263,-0.2519,-0.2521,-0.2577,-0.2689,-0.2798,-0.2909,-0.2631,-0.2354,-0.213,-0.1907,-0.1684,-0.1572,0.2958,0.2716,0.2687,0.2073,0.1116,0.1121,0.1067,0.0841,0.0338,0.0171,0.041,0.0763,0.0785,0.0495,-0.0,-0.0,-0.0,-0.0,-0.0255,-0.1028,-0.1371,-0.1635,-0.182,-0.1813,-0.1846,-0.1786,-0.1855,-0.2056,-0.2211,-0.2288,-0.2288,-0.222,-0.2153,-0.222,-0.2288,-0.2288,-0.2454,-0.2662,-0.2888,-0.3111,-0.3561,-0.3778,-0.3747,-0.3731,-0.3672,-0.3614,-0.3328,-0.3216,-0.3214,-0.3563,-0.3837,-0.4185,-0.4443,-0.4707,-0.4571,-0.4468,-0.4572,-0.4661,-0.4821,-0.4809,-0.4689,-0.4774,-0.4841,-0.4829,-0.4912,-0.5102,-0.5348,-0.5427,-0.5692,-0.5886,-0.5951,-0.6017,-0.6086,-0.5851,-0.5424,-0.5018,-0.4755,-0.4298,-0.3883,-0.3647,-0.3611,-0.3626,-0.3729,-0.3867,-0.4064,-0.449,-0.473,-0.4962,-0.5106,-0.5219,-0.5211,-0.5093,-0.513,-0.5075,-0.5018,-0.4851,-0.4625,-0.4351,-0.419,-0.3858,-0.3411,-0.3074,-0.2795,-0.2687,-0.2578,-0.2745,-0.2854,-0.2964,-0.2909,-0.2688,-0.241,-0.2242,-0.2019,-0.174,-0.1684,0.3657,0.3436,0.2812,0.2223,0.1733,0.157,0.1291,0.0897,0.0617,0.0338,0.0227,0.0626,0.0861,0.0708,-0.0,-0.0,-0.0,-0.0,-0.0,-0.063,-0.1216,-0.1625,-0.2012,-0.1949,-0.1906,-0.1904,-0.1976,-0.1999,-0.2148,-0.2288,-0.2288,-0.2018,-0.2086,-0.2288,-0.2355,-0.2422,-0.2589,-0.2908,-0.3153,-0.3336,-0.3637,-0.3677,-0.3644,-0.3676,-0.3638,-0.3756,-0.3597,-0.3469,-0.3745,-0.409,-0.3993,-0.4211,-0.4468,-0.4701,-0.4701,-0.4604,-0.457,-0.4683,-0.4696,-0.4653,-0.4623,-0.4552,-0.4609,-0.4671,-0.4805,-0.5166,-0.542,-0.5488,-0.5615,-0.5807,-0.6017,-0.615,-0.6208,-0.5816,-0.5503,-0.5199,-0.4962,-0.4472,-0.3927,-0.383,-0.3797,-0.3791,-0.3894,-0.3995,-0.4135,-0.4293,-0.4505,-0.4683,-0.4801,-0.4894,-0.5048,-0.5031,-0.5254,-0.5244,-0.5185,-0.5073,-0.4849,-0.4627,-0.441,-0.4076,-0.3742,-0.3351,-0.3016,-0.2799,-0.2691,-0.2801,-0.2911,-0.2964,-0.291,-0.2633,-0.241,-0.2185,-0.1906,-0.1626,-0.1684,0.3983,0.3665,0.2948,0.241,0.2128,0.1683,0.1291,0.101,0.0841,0.0617,0.0449,0.0617,0.0734,0.08,-0.0,-0.0,-0.0,-0.0,-0.0,-0.0,-0.0815,-0.1411,-0.1745,-0.1929,-0.1954,-0.1958,-0.2126,-0.2218,-0.2216,-0.2288,-0.2288,-0.2153,-0.2288,-0.2351,-0.2418,-0.2549,-0.2715,-0.3033,-0.3343,-0.3538,-0.361,-0.3701,-0.3863,-0.3905,-0.3924,-0.3964,-0.3992,-0.3927,-0.4132,-0.4424,-0.4487,-0.4658,-0.487,-0.4892,-0.4803,-0.464,-0.4558,-0.4527,-0.4474,-0.4424,-0.4418,-0.4264,-0.4271,-0.4209,-0.4232,-0.4636,-0.5101,-0.5237,-0.5569,-0.5813,-0.6121,-0.6286,-0.6284,-0.6046,-0.5632,-0.5277,-0.4964,-0.4528,-0.4235,-0.42,-0.4083,-0.4005,-0.4067,-0.4234,-0.4338,-0.4392,-0.4542,-0.4654,-0.4714,-0.4747,-0.4841,-0.4904,-0.5125,-0.5195,-0.5185,-0.5128,-0.5073,-0.4851,-0.4631,-0.4298,-0.3962,-0.3518,-0.3184,-0.2911,-0.2747,-0.2748,-0.2857,-0.2911,-0.2742,-0.2409,-0.224,-0.2128,-0.1849,-0.157,-0.1515,0.4168,0.3701,0.3097,0.2689,0.2409,0.1739,0.1402,0.1234,0.101,0.0953,0.0841,0.0617,0.0686,0.0639,0.0354,0.012,-0.0,-0.0,-0.0,-0.0,-0.0,-0.0935,-0.149,-0.1784,-0.1831,-0.2003,-0.2233,-0.2321,-0.2331,-0.2344,-0.2356,-0.2423,-0.2415,-0.2407,-0.2674,-0.2861,-0.2948,-0.3077,-0.3259,-0.3437,-0.3645,-0.3889,-0.402,-0.4128,-0.4225,-0.4232,-0.4261,-0.428,-0.4338,-0.4653,-0.4847,-0.5051,-0.5077,-0.5024,-0.4752,-0.4589,-0.4444,-0.4268,-0.4087,-0.4065,-0.3827,-0.3689,-0.3748,-0.3768,-0.3864,-0.4167,-0.4615,-0.5065,-0.546,-0.5858,-0.6167,-0.6354,-0.6286,-0.615,-0.5745,-0.5321,-0.4938,-0.4567,-0.447,-0.4436,-0.444,-0.4295,-0.4396,-0.4508,-0.4563,-0.4623,-0.4681,-0.4793,-0.4817,-0.4777,-0.4771,-0.4851,-0.4981,-0.5058,-0.5079,-0.5128,-0.5128,-0.5073,-0.4851,-0.4519,-0.4185,-0.3687,-0.3298,-0.2911,-0.2802,-0.2747,-0.2691,-0.2746,-0.2521,-0.224,-0.2128,-0.1959,-0.1682,-0.1458,-0.129,0.464,0.4099,0.3737,0.3354,0.2907,0.2464,0.2017,0.1512,0.129,0.1122,0.0897,0.0841,0.0846,0.0851,0.0525,0.0236,0.0058,0.0359,0.0295,-0.0,-0.018,-0.0665,-0.1032,-0.1402,-0.1544,-0.188,-0.2159,-0.2234,-0.2285,-0.2262,-0.2151,-0.208,-0.2096,-0.2215,-0.2408,-0.265,-0.2872,-0.2957,-0.321,-0.3437,-0.3411,-0.3572,-0.3744,-0.3796,-0.372,-0.3813,-0.3887,-0.3813,-0.4132,-0.4591,-0.4974,-0.5207,-0.5119,-0.4961,-0.467,-0.4411,-0.4269,-0.4163,-0.4003,-0.3873,-0.3712,-0.354,-0.3592,-0.3535,-0.3661,-0.3874,-0.4382,-0.4926,-0.5361,-0.5952,-0.6288,-0.6354,-0.6354,-0.602,-0.5683,-0.522,-0.4833,-0.4684,-0.4597,-0.4658,-0.4839,-0.4847,-0.4942,-0.5055,-0.5102,-0.5107,-0.5187,-0.5232,-0.5109,-0.4961,-0.4746,-0.4808,-0.4858,-0.4892,-0.4956,-0.5071,-0.5071,-0.5128,-0.4961,-0.4519,-0.4076,-0.3803,-0.3414,-0.3023,-0.28,-0.2745,-0.269,-0.2635,-0.2409,-0.2183,-0.1959,-0.1792,-0.1514,-0.1347,-0.1234]},{"header":{"parameterUnit":"m.s-1","parameterCategory":1,"la1":31.0,"la2":29.5877,"lo1":-88.7671,"lo2":-86.6584,"dy":0.0162,"dx":0.0185,"nx":115,"ny":88,"refTime":"2023-09-05T06:00:00:Z","depth":0,"parameterNumber":3,"parameterNumberName":"V-component_of_WINDS"},"data":[0.0,0.0,0.0,0.0,0.0,0.0,0.0,0.0,0.0,0.0,0.0,0.0,0.0,0.0,0.0,0.0,0.0,0.0,0.0,0.0,0.0,0.0,0.0,0.0,0.0,0.0,0.0,0.0,0.0,0.0,0.0,0.0,0.0,0.0,0.0,0.0,0.0,0.0,0.0,0.0,0.0,0.0,0.0,0.0,0.0,0.0,0.0,0.0,0.0,0.0,0.0,0.0,0.0,0.0,0.0,0.0,0.0,0.0,0.0,0.0,0.0,0.0,0.0,0.0,0.0,0.0,0.0,0.0,0.0,0.0,0.0,0.0,0.0,0.0,0.0,0.0,0.0,0.0,0.0,0.0,0.0,0.0,0.0,0.0,0.0,0.0,0.0,0.0,0.0,0.0,0.0,0.0,0.0,0.0,0.0,0.0,0.0,0.0,0.0,0.0,0.0,0.0,0.0,0.0,0.0,0.0,0.0,0.0,0.0,0.0,0.0,0.0,0.0,0.0,0.0,0.0,0.0,0.0,0.0,0.0,0.0,0.0,0.0,0.0,0.0,0.0,0.0,0.0,0.0,0.0,0.0,0.0,0.0,0.0,0.0,0.0,0.0,0.0,0.0,0.0,0.0,0.0,0.0,0.0,0.0,0.0,0.0,0.0,0.0,0.0,0.0,0.0,0.0,0.0,0.0,0.0,0.0,0.0,0.0,0.0,0.0,0.0,0.0,0.0,0.0,0.0,0.0,0.0,0.0,0.0,0.0,0.0,0.0,0.0,0.0,0.0,0.0,0.0,0.0,0.0,0.0,0.0,0.0,0.0,0.0,0.0,0.0,0.0,0.0,0.0,0.0,0.0,0.0,0.0,0.0,0.0,0.0,0.0,0.0,0.0,0.0,0.0,0.0,0.0,0.0,0.0,0.0,0.0,0.0,0.0,0.0,0.0,0.0,0.0,0.0,0.0,0.0,0.0,0.0,0.0,0.0,0.0,0.0,0.0,0.0,0.0,0.0,0.0,0.0,0.0,0.0,0.0,0.0,0.0,0.0,0.0,0.0,0.0,0.0,0.0,0.0,0.0,0.0,0.0,0.0,0.0,0.0,0.0,0.0,0.0,0.0,0.0,0.0,0.0,0.0,0.0,0.0,0.0,0.0,0.0,0.0,0.0,0.0,0.0,0.0,0.0,0.0,0.0,0.0,0.0,0.0,0.0,0.0,0.0,0.0,0.0,0.0,0.0,0.0,0.0,0.0,0.0,0.0,0.0,0.0,0.0,0.0,0.0,0.0,0.0,0.0,0.0,0.0,0.0,0.0,0.0,0.0,0.0,0.0,0.0,0.0,0.0,0.0,0.0,0.0,0.0,0.0,0.0,0.0,0.0,0.0,0.0,0.0,0.0,0.0,0.0,0.0,0.0,0.0,0.0,0.0,0.0,0.0,0.0,0.0,0.0,0.0,0.0,0.0,0.0,0.0,0.0,0.0,0.0,0.0,0.0,0.0,0.0,0.0,0.0,0.0,0.0,0.0,0.0,0.0,0.0,0.0,0.0,0.0,0.0,0.0,0.0,0.0,0.0,0.0,0.0,0.0,0.0,0.0,0.0,0.0,0.0,0.0,0.0,0.0,0.0,0.0,0.0,0.0,0.0,0.0,0.0,0.0,0.0,0.0,0.0,0.0,0.0,0.0,0.0,0.0,0.0,0.0,0.0,0.0,0.0,0.0,0.0,0.0,0.0,0.0,0.0,0.0,0.0,0.0,0.0,0.0,0.0,0.0,0.0,0.0,0.0,0.0,0.0,0.0,0.0,0.0,0.0,0.0,0.0,0.0,0.0,0.0,0.0,0.0,0.0,0.0,0.0,0.0,0.0,0.0,0.0,0.0,0.0,0.0,0.0,0.0,0.0,0.0,0.0,0.0,0.0,0.0,0.0,0.0,0.0,0.0,0.0,0.0,0.0,0.0,0.0,0.0,0.0,0.0,0.0,0.0,0.0,0.0,0.0,0.0,0.0,0.0,0.0,0.0,0.0,0.0,0.0,0.0,0.0,0.0,0.0,0.0,0.0,0.0,0.0,0.0,0.0,0.0,0.0,0.0,0.0,0.0,0.0,0.0,0.0,0.0,0.0,0.0,0.0,0.0,0.0,0.0,0.0,0.0,0.0,0.0,0.0,0.0,0.0,0.0,0.0,0.0,0.0,0.0,0.0,0.0,0.0,0.0,0.0,0.0,0.0,0.0,0.0,0.0,0.0,0.0,0.0,0.0,0.0,0.0,0.0,0.0,0.0,0.0,0.0,0.0,0.0,0.0,0.0,0.0,0.0,0.0,0.0,0.0,0.0,0.0,0.0,0.0,0.0,0.0,0.0,0.0,0.0,0.0,0.0,0.0,0.0,0.0,0.0,0.0,0.0,0.0,0.0,0.0,0.0,0.0,0.0,0.0,0.0,0.0,0.0,0.0,0.0,0.0,0.0,0.0,0.0,0.0,0.0,0.0,0.0,0.0,0.0,0.0,0.0,0.0,0.0,0.0,0.0,0.0,0.0,0.0,0.0,0.0,0.0,0.0,0.0,0.0,0.0,0.0,0.0,0.0,0.0,0.0,0.0,0.0,0.0,0.0,0.0,0.0,0.0,0.0,0.0,0.0,0.0,0.0,0.0,0.0,0.0,0.0,0.0,0.0,0.0,0.0,0.0,0.0,0.0,0.0,0.0,0.0,0.0,0.0,0.0,0.0,0.0,0.0,0.0,0.0,0.0,0.0,0.0,0.0,0.0,0.0,0.0,0.0,0.0,0.0,0.0,0.0,0.0,0.0,0.0,0.0,0.0,0.0,0.0,0.0,0.0,0.0,0.0,0.0,0.0,0.0,0.0,0.0,0.0,0.0,0.0,0.0,0.0,0.0,0.0,0.0,0.0,0.0,0.0,0.0,0.0,0.0,0.0,0.0,0.0,0.0,0.0,0.0,0.0,0.0,0.0,0.0,0.0,0.0,0.0,0.0,0.0,0.0,0.0,0.0,0.0,0.0,0.0,0.0,0.0,0.0,0.0,0.0,0.0,0.0,0.0,0.0,0.0,0.0,0.0,0.0,0.0,0.0,0.0,0.0,0.0,0.0,0.0,0.0,0.0,0.0,0.0,0.0,0.0,0.0,0.0,0.0,0.0,0.0,0.0,0.0,0.0,0.0,0.0,0.0,0.0,0.0,0.0,0.0,0.0,0.0,0.0,0.0,0.0,0.0,0.0,0.0,0.0,0.0,0.0,0.0,0.0,0.0,0.0,0.0,0.0,0.0,0.0,0.0,0.0,0.0,0.0,0.0,0.0,0.0,0.0,0.0,0.0,0.0,0.0,0.0,0.0,0.0,0.0,0.0,0.0,0.0,0.0,0.0,0.0,0.0,0.0,0.0,0.0,0.0,0.0,0.0,0.0,0.0,0.0,0.0,0.0,0.0,0.0,0.0,0.0,0.0,0.0,0.0,0.0,0.0,0.0,0.0,0.0,0.0,0.0,0.0,0.0,0.0,0.0,0.0,0.0,0.0,0.0,0.0,0.0,0.0,0.0,0.0,0.0,0.0,0.0,0.0,0.0,0.0,0.0,0.0,0.0,0.0,0.0,0.0,0.0,0.0,0.0,0.0,0.0,0.0,0.0,0.0,0.0,0.0,0.0,0.0,0.0,0.0,0.0,0.0,0.0,0.0,0.0,0.0,0.0,0.0,0.0,0.0,0.0,0.0,0.0,0.0,0.0,0.0,0.0,0.0,0.0,0.0,0.0,0.0,0.0,0.0,0.0,0.0,0.0,0.0,0.0,0.0,0.0,0.0,0.0,0.0,0.0,0.0,0.0,0.0,0.0,0.0,0.0,0.0,0.0,0.0,0.0,0.0,0.0,0.0,0.0,0.0,0.0,0.0,0.0,0.0,0.0,0.0,0.0,0.0,0.0,0.0,0.0,0.0,0.0,0.0,0.0,0.0,0.0,0.0,0.0,0.0,0.0,0.0,0.0,0.0,0.0,0.0,0.0,0.0,0.0,0.0,0.0,0.0,0.0,0.0,0.0,0.0,0.0,0.0,0.0,0.0,0.0,0.0,0.0,0.0,0.0,0.0,0.0,0.0,0.0,0.0,0.0,0.0,0.0,0.0,0.0,0.0,0.0,0.0,0.0,0.0,0.0,0.0,0.0,0.0,0.0,0.0,0.0,0.0,0.0,0.0,0.0,0.0,0.0,0.0,0.0,0.0,0.0,0.0,0.0,0.0,0.0,0.0,0.0,0.0,0.0,0.0,0.0,-0.6247,0.0,0.0,0.0,0.0,0.0,0.0,0.0,0.0,0.0,0.0,0.0,0.0,0.0,0.0,0.0,0.0,0.0,0.0,0.0,0.0,0.0,0.0,0.0,0.0,0.0,0.0,0.0,0.0,0.0,0.0,0.0,0.0,0.0,0.0,0.0,0.0,0.0,0.0,0.0,0.0,0.0,0.0,0.0,0.0,0.0,0.0,0.0,0.0,0.0,0.0,0.0,0.0,0.0,0.0,0.0,0.0,0.0,0.0,0.0,0.0,0.0,0.0,0.0,0.0,0.0,0.0,0.0,0.0,0.0,0.0,0.0,0.0,0.0,0.0,0.0,0.0,0.0,0.0,0.0,0.0,0.0,0.0,0.0,0.0,0.0,0.0,0.0,0.0,0.0,0.0,0.0,0.0,0.0,0.0,0.0,0.0,0.0,0.0,0.0,0.0,0.0,0.0,0.0,0.0,0.0,0.0,0.0,0.0,0.0,0.0,-0.5314,-0.5788,-0.577,-0.6352,-0.7592,0.0,0.0,0.0,0.0,0.0,0.0,0.0,0.0,0.0,0.0,0.0,0.0,0.0,0.0,0.0,0.0,0.0,0.0,0.0,0.0,0.0,0.0,0.0,0.0,0.0,0.0,0.0,0.0,0.0,0.0,0.0,0.0,0.0,0.0,0.0,0.0,0.0,0.0,0.0,0.0,0.0,0.0,0.0,0.0,0.0,0.0,0.0,0.0,0.0,0.0,0.0,0.0,0.0,0.0,0.0,0.0,0.0,0.0,0.0,0.0,0.0,0.0,0.0,0.0,0.0,0.0,0.0,0.0,0.0,0.0,0.0,0.0,0.0,0.0,0.0,0.0,0.0,0.0,0.0,0.0,0.0,0.0,0.0,0.0,0.0,0.0,0.0,0.0,0.0,0.0,0.0,0.0,0.0,0.0,0.0,0.0,0.0,0.0,0.0,0.0,0.0,0.0,0.0,0.0,0.0,0.0,0.0,0.0,0.0,0.0,0.0,0.0,-0.6865,-0.7531,-0.8965,0.0,0.0,0.0,0.0,0.0,0.0,0.0,0.0,0.0,0.0,0.0,0.0,0.0,0.0,0.0,0.0,0.0,0.0,0.0,0.0,0.0,0.0,0.0,0.0,0.0,0.0,0.0,0.0,0.0,0.0,0.0,0.0,0.0,0.0,0.0,0.0,0.0,0.0,0.0,0.0,0.0,0.0,0.0,0.0,0.0,0.0,0.0,0.0,0.0,0.0,0.0,0.0,0.0,0.0,0.0,0.0,0.0,0.0,0.0,0.0,0.0,0.0,0.0,0.0,0.0,0.0,0.0,0.0,0.0,0.0,0.0,0.0,0.0,0.0,0.0,0.0,0.0,0.0,0.0,0.0,0.0,0.0,0.0,0.0,0.0,0.0,0.0,0.0,0.0,0.0,0.0,0.0,0.0,0.0,0.0,0.0,0.0,0.0,0.0,0.0,0.0,0.0,0.0,0.0,0.0,0.0,0.0,0.0,0.0,0.0,-0.6868,-0.8433,-0.8422,0.0,-0.9692,0.0,0.0,0.0,0.0,0.0,0.0,0.0,0.0,0.0,0.0,0.0,0.0,0.0,0.0,0.0,0.0,0.0,0.0,0.0,0.0,0.0,0.0,0.0,0.0,0.0,0.0,0.0,0.0,0.0,0.0,0.0,0.0,0.0,0.0,0.0,0.0,0.0,0.0,0.0,0.0,0.0,0.0,0.0,0.0,0.0,0.0,0.0,0.0,0.0,0.0,0.0,0.0,0.0,0.0,0.0,0.0,0.0,0.0,0.0,0.0,0.0,0.0,0.0,0.0,0.0,0.0,0.0,0.0,0.0,0.0,0.0,0.0,0.0,0.0,0.0,0.0,0.0,0.0,0.0,0.0,0.0,0.0,0.0,0.0,0.0,0.0,0.0,0.0,0.0,0.0,0.0,0.0,0.0,0.0,0.0,0.0,0.0,0.0,0.0,0.0,0.0,0.0,0.0,0.0,0.0,0.0,0.0,0.0,0.0,0.0,-0.6223,-0.7881,-0.8794,-0.9198,0.0,0.0,0.0,0.0,0.0,0.0,0.0,0.0,0.0,0.0,0.0,0.0,0.0,0.0,0.0,0.0,0.0,0.0,0.0,0.0,0.0,0.0,0.0,0.0,0.0,0.0,0.0,0.0,0.0,0.0,0.0,0.0,0.0,0.0,0.0,0.0,0.0,0.0,0.0,0.0,0.0,0.0,0.0,0.0,0.0,0.0,0.0,0.0,0.0,0.0,0.0,0.0,0.0,0.0,0.0,0.0,0.0,0.0,0.0,0.0,0.0,0.0,0.0,0.0,0.0,0.0,0.0,0.0,0.0,0.0,0.0,0.0,0.0,0.0,0.0,0.0,0.0,0.0,0.0,0.0,0.0,0.0,0.0,0.0,0.0,0.0,0.0,0.0,0.0,0.0,0.0,0.0,0.0,0.0,0.0,0.0,0.0,0.0,0.0,0.0,0.0,0.0,0.0,0.0,0.0,0.0,0.0,0.0,0.0,0.0,-0.5602,-0.6403,-0.821,-0.8911,-0.9195,-0.907,0.0,0.0,0.0,0.0,0.0,0.0,0.0,0.0,0.0,0.0,0.0,0.0,0.0,0.0,0.0,0.0,0.0,0.0,0.0,0.0,0.0,0.0,0.0,0.0,0.0,0.0,0.0,0.0,0.0,0.0,0.0,0.0,0.0,0.0,0.0,0.0,0.0,0.0,0.0,0.0,0.0,0.0,0.0,0.0,0.0,0.0,0.0,0.0,0.0,0.0,0.0,0.0,0.0,0.0,0.0,0.0,0.0,0.0,0.0,0.0,0.0,0.0,0.0,0.0,0.0,0.0,0.0,0.0,0.0,0.0,0.0,0.0,0.0,0.0,0.0,0.0,0.0,0.0,0.0,0.0,0.0,0.0,0.0,0.0,0.0,0.0,0.0,0.0,0.0,0.0,0.0,0.0,0.0,0.0,0.0,0.0,0.0,0.0,0.0,0.0,0.0,0.0,0.0,0.0,0.0,0.0,0.0,0.0,-0.7953,-0.7348,-0.8107,-1.0286,-0.8931,-0.8841,0.0,0.0,0.0,0.0,0.0,0.0,0.0,0.0,0.0,0.0,0.0,0.0,0.0,0.0,0.0,0.0,0.0,0.0,0.0,0.0,0.0,0.0,0.0,0.0,0.0,0.0,0.0,0.0,0.0,0.0,0.0,0.0,0.0,0.0,0.0,0.0,0.0,0.0,0.0,0.0,0.0,0.0,0.0,0.0,0.0,0.0,0.0,0.0,0.0,0.0,0.0,0.0,0.0,0.0,0.0,0.0,0.0,0.0,0.0,0.0,0.0,0.0,0.0,0.0,0.0,0.0,0.0,0.0,0.0,0.0,0.0,0.0,0.0,0.0,0.0,0.0,0.0,0.0,0.0,0.0,0.0,0.0,0.0,0.0,0.0,0.0,0.0,0.0,0.0,0.0,0.0,0.0,0.0,0.0,0.0,0.0,0.0,0.0,0.0,0.0,0.0,0.0,0.0,0.0,0.0,0.0,0.0,0.0,0.0,-0.5891,-0.6153,-0.6627,-0.7412,-0.7744,-0.8167,0.0,0.0,0.0,0.0,0.0,0.0,0.0,0.0,0.0,0.0,0.0,0.0,0.0,0.0,0.0,0.0,0.0,0.0,0.0,0.0,0.0,0.0,0.0,0.0,0.0,0.0,0.0,0.0,0.0,0.0,0.0,0.0,0.0,0.0,0.0,0.0,0.0,0.0,0.0,0.0,0.0,0.0,0.0,0.0,0.0,0.0,0.0,0.0,0.0,0.0,0.0,0.0,0.0,0.0,0.0,0.0,0.0,0.0,0.0,0.0,0.0,0.0,0.0,0.0,0.0,0.0,0.0,0.0,0.0,0.0,0.0,0.0,0.0,0.0,0.0,0.0,0.0,0.0,0.0,0.0,0.0,0.0,0.0,0.0,0.0,0.0,0.0,0.0,0.0,0.0,0.0,0.0,0.0,0.0,0.0,0.0,0.0,0.0,0.0,0.0,0.0,0.0,0.0,0.0,0.0,0.0,0.0,0.0,0.0,-0.5363,0.0,-0.665,-0.6424,-0.7507,-0.7962,0.0,0.0,0.0,0.0,0.0,0.0,0.0,0.0,0.0,0.0,0.0,0.0,0.0,0.0,0.0,0.0,0.0,0.0,0.0,0.0,0.0,0.0,0.0,0.0,0.0,0.0,0.0,0.0,0.0,0.0,0.0,0.0,0.0,0.0,0.0,0.0,0.0,0.0,0.0,0.0,0.0,0.0,0.0,0.0,0.0,0.0,0.0,0.0,0.0,0.0,0.0,0.0,0.0,0.0,0.0,0.0,0.0,0.0,0.0,0.0,0.0,0.0,0.0,0.0,0.0,0.0,0.0,0.0,0.0,0.0,0.0,0.0,0.0,0.0,0.0,0.0,0.0,0.0,0.0,0.0,0.0,0.0,0.0,0.0,0.0,0.0,0.0,0.0,0.0,0.0,0.0,0.0,0.0,0.0,0.0,0.0,0.0,0.0,0.0,0.0,0.0,0.0,0.0,0.0,0.0,0.0,0.0,0.0,-0.6181,-0.6843,-0.8035,-0.8348,-0.8014,-0.8321,-0.8259,0.0,0.0,0.0,0.0,0.0,0.0,0.0,0.0,0.0,0.0,0.0,0.0,0.0,0.0,0.0,0.0,0.0,0.0,0.0,0.0,0.0,0.0,0.0,0.0,0.0,0.0,0.0,0.0,0.0,0.0,0.0,0.0,0.0,0.0,0.0,0.0,0.0,0.0,0.0,0.0,0.0,0.0,0.0,0.0,0.0,0.0,0.0,0.0,0.0,0.0,0.0,0.0,0.0,0.0,0.0,0.0,0.0,0.0,0.0,0.0,0.0,0.0,0.0,0.0,0.0,0.0,0.0,0.0,0.0,0.0,0.0,0.0,0.0,0.0,0.0,0.0,0.0,0.0,0.0,0.0,0.0,0.0,0.0,0.0,0.0,0.0,0.0,0.0,0.0,0.0,0.0,0.0,0.0,0.0,0.0,0.0,0.0,0.0,0.0,0.0,0.0,0.0,0.0,0.0,0.0,0.0,0.0,0.0,0.0,-0.5924,-0.6798,-0.7407,-0.7634,-0.7684,-0.7808,0.0,0.0,0.0,0.0,0.0,0.0,0.0,0.0,0.0,0.0,0.0,0.0,0.0,0.0,0.0,0.0,0.0,0.0,0.0,0.0,0.0,0.0,0.0,0.0,0.0,0.0,0.0,0.0,0.0,0.0,0.0,0.0,0.0,0.0,0.0,0.0,0.0,0.0,0.0,0.0,0.0,0.0,0.0,0.0,0.0,0.0,0.0,0.0,0.0,0.0,0.0,0.0,0.0,0.0,0.0,0.0,0.0,0.0,0.0,0.0,0.0,0.0,0.0,0.0,0.0,0.0,0.0,0.0,0.0,0.0,0.0,0.0,0.0,0.0,0.0,0.0,0.0,0.0,0.0,0.0,0.0,0.0,0.0,0.0,0.0,0.0,0.0,0.0,0.0,0.0,0.0,0.0,0.0,0.0,0.0,0.0,0.0,0.0,0.0,0.0,0.0,0.0,0.0,0.0,0.0,0.0,0.0,0.0,0.0,-0.6687,-0.709,-0.7404,-0.7532,-0.7588,-0.7499,-0.7309,0.0,0.0,0.0,0.0,0.0,0.0,0.0,0.0,0.0,0.0,0.0,0.0,0.0,0.0,0.0,0.0,0.0,0.0,0.0,0.0,0.0,0.0,0.0,0.0,0.0,0.0,0.0,0.0,0.0,0.0,0.0,0.0,0.0,0.0,0.0,0.0,0.0,0.0,0.0,0.0,0.0,0.0,0.0,0.0,0.0,0.0,0.0,0.0,0.0,0.0,0.0,0.0,0.0,0.0,0.0,0.0,0.0,0.0,0.0,0.0,0.0,0.0,0.0,0.0,0.0,0.0,0.0,0.0,0.0,0.0,0.0,0.0,0.0,0.0,0.0,0.0,0.0,0.0,0.0,0.0,0.0,0.0,0.0,0.0,0.0,0.0,0.0,0.0,0.0,0.0,0.0,0.0,0.0,0.0,0.0,0.0,0.0,0.0,0.0,0.0,0.0,0.0,0.0,0.0,0.0,0.0,0.0,0.0,-0.8665,-0.8692,-0.8396,-0.7778,-0.8008,-0.7434,0.0,0.0,0.0,0.0,0.0,0.0,0.0,0.0,0.0,0.0,0.0,0.0,0.0,0.0,0.0,0.0,0.0,0.0,0.0,0.0,0.0,0.0,0.0,0.0,0.0,0.0,0.0,0.0,0.0,0.0,0.0,0.0,0.0,0.0,0.0,0.0,0.0,0.0,0.0,0.0,0.0,0.0,0.0,0.0,0.0,0.0,0.0,0.0,0.0,0.0,0.0,0.0,0.0,0.0,0.0,0.0,0.0,0.0,0.0,0.0,0.0,0.0,0.0,0.0,0.0,0.0,0.0,0.0,0.0,0.0,0.0,0.0,0.0,0.0,0.0,0.0,0.0,0.0,0.0,0.0,0.0,0.0,0.0,0.0,0.0,0.0,0.0,0.0,0.0,0.0,0.0,0.0,0.0,0.0,0.0,0.0,0.0,0.0,0.0,0.0,0.0,0.0,0.0,0.0,0.0,0.0,0.0,0.0,0.0,-0.9499,-0.9866,-0.9758,-0.9102,-0.8881,-0.8088,0.0,0.0,0.0,0.0,0.0,0.0,0.0,0.0,0.0,0.0,0.0,0.0,0.0,0.0,0.0,0.0,0.0,0.0,0.0,0.0,0.0,0.0,0.0,0.0,0.0,0.0,0.0,0.0,0.0,0.0,0.0,0.0,0.0,0.0,0.0,0.0,0.0,0.0,0.0,0.0,0.0,0.0,0.0,0.0,0.0,0.0,0.0,0.0,0.0,0.0,0.0,0.0,0.0,0.0,0.0,0.0,0.0,0.0,0.0,0.0,0.0,0.0,0.0,0.0,0.0,0.0,0.0,0.0,0.0,0.0,0.0,0.0,0.0,0.0,0.0,0.0,0.0,0.0,0.0,0.0,0.0,0.0,0.0,0.0,0.0,0.0,0.0,0.0,0.0,0.0,0.0,0.0,0.0,0.0,0.0,0.0,0.0,0.0,0.0,0.0,0.0,0.0,0.0,0.0,0.0,0.0,0.0,0.0,-1.0336,-1.0277,-1.1018,-1.1078,-1.0359,-0.9658,-0.8483,0.0,0.0,0.0,0.0,0.0,0.0,0.0,0.0,0.0,0.0,0.0,0.0,0.0,0.0,0.0,0.0,0.0,0.0,0.0,0.0,0.0,0.0,0.0,0.0,0.0,0.0,0.0,0.0,0.0,0.0,0.0,0.0,0.0,0.0,0.0,0.0,0.0,0.0,0.0,0.0,0.0,0.0,0.0,0.0,0.0,0.0,0.0,0.0,0.0,0.0,0.0,0.0,0.0,0.0,0.0,0.0,0.0,0.0,0.0,0.0,0.0,0.0,0.0,0.0,0.0,0.0,0.0,0.0,0.0,0.0,0.0,0.0,0.0,0.0,0.0,0.0,0.0,0.0,0.0,0.0,0.0,0.0,0.0,0.0,0.0,0.0,0.0,0.0,0.0,0.0,0.0,0.0,0.0,0.0,0.0,0.0,0.0,0.0,0.0,0.0,0.0,0.0,0.0,0.0,0.0,0.0,0.0,0.0,-1.0921,-1.0897,-1.1955,-1.2143,-1.137,-1.0303,-0.8685,0.0,0.0,0.0,0.0,0.0,0.0,0.0,0.0,0.0,0.0,0.0,0.0,0.0,0.0,0.0,0.0,0.0,0.0,0.0,0.0,0.0,0.0,0.0,0.0,0.0,0.0,0.0,0.0,0.0,0.0,0.0,0.0,0.0,0.0,0.0,0.0,0.0,0.0,0.0,0.0,0.0,0.0,0.0,0.0,0.0,0.0,0.0,0.0,0.0,0.0,0.0,0.0,0.0,0.0,0.0,0.0,0.0,0.0,0.0,0.0,0.0,0.0,0.0,0.0,0.0,0.0,0.0,0.0,0.0,0.0,0.0,0.0,0.0,0.0,0.0,0.0,0.0,0.0,0.0,0.0,0.0,0.0,0.0,0.0,0.0,0.0,0.0,0.0,0.0,0.0,0.0,0.0,0.0,0.0,0.0,0.0,0.0,0.0,0.0,0.0,0.0,0.0,0.0,0.0,0.0,0.0,0.0,0.0,-1.1028,-1.0925,-1.1997,-1.2127,-1.1177,-1.026,-0.8876,0.0,0.0,0.0,0.0,0.0,0.0,0.0,0.0,0.0,0.0,0.0,0.0,0.0,0.0,0.0,0.0,0.0,0.0,0.0,0.0,0.0,0.0,0.0,0.0,0.0,0.0,0.0,0.0,0.0,0.0,0.0,0.0,0.0,0.0,0.0,0.0,0.0,0.0,0.0,0.0,0.0,0.0,0.0,0.0,0.0,0.0,0.0,0.0,-0.7417,0.0,0.0,0.0,0.0,0.0,0.0,0.0,0.0,0.0,0.0,0.0,0.0,0.0,0.0,0.0,0.0,0.0,0.0,0.0,0.0,0.0,0.0,0.0,0.0,0.0,0.0,0.0,0.0,0.0,0.0,0.0,0.0,0.0,0.0,0.0,0.0,0.0,0.0,0.0,0.0,0.0,0.0,0.0,0.0,0.0,0.0,0.0,0.0,0.0,0.0,0.0,0.0,0.0,0.0,0.0,0.0,0.0,0.0,0.0,-1.1086,-1.0983,-1.1968,-1.2223,-1.1605,-1.0258,-0.8873,0.0,0.0,0.0,0.0,0.0,0.0,0.0,0.0,0.0,0.0,0.0,0.0,0.0,0.0,0.0,0.0,0.0,0.0,0.0,0.0,0.0,0.0,0.0,0.0,0.0,0.0,0.0,0.0,0.0,0.0,0.0,0.0,0.0,0.0,0.0,0.0,0.0,0.0,0.0,0.0,0.0,0.0,0.0,0.0,0.0,0.0,0.0,0.0,0.0,0.0,0.0,0.0,0.0,0.0,0.0,0.0,0.0,0.0,0.0,0.0,0.0,0.0,0.0,0.0,0.0,0.0,0.0,0.0,0.0,0.0,0.0,0.0,0.0,0.0,0.0,0.0,0.0,0.0,0.0,0.0,0.0,0.0,0.0,0.0,0.0,0.0,0.0,0.0,0.0,0.0,0.0,0.0,0.0,0.0,0.0,0.0,0.0,0.0,0.0,0.0,0.0,0.0,0.0,0.0,0.0,0.0,0.0,-1.0425,-1.1112,-1.1019,-1.1819,-1.2258,-1.2146,-1.0166,-0.8702,-0.7925,0.0,0.0,0.0,0.0,0.0,0.0,0.0,0.0,0.0,0.0,0.0,0.0,0.0,0.0,0.0,0.0,0.0,0.0,0.0,0.0,0.0,0.0,0.0,0.0,0.0,0.0,0.0,0.0,0.0,0.0,0.0,0.0,0.0,0.0,0.0,0.0,0.0,0.0,-0.7707,-0.8258,0.0,0.0,0.0,0.0,0.0,0.0,0.0,0.0,-0.8161,0.0,0.0,0.0,0.0,0.0,0.0,0.0,0.0,0.0,0.0,0.0,0.0,0.0,0.0,0.0,0.0,0.0,0.0,0.0,0.0,0.0,0.0,0.0,0.0,0.0,0.0,0.0,0.0,0.0,0.0,0.0,0.0,0.0,0.0,0.0,0.0,0.0,0.0,0.0,0.0,0.0,0.0,0.0,0.0,0.0,0.0,0.0,0.0,0.0,0.0,0.0,0.0,0.0,0.0,0.0,0.0,-0.9004,-1.0339,-1.0982,-1.0923,-1.1397,-1.1802,-1.2015,-0.9735,-0.838,-0.8181,0.0,0.0,0.0,0.0,0.0,0.0,0.0,0.0,0.0,0.0,0.0,0.0,0.0,0.0,0.0,0.0,0.0,0.0,0.0,0.0,0.0,0.0,0.0,0.0,0.0,0.0,0.0,0.0,0.0,0.0,0.0,0.0,0.0,0.0,0.0,0.0,0.0,0.0,0.0,-0.8317,-0.8937,0.0,0.0,0.0,0.0,0.0,0.0,0.0,0.0,-0.8472,0.0,0.0,0.0,0.0,0.0,0.0,0.0,0.0,0.0,0.0,0.0,0.0,0.0,0.0,0.0,0.0,0.0,0.0,0.0,0.0,0.0,0.0,0.0,0.0,0.0,0.0,0.0,0.0,0.0,0.0,0.0,0.0,0.0,0.0,0.0,0.0,0.0,0.0,0.0,0.0,0.0,0.0,0.0,0.0,0.0,0.0,0.0,0.0,0.0,0.0,0.0,0.0,0.0,0.0,0.0,-0.902,-0.9925,-1.0379,-1.0284,-1.0637,-1.0867,-1.091,-0.8767,-0.7612,0.0,0.0,0.0,0.0,0.0,0.0,0.0,0.0,0.0,0.0,0.0,0.0,0.0,0.0,0.0,0.0,0.0,0.0,0.0,0.0,0.0,0.0,0.0,0.0,0.0,0.0,0.0,0.0,0.0,0.0,0.0,0.0,0.0,0.0,0.0,0.0,0.0,0.0,0.0,0.0,-0.8295,-0.882,-0.9143,0.0,0.0,0.0,0.0,0.0,0.0,-0.8975,-0.8549,0.0,0.0,0.0,0.0,0.0,0.0,0.0,0.0,0.0,0.0,0.0,0.0,0.0,0.0,0.0,0.0,0.0,0.0,0.0,0.0,0.0,0.0,0.0,0.0,0.0,0.0,0.0,0.0,0.0,0.0,0.0,0.0,0.0,0.0,0.0,0.0,0.0,0.0,0.0,0.0,0.0,0.0,0.0,0.0,0.0,0.0,0.0,0.0,0.0,0.0,0.0,0.0,0.0,0.0,0.0,-0.892,-0.9555,-0.9851,-0.9708,-0.9914,-0.9966,-0.9828,-0.7923,-0.7004,0.0,0.0,0.0,0.0,0.0,0.0,0.0,0.0,0.0,0.0,0.0,0.0,0.0,0.0,0.0,0.0,0.0,0.0,0.0,0.0,0.0,0.0,0.0,0.0,0.0,0.0,0.0,0.0,0.0,0.0,0.0,0.0,0.0,0.0,0.0,0.0,0.0,0.0,0.0,0.0,0.0,-0.8859,-0.8985,-0.9856,0.0,0.0,0.0,0.0,-1.0169,-0.9452,0.0,0.0,0.0,0.0,0.0,0.0,0.0,0.0,0.0,0.0,0.0,0.0,0.0,0.0,0.0,0.0,0.0,0.0,0.0,0.0,0.0,0.0,0.0,0.0,0.0,0.0,0.0,0.0,0.0,0.0,0.0,0.0,0.0,0.0,0.0,0.0,0.0,0.0,0.0,0.0,0.0,0.0,0.0,0.0,0.0,0.0,0.0,0.0,0.0,0.0,0.0,0.0,0.0,0.0,0.0,0.0,-0.8876,-0.9575,-0.9888,-0.9703,-0.9562,-0.9561,-0.9685,-0.7824,-0.7068,0.0,0.0,0.0,0.0,0.0,0.0,0.0,0.0,0.0,0.0,0.0,0.0,0.0,0.0,0.0,0.0,0.0,0.0,0.0,0.0,0.0,0.0,0.0,0.0,0.0,0.0,0.0,0.0,0.0,0.0,0.0,0.0,0.0,0.0,0.0,0.0,0.0,0.0,0.0,0.0,0.0,-0.9436,-0.9947,-1.0236,-1.0535,0.0,0.0,-1.0277,-1.0727,-1.0645,0.0,0.0,0.0,0.0,0.0,0.0,0.0,0.0,0.0,0.0,0.0,0.0,0.0,0.0,0.0,0.0,0.0,0.0,0.0,0.0,0.0,0.0,0.0,0.0,0.0,0.0,0.0,0.0,0.0,0.0,0.0,0.0,0.0,0.0,0.0,0.0,0.0,0.0,0.0,0.0,0.0,0.0,0.0,0.0,0.0,0.0,0.0,0.0,0.0,0.0,0.0,0.0,0.0,0.0,0.0,-1.021,-0.9517,-0.9412,-0.9275,-0.9067,-0.876,-0.8537,-0.84,-0.6919,-0.6279,0.0,0.0,0.0,0.0,0.0,0.0,0.0,0.0,0.0,0.0,0.0,0.0,0.0,0.0,0.0,0.0,0.0,0.0,0.0,0.0,0.0,0.0,0.0,0.0,0.0,0.0,0.0,0.0,0.0,0.0,0.0,0.0,0.0,0.0,0.0,0.0,0.0,0.0,0.0,0.0,0.0,0.0,-0.9716,-1.0391,0.0,0.0,0.0,-1.0523,-1.0695,0.0,0.0,0.0,0.0,0.0,0.0,0.0,0.0,0.0,0.0,0.0,0.0,0.0,0.0,0.0,0.0,0.0,0.0,0.0,0.0,0.0,0.0,0.0,0.0,0.0,0.0,0.0,0.0,0.0,0.0,0.0,0.0,0.0,0.0,0.0,0.0,0.0,0.0,0.0,0.0,0.0,0.0,0.0,0.0,0.0,0.0,0.0,0.0,0.0,0.0,0.0,0.0,0.0,0.0,0.0,0.0,0.0,-0.9999,-0.9295,-0.8834,-0.86,-0.8416,-0.8018,-0.7328,-0.6493,0.0,0.0,0.0,0.0,0.0,0.0,0.0,0.0,0.0,0.0,0.0,0.0,0.0,0.0,0.0,0.0,0.0,0.0,0.0,0.0,0.0,0.0,0.0,0.0,0.0,0.0,0.0,-0.6657,0.0,0.0,0.0,0.0,0.0,0.0,0.0,0.0,0.0,0.0,0.0,0.0,0.0,0.0,-0.986,-0.9898,-1.0711,-1.1059,0.0,0.0,-1.0777,-1.0681,-1.0372,-1.0248,0.0,0.0,0.0,0.0,0.0,0.0,0.0,0.0,0.0,0.0,0.0,0.0,0.0,0.0,0.0,0.0,0.0,0.0,0.0,0.0,0.0,0.0,0.0,0.0,0.0,0.0,0.0,0.0,0.0,0.0,0.0,0.0,0.0,0.0,0.0,0.0,0.0,0.0,0.0,0.0,0.0,0.0,0.0,0.0,0.0,0.0,0.0,0.0,0.0,0.0,0.0,0.0,0.0,0.0,-1.0609,-1.0013,-0.933,-0.8866,-0.862,-0.9014,-0.853,-0.7166,-0.7292,-0.7343,0.0,0.0,0.0,0.0,0.0,0.0,0.0,0.0,0.0,0.0,0.0,0.0,0.0,0.0,0.0,0.0,0.0,0.0,0.0,0.0,0.0,0.0,0.0,0.0,0.0,0.0,0.0,0.0,0.0,0.0,0.0,0.0,0.0,0.0,0.0,0.0,0.0,0.0,0.0,0.0,0.0,-1.1256,-1.1268,-1.1453,-1.1453,0.0,-1.1078,-1.1015,-1.0904,-1.1264,-1.1429,-1.1034,0.0,0.0,0.0,0.0,0.0,0.0,0.0,0.0,0.0,0.0,0.0,0.0,0.0,0.0,0.0,0.0,0.0,0.0,0.0,0.0,0.0,0.0,0.0,0.0,0.0,0.0,0.0,0.0,0.0,0.0,0.0,0.0,0.0,0.0,0.0,0.0,0.0,0.0,0.0,0.0,0.0,0.0,0.0,0.0,0.0,0.0,0.0,0.0,0.0,0.0,0.0,0.0,0.0,-1.0933,-1.0726,-0.9582,-0.9104,-0.9266,-0.9254,-0.8796,-0.7931,-0.7654,-0.7217,0.0,0.0,0.0,0.0,0.0,0.0,0.0,0.0,0.0,0.0,0.0,0.0,0.0,0.0,0.0,0.0,0.0,0.0,0.0,0.0,0.0,0.0,0.0,0.0,0.0,0.0,0.0,0.0,-0.6733,-0.6823,-0.7157,0.0,0.0,0.0,0.0,0.0,0.0,0.0,0.0,0.0,0.0,-1.1113,-1.1535,-1.1579,0.0,0.0,-1.1494,-1.1486,-1.103,-1.1169,-1.1263,-1.1104,-1.0933,0.0,0.0,0.0,0.0,0.0,0.0,0.0,0.0,0.0,0.0,0.0,0.0,0.0,0.0,0.0,0.0,0.0,0.0,0.0,0.0,0.0,0.0,0.0,0.0,0.0,0.0,0.0,0.0,0.0,0.0,0.0,0.0,0.0,0.0,0.0,0.0,0.0,0.0,0.0,0.0,0.0,0.0,0.0,0.0,0.0,0.0,0.0,0.0,0.0,0.0,0.0,0.0,-1.1387,-1.1228,-0.996,-0.9454,-0.9692,-0.9588,-0.917,-0.8433,-0.8077,-0.7497,0.0,0.0,0.0,0.0,0.0,0.0,0.0,0.0,0.0,0.0,0.0,0.0,0.0,0.0,0.0,0.0,0.0,0.0,0.0,0.0,0.0,0.0,0.0,0.0,0.0,0.0,0.0,0.0,-0.7615,-0.7842,-0.8176,0.0,0.0,0.0,0.0,0.0,0.0,0.0,0.0,0.0,0.0,-1.1334,-1.1793,-1.1804,-1.1725,-1.1593,-1.1821,-1.1792,-1.1219,-1.1201,-1.1263,-1.1293,0.0,0.0,0.0,0.0,0.0,0.0,0.0,0.0,0.0,0.0,0.0,0.0,0.0,0.0,0.0,0.0,0.0,0.0,0.0,0.0,0.0,0.0,0.0,0.0,0.0,0.0,0.0,-0.8044,0.0,0.0,-0.7032,0.0,0.0,0.0,0.0,0.0,0.0,0.0,0.0,0.0,0.0,0.0,0.0,0.0,0.0,0.0,0.0,0.0,0.0,0.0,0.0,0.0,0.0,-1.2012,-1.1319,-1.0484,-0.9933,-0.9743,-1.0057,-0.9655,-0.8472,-0.864,-0.8577,-0.8228,0.0,0.0,0.0,0.0,0.0,0.0,0.0,0.0,0.0,0.0,0.0,0.0,0.0,0.0,0.0,0.0,0.0,0.0,0.0,0.0,0.0,0.0,0.0,0.0,0.0,0.0,-1.0147,-0.944,-0.8925,0.0,0.0,0.0,0.0,0.0,0.0,0.0,0.0,0.0,-1.2182,-1.2177,-1.221,-1.229,-1.2351,-1.2305,-1.2071,-1.2023,-1.1901,-1.1578,-1.1571,-1.163,0.0,0.0,0.0,0.0,0.0,0.0,0.0,0.0,0.0,0.0,0.0,0.0,0.0,0.0,0.0,0.0,0.0,0.0,0.0,0.0,0.0,0.0,0.0,0.0,0.0,0.0,0.0,-1.0099,-0.9829,0.0,0.0,0.0,0.0,0.0,0.0,0.0,0.0,0.0,0.0,0.0,-1.2109,-1.2411,0.0,0.0,0.0,0.0,0.0,0.0,0.0,0.0,0.0,0.0,0.0,0.0,-1.1833,-1.2066,-1.0359,-0.9795,-1.0522,-1.0038,-0.9529,-0.8995,-0.8679,-0.829,-0.7782,0.0,0.0,0.0,0.0,0.0,0.0,0.0,0.0,0.0,0.0,0.0,0.0,0.0,0.0,0.0,0.0,0.0,0.0,0.0,0.0,0.0,0.0,0.0,0.0,0.0,-1.0598,0.0,0.0,0.0,0.0,0.0,0.0,0.0,0.0,0.0,0.0,-1.2832,-1.2971,-1.2538,-1.2894,-1.3175,-1.318,-1.3134,-1.3277,0.0,0.0,0.0,0.0,0.0,0.0,0.0,0.0,0.0,0.0,0.0,0.0,0.0,0.0,-1.2773,-1.154,-1.1359,-1.1538,-1.2013,0.0,0.0,0.0,0.0,0.0,0.0,0.0,0.0,0.0,0.0,0.0,0.0,0.0,0.0,-1.1279,-1.1407,-1.0759,0.0,0.0,0.0,0.0,0.0,0.0,0.0,0.0,-1.1912,-1.2183,-1.2703,-1.2813,-1.3026,-1.3279,-1.315,-1.3193,0.0,0.0,0.0,0.0,0.0,0.0,0.0,0.0,-1.2078,-1.2528,-1.0835,-1.0385,-1.1326,-1.0699,-1.0259,-1.0136,-0.9528,-0.8865,-0.8138,-0.765,-0.7079,0.0,0.0,0.0,0.0,0.0,0.0,0.0,0.0,0.0,0.0,0.0,0.0,0.0,0.0,0.0,0.0,0.0,0.0,0.0,0.0,0.0,0.0,0.0,-1.1082,0.0,0.0,0.0,0.0,0.0,0.0,0.0,0.0,0.0,-1.2613,-1.3202,-1.3494,-1.3043,-1.3631,-1.4098,-1.405,0.0,0.0,0.0,0.0,0.0,0.0,0.0,-1.3436,-1.3176,-1.3157,-1.327,-1.3653,-1.41,-1.4389,-1.436,0.0,0.0,-1.2731,-1.2519,-1.2719,-1.3159,-1.2606,-1.2452,-1.3819,-1.2913,-1.2136,0.0,0.0,0.0,0.0,-1.4357,0.0,0.0,0.0,-1.2421,-1.2396,0.0,-1.1294,0.0,0.0,0.0,0.0,-1.1834,-1.1882,0.0,0.0,-1.2919,-1.2844,-1.2842,-1.3036,-1.3433,-1.401,-1.3612,-1.3759,-1.4366,-1.3717,0.0,0.0,0.0,0.0,0.0,0.0,-1.2718,-1.2727,-1.1842,-1.1663,-1.217,-1.1981,-1.1778,-1.1618,-1.0997,-1.0246,-0.9371,-0.9313,-0.8746,-0.7387,-0.7276,0.0,0.0,0.0,0.0,0.0,0.0,0.0,0.0,0.0,0.0,0.0,0.0,0.0,0.0,0.0,0.0,0.0,0.0,0.0,0.0,-1.1131,0.0,0.0,0.0,0.0,0.0,0.0,0.0,0.0,0.0,-1.4643,-1.299,-1.3456,-1.3859,-1.3777,0.0,0.0,0.0,0.0,-1.5054,-1.5016,-1.4395,-1.4159,-1.4593,-1.4232,-1.4131,-1.4743,0.0,0.0,-1.478,-1.4915,-1.5028,-1.4758,-1.497,-1.4943,-1.4508,-1.4337,-1.4402,-1.4491,-1.442,-1.449,-1.4521,-1.3989,-1.3526,-1.6872,0.0,0.0,0.0,0.0,-1.5137,-1.5115,-1.4969,-1.4666,-1.4306,-1.393,-1.3353,0.0,0.0,0.0,0.0,0.0,0.0,-1.3823,-1.4646,-1.471,-1.4736,-1.4788,-1.4919,-1.5112,-1.5268,-1.5151,-1.5189,-1.536,-1.4745,-1.415,-1.3636,0.0,0.0,0.0,0.0,-1.3055,-1.3506,-1.226,-1.1872,-1.2545,-1.1795,-1.1273,-1.0984,-1.0743,-1.0373,-0.9826,-0.9502,-0.889,-0.7929,-0.7992,0.0,0.0,0.0,0.0,0.0,0.0,0.0,0.0,0.0,0.0,0.0,0.0,0.0,0.0,0.0,0.0,0.0,0.0,0.0,-1.192,-1.1642,-1.1753,0.0,0.0,0.0,0.0,0.0,0.0,0.0,0.0,0.0,-1.483,-1.5345,-1.5596,0.0,0.0,-1.6215,-1.6143,-1.6269,-1.6513,-1.6967,-1.6867,0.0,-1.6082,-1.5895,-1.5508,-1.4635,-1.487,-1.5315,-1.5758,-1.6272,-1.6625,-1.6595,-1.6701,-1.6732,-1.6559,-1.5596,-1.5066,-1.5344,-1.5126,-1.4981,-1.5389,-1.4653,-1.4014,-1.829,-1.6901,-1.6475,-1.6122,-1.5884,-1.5912,-1.5834,-1.5668,-1.5584,-1.546,-1.5288,-1.4877,-1.4596,-1.4419,-1.4109,0.0,0.0,0.0,-1.5051,-1.564,-1.5656,-1.5699,-1.5767,-1.5871,-1.6075,-1.634,-1.604,-1.6086,-1.638,-1.5741,-1.5173,-1.4675,0.0,-1.3845,-1.3974,-1.3201,-1.3196,-1.3897,-1.2739,-1.2435,-1.315,-1.2534,-1.2082,-1.1857,-1.171,-1.1482,-1.1153,-1.0527,-0.9869,-0.9166,-0.907,-0.8591,0.0,0.0,0.0,0.0,0.0,0.0,0.0,0.0,0.0,0.0,0.0,-1.072,-1.0836,0.0,0.0,0.0,-1.2494,-1.2685,-1.1817,-1.2282,0.0,0.0,0.0,0.0,0.0,0.0,0.0,-1.6231,-1.6595,-1.687,-1.6813,-1.7201,-1.713,-1.6183,-1.6772,-1.7283,-1.7241,0.0,-1.7568,-1.798,-1.7786,-1.7508,-1.7249,-1.7006,-1.6616,-1.6034,-1.6192,-1.6559,-1.7008,-1.7451,-1.7695,-1.7714,-1.7743,-1.7754,-1.7713,-1.6839,-1.6233,-1.6541,-1.6026,-1.5811,-1.6515,-1.5542,-1.4669,-1.9507,-1.9412,-1.8372,-1.7508,-1.6826,-1.6855,-1.6522,-1.5898,-1.5822,-1.611,-1.6636,-1.5934,-1.5962,-1.6496,-1.5971,0.0,-1.5987,-1.5939,-1.601,-1.6188,-1.6123,-1.6117,-1.6202,-1.6271,-1.6647,-1.7293,-1.6623,-1.6667,-1.7341,-1.6641,-1.629,-1.6263,-1.4841,-1.4143,-1.4142,-1.3405,-1.3347,-1.4074,-1.3312,-1.3227,-1.3899,-1.3932,-1.3844,-1.3714,-1.3531,-1.3334,-1.3122,-1.2318,-1.1614,-1.0977,-1.0505,-1.0037,-0.9517,0.0,0.0,0.0,0.0,0.0,0.0,0.0,0.0,0.0,0.0,0.0,0.0,0.0,0.0,-1.3602,-1.4146,0.0,-1.131,-1.315,0.0,0.0,0.0,-1.6032,-1.6084,-1.6763,-1.7248,-1.7304,0.0,0.0,-1.8604,-1.8724,-1.8374,-1.7207,-1.7688,-1.817,-1.8229,-1.8232,-1.827,-1.8302,-1.7718,-1.7498,-1.8049,-1.765,-1.7444,-1.8028,-1.8307,-1.8107,-1.822,-1.8273,-1.8287,-1.8206,-1.82,-1.8185,-1.8046,-1.7954,-1.7968,-1.7666,-1.7089,-1.6819,-1.73,-1.6433,-1.5543,-2.1039,-2.0399,-1.9538,-1.8944,-1.8639,-1.9175,-1.8992,-1.8356,-1.8212,-1.7667,-1.6838,-1.6651,-1.6379,-1.6072,-1.5968,-1.6248,-1.6803,-1.6905,-1.7244,-1.7743,-1.7794,-1.7814,-1.7811,-1.7842,-1.796,-1.8176,-1.8029,-1.8018,-1.8178,-1.7477,-1.7108,-1.7073,-1.628,-1.5873,-1.58,-1.4984,-1.4704,-1.4979,-1.4191,-1.389,-1.4136,-1.5237,-1.5495,-1.4782,-1.5174,-1.5331,-1.5179,-1.4541,-1.3889,-1.3245,-1.271,-1.1799,-1.0406,-1.1653,0.0,0.0,0.0,0.0,0.0,0.0,0.0,0.0,0.0,-1.3472,-1.3751,0.0,-1.3268,0.0,-1.532,-1.5564,-1.4617,-1.5136,0.0,0.0,-1.6531,-1.7068,-1.767,-1.8044,-1.8246,-1.8273,-1.8581,-1.8761,-1.8697,-1.8798,-1.878,-1.8539,-1.8563,-1.8612,-1.8517,-1.8584,-1.8641,-1.8595,-1.8408,-1.8382,-1.8497,-1.7967,-1.7746,-1.8359,-1.8024,-1.7803,-1.836,-1.8465,-1.8449,-1.8428,-1.8424,-1.8412,-1.8385,-1.8465,-1.8257,-1.7673,-1.7515,-1.7432,-1.7088,-1.6756,-1.6396,-2.2002,-2.1487,-2.0702,-2.0465,-2.0578,-1.9826,-1.9302,-1.8973,-1.8866,-1.8357,-1.7602,-1.7509,-1.7268,-1.6928,-1.7047,-1.7357,-1.7776,-1.791,-1.8167,-1.8526,-1.8565,-1.8566,-1.8575,-1.8658,-1.8659,-1.8669,-1.8697,-1.8697,-1.866,-1.8306,-1.811,-1.811,-1.7805,-1.7666,-1.7608,-1.645,-1.5919,-1.6004,-1.5615,-1.5387,-1.5426,-1.6233,-1.6392,-1.5842,-1.6143,-1.626,-1.6124,-1.5645,-1.5215,-1.4813,-1.4389,-1.3756,-1.2839,-1.2971,-1.2924,0.0,0.0,0.0,0.0,0.0,0.0,0.0,0.0,0.0,0.0,0.0,-1.4489,-1.4959,-1.6396,-1.7016,-1.633,-1.676,-1.7202,-1.7603,-1.779,-1.8088,-1.8541,-1.8661,-1.8735,-1.8816,-1.8913,-1.8983,-1.8956,-1.8999,-1.9058,-1.9126,-1.9061,-1.894,-1.8843,-1.8896,-1.8905,-1.8896,-1.8852,-1.8861,-1.8869,-1.8623,-1.8485,-1.8743,-1.8544,-1.8435,-1.8789,-1.8852,-1.8851,-1.8858,-1.8831,-1.8798,-1.88,-1.8827,-1.8679,-1.8324,-1.8258,-1.8021,-1.7259,-1.7101,-1.6983,-2.2686,-2.2605,-2.1812,-2.1864,-2.2261,-1.99,-1.8935,-1.9009,-1.8832,-1.8684,-1.854,-1.8362,-1.829,-1.831,-1.848,-1.8584,-1.8656,-1.877,-1.8834,-1.8851,-1.8834,-1.8834,-1.8842,-1.8975,-1.8983,-1.8948,-1.8992,-1.8983,-1.8921,-1.8992,-1.9018,-1.9018,-1.9065,-1.9168,-1.9162,-1.7866,-1.7091,-1.6925,-1.7083,-1.7086,-1.6946,-1.7141,-1.7142,-1.6912,-1.6902,-1.6874,-1.6745,-1.6461,-1.6247,-1.6201,-1.5889,-1.5735,-1.5745,-1.4044,-1.3957,0.0,-1.5155,0.0,0.0,0.0,0.0,0.0,0.0,0.0,0.0,-1.6282,-1.594,-1.5856,-1.7357,-1.8035,-1.7307,-1.8051,-1.8565,-1.8651,-1.8807,-1.8914,-1.8921,-1.8948,-1.8999,-1.9099,-1.9132,-1.9187,-1.9283,-1.928,-1.927,-1.9329,-1.9289,-1.9246,-1.9171,-1.9159,-1.9146,-1.9137,-1.9093,-1.9101,-1.9143,-1.928,-1.9335,-1.932,-1.9274,-1.9381,-1.928,-1.928,-1.9303,-1.9288,-1.9234,-1.918,-1.9158,-1.9127,-1.9068,-1.8821,-1.888,-1.8688,-1.7924,-1.7675,-1.7577,-2.3557,-2.3476,-2.2747,-2.255,-2.2633,-2.1571,-2.0961,-2.0656,-1.9909,-1.9248,-1.8744,-1.8698,-1.8717,-1.8771,-1.8806,-1.8824,-1.8852,-1.8922,-1.8993,-1.9036,-1.9053,-1.9069,-1.9119,-1.9101,-1.9106,-1.9137,-1.9168,-1.9152,-1.9152,-1.9143,-1.9135,-1.9082,-1.9186,-1.9282,-1.9365,0.0,0.0,0.0,-1.7774,-1.7829,-1.7218,-1.8414,-1.8707,-1.796,-1.8432,0.0,-1.8672,-1.845,-1.8348,-1.8366,-1.7739,0.0,0.0,0.0,0.0,0.0,0.0,0.0,0.0,0.0,0.0,0.0,-1.8223,-1.7673,-1.6402,-1.6679,-1.7006,-1.7152,-1.7999,-1.8541,-1.8537,-1.8699,-1.8852,-1.8914,-1.9002,-1.9052,-1.9057,-1.9159,-1.9209,-1.9184,-1.9277,-1.935,-1.9396,-1.947,-1.9518,-1.9536,-1.9581,-1.9568,-1.9509,-1.9413,-1.9351,-1.9353,-1.9356,-1.9405,-1.9422,-1.9452,-1.9471,-1.9404,-1.9398,-1.9398,-1.9396,-1.939,-1.9384,-1.9393,-1.9375,-1.9354,-1.9346,-1.9337,-1.9158,-1.8503,-1.8831,-1.9134,-1.8784,-1.8687,-1.8541,-2.3967,-2.3894,-2.3159,-2.3087,0.0,-2.2245,-2.1906,-2.2054,-2.0735,-1.9903,-1.9524,-1.9074,-1.9155,-1.956,-1.9209,-1.9028,-1.8998,-1.9134,-1.92,-1.9216,-1.928,-1.9326,-1.9357,-1.9353,-1.9359,-1.9392,-1.9402,-1.9402,-1.9392,-1.944,-1.944,-1.9416,-1.9507,-1.9546,-1.9546,-1.9719,-1.9375,-1.849,-1.8913,-1.8922,-1.854,-1.9247,-1.9423,-1.896,-1.9239,0.0,0.0,0.0,0.0,0.0,0.0,0.0,0.0,-1.8149,0.0,-1.8496,-1.8449,-1.8556,-1.8917,-1.898,-1.8818,-1.8423,-1.8395,-1.8141,-1.7515,-1.7834,-1.8075,-1.8182,-1.8538,-1.8807,-1.8983,-1.9026,-1.9093,-1.9193,-1.9223,-1.927,-1.9299,-1.9359,-1.9394,-1.9456,-1.9499,-1.9564,-1.9591,-1.9613,-1.9666,-1.971,-1.9701,-1.972,-1.9726,-1.9604,-1.9495,-1.9457,-1.9546,-1.9573,-1.9532,-1.9587,-1.9604,-1.9532,-1.9523,-1.9546,-1.955,-1.955,-1.9546,-1.9549,-1.9522,-1.9509,-1.9546,-1.9512,-1.9388,-1.9068,-1.924,-1.9462,-1.9353,-1.9268,-1.9104,-2.4209,-2.4098,-2.3511,-2.3649,-2.4127,-2.2819,-2.2596,-2.2992,-2.144,0.0,0.0,-1.9758,-1.9914,-2.0541,-1.9979,-1.9687,-1.9623,-1.965,-1.9625,-1.9577,-1.9559,-1.9546,-1.9541,-1.9605,-1.9647,-1.9638,-1.9637,-1.9623,-1.9645,-1.969,-1.9712,-1.9728,-1.9778,-1.9804,-1.9751,-1.9863,-1.9898,-1.9896,-1.9898,-1.9873,-1.9807,-1.9745,-1.9713,-1.9713,-1.9656,-1.9615,-1.9619,-1.962,-1.9592,-1.9527,-1.9541,-1.955,-1.9532,-1.89,-1.8835,-1.9444,-1.8873,-1.8763,-1.9377,-1.9409,-1.9108,-1.8444,-1.8309,-1.8444,-1.893,-1.8957,-1.8974,-1.8993,-1.8991,-1.9057,-1.9171,-1.9221,-1.9301,-1.9426,-1.9433,-1.9467,-1.9532,-1.9564,-1.9599,-1.9695,-1.972,-1.9738,-1.9809,-1.9783,-1.9781,-1.9839,-1.9811,-1.9807,-1.9873,-1.9783,-1.966,-1.9634,-1.971,-1.9719,-1.963,-1.971,-1.9776,-1.9681,-1.9679,-1.9713,-1.9725,-1.9722,-1.9711,-1.9718,-1.9647,-1.9645,-1.9691,-1.9662,-1.9589,-1.9513,-1.9606,-1.9597,-1.9341,-1.9263,-1.9252,-2.4366,-2.4364,-2.4234,-2.4271,-2.4364,-2.4116,-2.3709,-2.3123,-2.2185,-2.1362,-2.068,-2.13,-2.164,-2.1761,-2.1708,-2.1643,-2.1563,-2.096,-2.069,-2.0644,-1.9986,-1.9699,-1.9751,-1.977,-1.9763,-1.9773,-1.9773,-1.9763,-1.9773,-1.9785,-1.9794,-1.9794,-1.9845,-1.9908,-1.9959,-1.9978,-1.9959,-1.9893,-1.9892,-1.987,-1.9817,-1.9735,-1.9713,-1.9713,-1.969,-1.969,-1.9669,-1.9688,-1.9688,-1.9679,-1.9719,-1.976,-1.976,-1.9524,-1.9479,-1.9643,-1.9397,-1.9336,-1.9476,-1.9442,-1.9363,-1.9247,-1.921,-1.9206,-1.9234,-1.9252,-1.9249,-1.932,-1.9374,-1.9433,-1.9439,-1.9453,-1.949,-1.9549,-1.9563,-1.963,-1.9738,-1.976,-1.9766,-1.9807,-1.9832,-1.9866,-1.9907,-1.9967,-2.0038,-2.0049,-2.0011,-2.005,-2.004,-1.9988,-1.9941,-1.994,-1.994,-1.9919,-1.9844,-1.9856,-1.9866,-1.9852,-1.9809,-1.9766,-1.9804,-1.9757,-1.9738,-1.978,-1.9731,-1.9697,-1.9725,-1.9725,-1.9354,-1.8901,-1.9139,-1.9254,-1.8214,-1.8328,-1.8865,-2.5157,-2.5117,-2.4733,-2.4561,-2.4571,-2.4549,-2.4084,-2.3403,-2.3487,-2.2992,-2.2136,-2.2064,-2.2318,-2.2697,-2.2297,-2.2111,-2.2086,-2.1279,-2.0927,-2.089,-2.012,-1.9779,-1.9804,-1.984,-1.9842,-1.9849,-1.9852,-1.9844,-1.9866,-1.9866,-1.9856,-1.9851,-1.9922,-1.998,-2.004,-2.005,-2.0279,-2.0699,-2.0206,-1.9922,-1.9866,-1.9858,-1.9849,-1.9868,-1.9833,-1.9833,-1.9863,-1.9873,-1.9863,-1.9863,-1.9903,-1.9913,-1.9903,-1.9849,-1.983,-1.986,-1.9744,-1.9701,-1.9723,-1.9688,-1.9653,-1.9617,-1.964,-1.964,-1.9587,-1.9462,-1.9443,-1.9504,-1.9564,-1.9637,-1.9649,-1.9662,-1.9688,-1.976,-1.9754,-1.98,-1.9887,-1.9902,-1.9905,-1.9958,-1.9989,-2.0,-2.002,-2.0059,-2.0117,-2.0117,-2.0116,-2.0161,-2.0161,-2.0162,-2.0127,-2.002,-1.9999,-1.9988,-1.9966,-1.9955,-1.9954,-1.996,-1.9898,-1.9856,-1.9866,-1.983,-1.9835,-1.9848,-1.9791,-1.9585,-1.9303,-1.9134,-1.873,-1.8149,-1.8569,-1.8653,-1.8298,-1.8414,-1.8562,-2.6126,-2.6083,-2.533,-2.492,-2.4747,-2.4748,-2.4379,-2.3887,-2.4524,-2.436,-2.3581,-2.2957,-2.3072,-2.3583,-2.2993,-2.2736,-2.2675,-2.1918,-2.1574,-2.1514,-2.0772,-2.0389,-2.041,-2.0462,-2.0493,-2.0491,-2.0486,-2.0405,-2.0246,-2.024,-2.0126,-2.0033,-2.0393,-2.0564,-2.0401,-2.0601,-2.1024,-2.1608,-2.1005,-2.0506,-2.0227,-2.0276,-2.0238,-2.0028,-1.9979,-1.9959,-2.0016,-2.0005,-2.0005,-2.0016,-2.0016,-2.0026,-2.0015,-2.0005,-2.0008,-2.0039,-2.0008,-1.9955,-1.9946,-1.9955,-1.9913,-1.9847,-1.9909,-1.9911,-1.9847,-1.9726,-1.965,-1.9662,-1.9719,-1.9788,-1.9837,-1.9837,-1.9861,-1.9921,-1.993,-1.9934,-2.0015,-2.0037,-2.0039,-2.0098,-2.0107,-2.0108,-2.0117,-2.0126,-2.0136,-2.0164,-2.0197,-2.0219,-2.0215,-2.0267,-2.022,-2.0125,-2.006,-2.0041,-2.005,-2.0059,-2.0049,-2.0048,-1.9988,-1.9967,-1.9977,-1.9974,-1.9951,-1.994,-1.9909,-1.9703,-1.9118,-1.8993,-1.868,-1.8104,-1.857,-1.8903,-1.8401,-1.8127,-1.8336,-2.7147,-2.7112,-2.6321,-2.5541,-2.4969,-2.4923,-2.4831,-2.4713,-2.485,-2.479,-2.4529,-2.4476,-2.4463,-2.4576,-2.4515,-2.4473,-2.442,-2.377,-2.3394,-2.3287,-2.2555,-2.2193,-2.2154,-2.2201,-2.2246,-2.2201,-2.2251,-2.1827,-2.12,-2.1223,-2.0869,-2.0368,-2.1723,-2.208,-2.1528,-2.2109,-2.2543,-2.2583,-2.2572,-2.2105,-2.1225,-2.1244,-2.09,-2.0098,-2.0098,-2.0069,-2.0194,-2.0021,-2.003,-2.0089,-2.0127,-2.0098,-2.0078,-2.004,-2.0079,-2.0203,-2.0202,-2.0145,-2.0117,-2.0078,-2.0126,-1.999,-2.0135,-2.0155,-2.0067,-2.0059,-1.999,-1.9989,-1.9977,-1.9973,-1.9996,-1.9986,-1.9988,-1.999,-2.0001,-2.002,-2.0069,-2.0097,-2.0079,-2.0108,-2.0126,-2.0117,-2.0181,-2.0189,-2.0217,-2.0262,-2.0273,-2.0275,-2.0277,-2.0306,-2.0311,-2.0262,-2.0227,-2.0184,-2.0167,-2.0185,-2.0178,-2.0168,-2.0115,-2.0097,-2.0126,-2.0107,-2.006,-2.0039,-2.0068,-1.9964,-1.9821,-1.9878,-1.9468,-1.8631,-1.8849,-1.9381,-1.8032,-1.7338,-1.7566,-2.8124,-2.8082,-2.7315,-2.6824,-2.6517,-2.6087,-2.5853,-2.5722,-2.5167,-2.4942,-2.493,-2.4898,-2.4832,-2.4749,-2.4794,-2.4856,-2.4921,-2.4084,-2.3753,-2.3738,-2.2957,-2.2588,-2.26,-2.2609,-2.2607,-2.262,-2.2638,-2.2469,-2.2192,-2.2163,-2.1742,-2.1139,-2.2199,-2.2384,-2.1685,-2.2418,-2.3091,-2.3572,-2.3612,-2.3422,-2.302,-2.2539,-2.2117,-2.18,-2.1745,-2.1746,-2.1633,-2.1194,-2.0889,-2.0936,-2.0927,-2.0688,-2.0192,-2.0728,-2.1042,-2.1061,-2.1517,-2.1766,-2.1703,-2.1683,-2.1676,-2.1598,-2.1654,-2.1673,-2.1588,-2.1302,-2.1225,-2.1436,-2.0719,-2.0117,-2.0146,-2.0126,-2.0107,-2.0126,-2.0126,-2.0144,-2.0153,-2.0162,-2.018,-2.0216,-2.0226,-2.0253,-2.0251,-2.0249,-2.0265,-2.0294,-2.0313,-2.0385,-2.0331,-2.0331,-2.0343,-2.0304,-2.0308,-2.0317,-2.0275,-2.0248,-2.0255,-2.0258,-2.0235,-2.0219,-2.0193,-2.0186,-2.0152,-2.0117,-2.0126,-1.9887,-1.9316,-1.9325,-1.9116,-1.8677,-1.8817,-1.9228,-1.9148,-1.8495,-1.8745,-2.9086,-2.9007,-2.83,-2.7771,-2.7364,-2.6835,-2.64,-2.6006,-2.5376,-2.5084,-2.5087,-2.506,-2.5,-2.493,-2.4912,-2.4999,-2.5003,-2.4412,-2.4161,-2.4184,-2.3638,-2.3371,-2.34,-2.3391,-2.338,-2.3388,-2.3439,-2.3313,-2.3146,-2.3081,-2.2669,-2.2139,-2.2962,-2.3102,-2.2485,-2.3163,-2.3895,-2.4494,-2.4542,-2.4532,-2.4453,-2.3937,-2.3393,-2.296,-2.2888,-2.289,-2.2825,-2.1995,-2.1536,-2.1544,-2.1564,-2.128,-2.0708,-2.1133,-2.1806,-2.261,-2.2815,-2.2905,-2.2865,-2.2856,-2.2815,-2.2771,-2.2817,-2.2809,-2.2673,-2.2225,-2.2118,-2.2389,-2.1752,-2.1246,-2.0919,-2.0929,-2.0937,-2.0938,-2.0938,-2.0937,-2.0983,-2.0945,-2.1022,-2.101,-2.1172,-2.1009,-2.1014,-2.1087,-2.1176,-2.1172,-2.1111,-2.103,-2.103,-2.1136,-2.1091,-2.0737,-2.0739,-2.0617,-2.0418,-2.0321,-2.0325,-2.0328,-2.0331,-2.0308,-2.0268,-2.026,-2.0255,-2.024,-2.0209,-2.0109,-1.9767,-1.9423,-1.9206,-1.867,-1.8733,-1.9225,-1.9463,-1.9248,-1.9265,-3.008,-2.9987,-2.9325,-2.813,-2.6679,-2.6621,-2.611,-2.5433,-2.5281,-2.522,-2.5147,-2.516,-2.52,-2.5166,-2.5166,-2.5155,-2.5096,-2.5064,-2.5068,-2.5078,-2.5011,-2.5058,-2.5087,-2.5087,-2.5039,-2.4897,-2.4937,-2.4703,-2.4138,-2.4064,-2.3641,-2.2966,-2.4371,-2.4812,-2.4155,-2.4706,-2.5294,-2.5319,-2.5302,-2.5331,-2.5395,-2.5345,-2.4519,-2.3214,-2.2939,-2.3049,-2.2969,-2.2136,-2.1675,-2.1735,-2.181,-2.1727,-2.1584,-2.0998,-2.2109,-2.4767,-2.3922,-2.3052,-2.3106,-2.3154,-2.3104,-2.3018,-2.3162,-2.3027,-2.3129,-2.2694,-2.2462,-2.2243,-2.3194,-2.3333,-2.2806,-2.2528,-2.2547,-2.2586,-2.2685,-2.2649,-2.2699,-2.2506,-2.274,-2.267,-2.2554,-2.2492,-2.2646,-2.2837,-2.2688,-2.2685,-2.2788,-2.272,-2.26,-2.2716,-2.2381,-2.1844,-2.1553,-2.1349,-2.0621,-2.0378,-2.038,-2.0399,-2.0402,-2.0398,-2.0395,-2.0375,-2.0373,-2.0365,-2.0344,-2.031,-2.0255,-2.0185,-2.0065,-1.9692,-1.9231,-1.9458,-1.9694,-1.9254,-1.93,-3.003,-2.9609,-2.9352,-2.854,-2.7479,-2.6947,-2.6503,-2.6111,-2.5543,-2.5322,-2.535,-2.5331,-2.535,-2.5387,-2.5393,-2.5331,-2.5243,-2.5244,-2.5293,-2.5322,-2.5331,-2.535,-2.5395,-2.5396,-2.5396,-2.5404,-2.5422,-2.5303,-2.507,-2.5012,-2.4551,-2.4022,-2.4888,-2.5039,-2.4496,-2.5045,-2.5472,-2.5482,-2.5478,-2.5464,-2.5498,-2.5535,-2.5237,-2.4678,-2.4594,-2.4603,-2.4649,-2.3764,-2.3289,-2.3364,-2.337,-2.3102,-2.2621,-2.2814,-2.3727,-2.5364,-2.5083,-2.4742,-2.4717,-2.4736,-2.4732,-2.4695,-2.4676,-2.4603,-2.4592,-2.4418,-2.4303,-2.4407,-2.4676,-2.4871,-2.4519,-2.3671,-2.2961,-2.2961,-2.298,-2.3029,-2.2965,-2.2974,-2.2974,-2.2974,-2.2974,-2.2971,-2.3087,-2.3005,-2.3009,-2.3009,-2.3023,-2.3065,-2.3023,-2.3019,-2.2941,-2.2553,-2.21,-2.1639,-2.1357,-2.0701,-2.042,-2.0449,-2.0459,-2.0468,-2.0464,-2.0449,-2.0444,-2.04,-2.0394,-2.0375,-2.0311,-2.0287,-2.0292,-2.0209,-1.9786,-1.9716,-1.9868,-1.9656,-1.9706,-3.0153,-2.9716,-2.944,-2.8819,-2.7979,-2.7152,-2.6621,-2.6296,-2.5658,-2.5424,-2.5481,-2.5449,-2.5459,-2.55,-2.5511,-2.5456,-2.5367,-2.5377,-2.5385,-2.5427,-2.5427,-2.5463,-2.5497,-2.5509,-2.5509,-2.5507,-2.5519,-2.5511,-2.5517,-2.5509,-2.5199,-2.4696,-2.5226,-2.5234,-2.4815,-2.5219,-2.551,-2.551,-2.5511,-2.5506,-2.5534,-2.5582,-2.5607,-2.5587,-2.556,-2.5554,-2.5572,-2.4719,-2.4244,-2.4295,-2.4291,-2.4151,-2.3932,-2.446,-2.5069,-2.5601,-2.5681,-2.5701,-2.5694,-2.57,-2.5683,-2.57,-2.5648,-2.5623,-2.5609,-2.5581,-2.5579,-2.5625,-2.5665,-2.5697,-2.548,-2.4573,-2.3885,-2.3868,-2.3874,-2.3868,-2.3844,-2.3854,-2.3884,-2.3937,-2.3961,-2.3903,-2.3859,-2.3879,-2.3911,-2.3861,-2.3869,-2.3869,-2.3832,-2.3824,-2.3528,-2.312,-2.26,-2.1942,-2.1344,-2.0649,-2.0452,-2.0481,-2.0487,-2.0502,-2.0506,-2.0511,-2.0491,-2.0443,-2.041,-2.0389,-2.0371,-2.0334,-2.0334,-2.033,-2.0236,-2.0098,-2.0185,-2.0233,-2.0159,-3.0525,-3.0358,-2.9734,-2.8844,-2.7935,-2.7139,-2.6353,-2.5737,-2.5557,-2.5493,-2.5515,-2.5496,-2.5499,-2.5518,-2.5515,-2.5502,-2.5505,-2.5485,-2.549,-2.5505,-2.5505,-2.5507,-2.5509,-2.5515,-2.5515,-2.5509,-2.5511,-2.5515,-2.5514,-2.551,-2.5452,-2.5466,-2.5444,-2.5463,-2.546,-2.5476,-2.5512,-2.5511,-2.5511,-2.5543,-2.5575,-2.5609,-2.5614,-2.5604,-2.5589,-2.5609,-2.5596,-2.4817,-2.4423,-2.4394,-2.4389,-2.4734,-2.5294,-2.5535,-2.5662,-2.5668,-2.5696,-2.5695,-2.5697,-2.5696,-2.5697,-2.5694,-2.5697,-2.5657,-2.5634,-2.5655,-2.5675,-2.5685,-2.5695,-2.5692,-2.57,-2.5519,-2.542,-2.5626,-2.5382,-2.5363,-2.5414,-2.5519,-2.5559,-2.5418,-2.5325,-2.5564,-2.559,-2.5357,-2.5245,-2.5318,-2.5356,-2.5313,-2.5201,-2.5177,-2.4748,-2.3655,-2.2948,-2.2403,-2.1413,-2.0507,-2.051,-2.0513,-2.0502,-2.0508,-2.0505,-2.0509,-2.0506,-2.0474,-2.0465,-2.0453,-2.0415,-2.0388,-2.0361,-2.0365,-2.0363,-2.036,-2.0344,-2.0318,-2.0314,-3.0328,-2.9845,-2.9594,-2.8611,-2.7322,-2.6967,-2.6384,-2.5628,-2.5571,-2.557,-2.5576,-2.5571,-2.5564,-2.5568,-2.5568,-2.5572,-2.557,-2.5564,-2.5541,-2.5511,-2.5514,-2.5524,-2.555,-2.5531,-2.5514,-2.5517,-2.5517,-2.5514,-2.5531,-2.555,-2.5514,-2.5514,-2.5525,-2.5528,-2.556,-2.5574,-2.5571,-2.5561,-2.5561,-2.559,-2.5609,-2.5653,-2.5668,-2.5668,-2.5668,-2.5677,-2.5648,-2.5362,-2.5226,-2.5235,-2.5254,-2.5399,-2.5621,-2.5687,-2.5697,-2.5696,-2.5697,-2.5698,-2.57,-2.5701,-2.5692,-2.5692,-2.5693,-2.5692,-2.5671,-2.5679,-2.5701,-2.5696,-2.5698,-2.5693,-2.5692,-2.5694,-2.5698,-2.5697,-2.5701,-2.5693,-2.5675,-2.5672,-2.566,-2.5676,-2.5671,-2.5679,-2.5691,-2.5671,-2.5678,-2.5691,-2.5668,-2.5642,-2.5665,-2.5658,-2.5311,-2.4224,-2.3588,-2.2734,-2.1713,-2.0853,-2.0552,-2.0543,-2.0535,-2.0529,-2.0522,-2.0522,-2.0518,-2.0518,-2.0513,-2.0499,-2.0466,-2.0439,-2.042,-2.0395,-2.04,-2.0384,-2.0361,-2.0359,-2.0347,-3.0247,-2.9489,-2.9186,-2.8236,-2.6898,-2.6615,-2.6161,-2.5677,-2.5638,-2.5649,-2.5638,-2.561,-2.56,-2.561,-2.5605,-2.5609,-2.5609,-2.5604,-2.5583,-2.5537,-2.5531,-2.5541,-2.5557,-2.5557,-2.5751,-2.5991,-2.602,-2.601,-2.6049,-2.6317,-2.6201,-2.5674,-2.5848,-2.5856,-2.5643,-2.56,-2.5605,-2.56,-2.5599,-2.5607,-2.5607,-2.5636,-2.5671,-2.5696,-2.5701,-2.5693,-2.5697,-2.5668,-2.5655,-2.5694,-2.5694,-2.57,-2.5694,-2.5693,-2.5693,-2.5693,-2.5693,-2.5693,-2.5693,-2.5692,-2.5692,-2.5701,-2.5701,-2.5702,-2.5692,-2.5702,-2.5693,-2.5693,-2.5693,-2.5698,-2.5696,-2.5693,-2.5696,-2.5693,-2.5693,-2.5693,-2.5693,-2.5693,-2.5693,-2.5693,-2.5692,-2.5692,-2.5692,-2.5702,-2.5698,-2.5696,-2.5666,-2.5644,-2.5701,-2.5695,-2.5181,-2.453,-2.3657,-2.2803,-2.1961,-2.1266,-2.0669,-2.0576,-2.0558,-2.0557,-2.0557,-2.0552,-2.0552,-2.0555,-2.0548,-2.0531,-2.0494,-2.0477,-2.046,-2.0449,-2.0443,-2.0439,-2.0425,-2.0404,-2.0394,-3.0317,-2.9508,-2.8784,-2.8011,-2.703,-2.6347,-2.5954,-2.5697,-2.5697,-2.5697,-2.5679,-2.5636,-2.5609,-2.5604,-2.561,-2.56,-2.56,-2.56,-2.5707,-2.5751,-2.5774,-2.578,-2.5751,-2.5947,-2.6386,-2.6893,-2.6961,-2.6971,-2.7,-2.7575,-2.7356,-2.5979,-2.6427,-2.6442,-2.5771,-2.5615,-2.5604,-2.5618,-2.5613,-2.5613,-2.5613,-2.5609,-2.5636,-2.5697,-2.5703,-2.5697,-2.5699,-2.5688,-2.5689,-2.5693,-2.5698,-2.57,-2.5697,-2.5693,-2.5696,-2.5697,-2.5701,-2.5693,-2.5699,-2.5701,-2.5701,-2.5701,-2.5701,-2.5697,-2.5701,-2.5702,-2.5693,-2.5694,-2.5701,-2.5699,-2.5701,-2.5699,-2.5702,-2.57,-2.5698,-2.5697,-2.57,-2.5696,-2.5696,-2.5699,-2.5698,-2.5697,-2.5699,-2.5701,-2.5702,-2.5701,-2.5702,-2.5693,-2.5693,-2.5595,-2.5254,-2.4579,-2.3787,-2.317,-2.2439,-2.206,-2.1533,-2.1523,-2.1316,-2.1057,-2.0753,-2.0643,-2.0581,-2.0572,-2.0707,-2.0654,-2.0621,-2.0672,-2.0586,-2.0516,-2.0516,-2.0513,-2.0488,-2.0458,-2.0434,-3.0667,-3.0433,-3.0229,-2.9283,-2.8018,-2.767,-2.6822,-2.5782,-2.5694,-2.5701,-2.5697,-2.5684,-2.5675,-2.5664,-2.5664,-2.5654,-2.5631,-2.5644,-2.5997,-2.65,-2.6569,-2.6559,-2.67,-2.7196,-2.7585,-2.7853,-2.7873,-2.7853,-2.7882,-2.8198,-2.7673,-2.6602,-2.6801,-2.6541,-2.5802,-2.57,-2.5687,-2.5679,-2.5668,-2.5662,-2.5668,-2.5664,-2.5681,-2.5689,-2.5699,-2.5697,-2.5693,-2.57,-2.5701,-2.5693,-2.5702,-2.5697,-2.57,-2.5694,-2.5693,-2.57,-2.5698,-2.5697,-2.5693,-2.5695,-2.5697,-2.5697,-2.5697,-2.5697,-2.5697,-2.5697,-2.5697,-2.5697,-2.5697,-2.5701,-2.5696,-2.5699,-2.57,-2.57,-2.5698,-2.5696,-2.5694,-2.5701,-2.5699,-2.5701,-2.5697,-2.5695,-2.5697,-2.5701,-2.5693,-2.5693,-2.5693,-2.5693,-2.5697,-2.5671,-2.5418,-2.4801,-2.4108,-2.3592,-2.3094,-2.2759,-2.2552,-2.2611,-2.2343,-2.1883,-2.1354,-2.0796,-2.0686,-2.0597,-2.1034,-2.1116,-2.1077,-2.1076,-2.0894,-2.078,-2.0879,-2.0977,-2.0636,-2.0486,-2.049,-3.0589,-3.0222,-2.9884,-2.8973,-2.7771,-2.7358,-2.6627,-2.5837,-2.5697,-2.57,-2.5698,-2.5696,-2.57,-2.5694,-2.5694,-2.5671,-2.5678,-2.6029,-2.6477,-2.6968,-2.7709,-2.7806,-2.769,-2.8053,-2.8415,-2.8752,-2.8774,-2.8765,-2.8846,-2.909,-2.8612,-2.7696,-2.7488,-2.7046,-2.6303,-2.5852,-2.5697,-2.5691,-2.5696,-2.5697,-2.5698,-2.5703,-2.5701,-2.5698,-2.5701,-2.5693,-2.5694,-2.5699,-2.5693,-2.5698,-2.5693,-2.5697,-2.5697,-2.5693,-2.5696,-2.5694,-2.5696,-2.5701,-2.5693,-2.5695,-2.5697,-2.5697,-2.5697,-2.5697,-2.5697,-2.5697,-2.5697,-2.5697,-2.5699,-2.5693,-2.5696,-2.5698,-2.5698,-2.5697,-2.5698,-2.5698,-2.5694,-2.5693,-2.5701,-2.5697,-2.5701,-2.5698,-2.5693,-2.5693,-2.5695,-2.5697,-2.5699,-2.5699,-2.5699,-2.5675,-2.5587,-2.5065,-2.4575,-2.4092,-2.3703,-2.3378,-2.3173,-2.3252,-2.3263,-2.2802,-2.2333,-2.158,-2.1531,-2.1587,-2.1622,-2.1639,-2.1707,-2.1668,-2.145,-2.1403,-2.1467,-2.1167,-2.073,-2.0526,-2.0522,-3.0217,-2.9442,-2.8755,-2.7884,-2.702,-2.6317,-2.6093,-2.5722,-2.5696,-2.5698,-2.5701,-2.5701,-2.5818,-2.5827,-2.5998,-2.5888,-2.593,-2.6769,-2.7193,-2.7862,-2.874,-2.9249,-2.8713,-2.8801,-2.9167,-2.9581,-2.9701,-2.9688,-2.9789,-3.0367,-2.9867,-2.8717,-2.8332,-2.7791,-2.6857,-2.6124,-2.574,-2.5698,-2.5693,-2.5699,-2.5697,-2.5697,-2.5699,-2.5692,-2.5693,-2.5699,-2.5697,-2.5693,-2.5697,-2.5697,-2.5697,-2.5697,-2.5695,-2.5698,-2.5696,-2.5701,-2.5698,-2.5698,-2.5695,-2.5695,-2.5697,-2.5697,-2.5697,-2.5697,-2.5697,-2.5697,-2.5695,-2.5695,-2.5701,-2.5701,-2.5701,-2.5696,-2.5696,-2.5701,-2.5694,-2.5697,-2.5698,-2.5696,-2.5693,-2.5699,-2.5693,-2.5693,-2.5693,-2.5693,-2.5701,-2.5701,-2.5695,-2.5699,-2.5699,-2.5691,-2.5687,-2.5562,-2.5093,-2.4637,-2.4298,-2.3985,-2.3833,-2.3778,-2.3923,-2.3735,-2.3594,-2.3125,-2.2978,-2.285,-2.2458,-2.2426,-2.2639,-2.2481,-2.2158,-2.1735,-2.1593,-2.1089,-2.0597,-2.0563,-2.0554,-2.9695,-2.9557,-2.9384,-2.8416,-2.7215,-2.7491,-2.6937,-2.5718,-2.5698,-2.572,-2.5715,-2.5715,-2.6107,-2.6693,-2.6681,-2.672,-2.6712,-2.7518,-2.8341,-2.9184,-3.0072,-3.0509,-3.027,-3.0222,-3.0386,-3.054,-3.0577,-3.0559,-3.0619,-3.0584,-3.0361,-2.9372,-2.8531,-2.7868,-2.6992,-2.6162,-2.5693,-2.5693,-2.5693,-2.5693,-2.5701,-2.5692,-2.5702,-2.5698,-2.5693,-2.5697,-2.5701,-2.5701,-2.5701,-2.5701,-2.5695,-2.5697,-2.5695,-2.5693,-2.5701,-2.5698,-2.5693,-2.5693,-2.5693,-2.5695,-2.5697,-2.5697,-2.5697,-2.5697,-2.5697,-2.5693,-2.5701,-2.5698,-2.5698,-2.5701,-2.5697,-2.5696,-2.5694,-2.5693,-2.5701,-2.5701,-2.5696,-2.5693,-2.5697,-2.5697,-2.5693,-2.5698,-2.5701,-2.5701,-2.5698,-2.5696,-2.5701,-2.5699,-2.5699,-2.5699,-2.5693,-2.5693,-2.5517,-2.5101,-2.4993,-2.4742,-2.4624,-2.4489,-2.4557,-2.4608,-2.4471,-2.4179,-2.3847,-2.3457,-2.3037,-2.3202,-2.3619,-2.3178,-2.2836,-2.2286,-2.1754,-2.1302,-2.0964,-2.0806,-2.0558,-2.9757,-3.0072,-2.934,-2.8452,-2.7701,-2.764,-2.693,-2.5869,-2.5693,-2.5939,-2.6244,-2.6304,-2.6579,-2.7023,-2.7355,-2.7238,-2.682,-2.7761,-2.8992,-2.9995,-3.0712,-3.0881,-3.0917,-3.0916,-3.0914,-3.0891,-3.0857,-3.083,-3.081,-3.0741,-3.042,-2.958,-2.8721,-2.786,-2.6997,-2.6139,-2.5736,-2.5693,-2.5696,-2.5696,-2.5701,-2.5693,-2.5693,-2.5697,-2.5693,-2.5701,-2.5696,-2.5698,-2.5698,-2.5696,-2.5698,-2.5701,-2.5698,-2.5696,-2.5693,-2.5698,-2.5693,-2.5698,-2.5701,-2.5695,-2.5697,-2.5697,-2.5697,-2.5697,-2.5697,-2.5695,-2.5701,-2.5696,-2.5703,-2.57,-2.5701,-2.5699,-2.5697,-2.5693,-2.5696,-2.5693,-2.57,-2.5693,-2.5698,-2.5698,-2.5696,-2.5696,-2.5696,-2.5696,-2.5696,-2.5696,-2.5693,-2.5701,-2.5697,-2.5697,-2.5693,-2.5696,-2.5693,-2.5605,-2.5602,-2.551,-2.5441,-2.5328,-2.5278,-2.5302,-2.524,-2.4879,-2.4486,-2.4225,-2.4071,-2.4365,-2.4619,-2.4081,-2.3564,-2.3263,-2.2732,-2.1948,-2.13,-2.0991,-2.0704,-2.9938,-3.0485,-2.8954,-2.8215,-2.7998,-2.731,-2.6534,-2.5789,-2.5855,-2.6228,-2.6726,-2.6901,-2.7004,-2.7359,-2.7925,-2.7388,-2.7108,-2.7519,-2.9082,-3.0302,-3.0475,-3.0693,-3.0796,-3.0886,-3.0879,-3.0879,-3.083,-3.0788,-3.0765,-3.062,-3.0172,-2.9477,-2.8501,-2.7687,-2.6932,-2.6179,-2.5695,-2.5695,-2.5703,-2.5693,-2.5693,-2.5697,-2.5695,-2.5701,-2.5698,-2.5698,-2.5693,-2.5693,-2.5696,-2.57,-2.57,-2.57,-2.5694,-2.5694,-2.5701,-2.5698,-2.5697,-2.57,-2.5701,-2.5695,-2.5695,-2.5697,-2.5697,-2.5697,-2.5695,-2.5693,-2.5701,-2.5693,-2.5694,-2.5701,-2.57,-2.5696,-2.5701,-2.5686,-2.5693,-2.5693,-2.5687,-2.5691,-2.5694,-2.57,-2.5703,-2.5693,-2.5693,-2.5693,-2.5693,-2.5693,-2.57,-2.57,-2.5698,-2.5693,-2.5698,-2.57,-2.5697,-2.57,-2.5697,-2.5693,-2.5693,-2.5697,-2.5697,-2.5701,-2.5696,-2.5411,-2.5097,-2.5341,-2.5375,-2.5448,-2.5195,-2.458,-2.4219,-2.415,-2.3428,-2.2353,-2.1682,-2.1177,-2.0882,-2.9614,-2.9715,-2.8708,-2.7898,-2.7264,-2.7069,-2.6531,-2.5914,-2.6391,-2.6422,-2.6081,-2.6685,-2.7386,-2.7902,-2.8162,-2.8422,-2.8418,-2.8533,-2.8874,-2.9803,-3.0009,-3.0253,-3.0765,-3.0833,-3.0818,-3.0811,-3.0726,-3.0676,-3.0535,-3.016,-2.9691,-2.9199,-2.802,-2.7139,-2.6776,-2.6188,-2.5696,-2.5696,-2.5693,-2.5693,-2.5696,-2.5701,-2.5693,-2.5693,-2.57,-2.5697,-2.57,-2.57,-2.5693,-2.5698,-2.5693,-2.5694,-2.5701,-2.5701,-2.5697,-2.57,-2.5697,-2.5697,-2.5698,-2.5701,-2.5693,-2.5697,-2.5697,-2.5695,-2.5703,-2.5698,-2.569,-2.5701,-2.5694,-2.57,-2.5697,-2.5684,-2.5658,-2.565,-2.567,-2.5689,-2.5643,-2.5648,-2.5683,-2.5684,-2.5691,-2.5697,-2.5697,-2.5694,-2.5694,-2.5691,-2.5697,-2.5697,-2.5701,-2.57,-2.5693,-2.5694,-2.5697,-2.5701,-2.5697,-2.5693,-2.5701,-2.5697,-2.5697,-2.5699,-2.5701,-2.5699,-2.5699,-2.5701,-2.5693,-2.5619,-2.5303,-2.4932,-2.4746,-2.458,-2.3652,-2.2676,-2.2146,-2.1651,-2.1103,-2.9568,-2.9556,-2.9152,-2.8461,-2.7756,-2.7676,-2.6896,-2.5842,-2.6145,-2.6363,-2.6483,-2.6835,-2.7215,-2.7664,-2.8154,-2.8574,-2.8717,-2.8578,-2.88,-2.9482,-3.0023,-3.0365,-3.0794,-3.0794,-3.0798,-3.0654,-3.0399,-3.0187,-3.0104,-2.9776,-2.9078,-2.8161,-2.7305,-2.6808,-2.6363,-2.5921,-2.5714,-2.5694,-2.5694,-2.5697,-2.5697,-2.5696,-2.5693,-2.57,-2.5694,-2.5694,-2.5697,-2.5694,-2.5694,-2.5694,-2.5701,-2.5694,-2.57,-2.5691,-2.5691,-2.5694,-2.5701,-2.5694,-2.5696,-2.5698,-2.5698,-2.5693,-2.5695,-2.5695,-2.5691,-2.5671,-2.5661,-2.5662,-2.5653,-2.5653,-2.5643,-2.5657,-2.5634,-2.5615,-2.5634,-2.5625,-2.56,-2.5595,-2.562,-2.5648,-2.567,-2.5687,-2.5694,-2.5694,-2.5694,-2.57,-2.5693,-2.5689,-2.5693,-2.5681,-2.5681,-2.5684,-2.5687,-2.5694,-2.5701,-2.57,-2.5696,-2.5693,-2.5695,-2.5697,-2.5697,-2.5695,-2.5697,-2.5699,-2.5701,-2.5693,-2.5615,-2.5332,-2.5166,-2.4971,-2.4287,-2.3545,-2.2764,-2.2106,-2.1546,-2.9704,-2.9828,-2.949,-2.894,-2.8306,-2.7877,-2.7085,-2.6153,-2.6245,-2.6581,-2.6963,-2.7197,-2.7305,-2.7568,-2.8285,-2.8824,-2.861,-2.8613,-2.9023,-2.953,-3.009,-3.0525,-3.0768,-3.0792,-3.0796,-3.0702,-3.0329,-2.9754,-2.9774,-2.912,-2.8242,-2.7625,-2.7118,-2.6445,-2.5837,-2.5743,-2.5697,-2.5694,-2.5694,-2.5697,-2.5694,-2.5694,-2.5694,-2.5697,-2.5697,-2.5694,-2.5694,-2.5697,-2.5697,-2.5694,-2.57,-2.5693,-2.5703,-2.5675,-2.5664,-2.5665,-2.5687,-2.5697,-2.57,-2.5697,-2.5697,-2.5696,-2.5698,-2.5679,-2.5668,-2.5635,-2.5615,-2.5594,-2.5604,-2.5594,-2.5595,-2.561,-2.56,-2.557,-2.5568,-2.5568,-2.5543,-2.5537,-2.5534,-2.5574,-2.5634,-2.5644,-2.5629,-2.5657,-2.5653,-2.5653,-2.5649,-2.5658,-2.5663,-2.5652,-2.565,-2.567,-2.5679,-2.5697,-2.5694,-2.5694,-2.57,-2.5696,-2.5698,-2.5701,-2.5701,-2.5701,-2.5693,-2.5695,-2.5697,-2.5701,-2.5694,-2.5687,-2.5498,-2.5244,-2.4941,-2.4258,-2.3174,-2.2449,-2.1918,-3.0047,-3.0605,-2.91,-2.8379,-2.81,-2.6824,-2.643,-2.6855,-2.7419,-2.7578,-2.6944,-2.7733,-2.8008,-2.8369,-2.965,-2.9935,-2.9545,-2.9345,-2.9361,-2.9579,-2.9809,-3.0287,-3.0716,-3.0784,-3.0798,-3.0725,-3.0583,-3.0665,-3.0153,-2.8583,-2.7774,-2.7608,-2.6643,-2.5847,-2.5944,-2.5753,-2.5697,-2.5694,-2.57,-2.5693,-2.5693,-2.5693,-2.57,-2.57,-2.57,-2.57,-2.5697,-2.5694,-2.5697,-2.5694,-2.5697,-2.57,-2.5687,-2.5643,-2.5624,-2.5618,-2.566,-2.57,-2.5691,-2.5681,-2.5691,-2.5671,-2.5658,-2.5611,-2.5618,-2.5615,-2.5578,-2.5525,-2.5566,-2.5572,-2.5556,-2.5582,-2.5577,-2.5547,-2.5538,-2.5488,-2.5454,-2.5482,-2.5485,-2.5495,-2.5544,-2.5537,-2.5523,-2.557,-2.5604,-2.5609,-2.5609,-2.5624,-2.5629,-2.562,-2.5625,-2.5634,-2.5657,-2.5666,-2.5697,-2.5697,-2.5694,-2.57,-2.5693,-2.5696,-2.5693,-2.5693,-2.5698,-2.5701,-2.5654,-2.5539,-2.5436,-2.5458,-2.562,-2.542,-2.4971,-2.4228,-2.334,-2.2742,-2.2127,-2.8902,-3.0116,-2.9832,-2.915,-2.8258,-2.7461,-2.6787,-2.6416,-2.6633,-2.6626,-2.648,-2.7178,-2.7809,-2.8475,-2.9201,-2.9181,-2.9006,-2.9418,-2.9564,-2.971,-2.9969,-3.0417,-3.0706,-3.0789,-3.0789,-3.0687,-3.0409,-3.0349,-2.9989,-2.931,-2.8316,-2.7412,-2.6841,-2.6513,-2.635,-2.5925,-2.5749,-2.5697,-2.5697,-2.5699,-2.5699,-2.5699,-2.5699,-2.5697,-2.5703,-2.5697,-2.5697,-2.5694,-2.5697,-2.5697,-2.5694,-2.5671,-2.566,-2.5642,-2.5652,-2.5609,-2.5593,-2.5614,-2.5639,-2.5634,-2.5643,-2.5642,-2.5618,-2.5605,-2.5609,-2.5601,-2.5577,-2.5515,-2.5535,-2.5528,-2.5511,-2.5531,-2.5529,-2.5515,-2.5497,-2.5488,-2.5443,-2.5426,-2.5441,-2.5441,-2.5459,-2.5461,-2.5479,-2.5541,-2.5587,-2.5593,-2.5593,-2.5599,-2.5593,-2.5574,-2.5589,-2.5614,-2.5625,-2.5643,-2.5679,-2.57,-2.5701,-2.5694,-2.5697,-2.57,-2.5697,-2.5697,-2.57,-2.5466,-2.5212,-2.5127,-2.5115,-2.517,-2.5284,-2.5134,-2.4941,-2.4003,-2.3091,-2.2542,-2.2005,-2.7835,-2.9302,-2.9693,-2.9109,-2.7969,-2.7773,-2.705,-2.6132,-2.6124,-2.6207,-2.6548,-2.7347,-2.8115,-2.859,-2.8986,-2.9308,-2.9074,-2.9603,-2.9799,-3.0092,-3.0408,-3.0715,-3.0794,-3.0789,-3.0789,-3.0789,-3.035,-3.0179,-3.016,-2.9885,-2.9008,-2.7568,-2.7153,-2.7146,-2.7049,-2.6575,-2.613,-2.6139,-2.6106,-2.5962,-2.5767,-2.5699,-2.5699,-2.5699,-2.5693,-2.57,-2.5701,-2.5691,-2.5694,-2.5691,-2.5675,-2.564,-2.5618,-2.5586,-2.5595,-2.555,-2.5518,-2.5514,-2.5548,-2.556,-2.5568,-2.5628,-2.5875,-2.609,-2.6301,-2.6039,-2.5805,-2.5899,-2.5555,-2.5528,-2.548,-2.5478,-2.547,-2.5464,-2.5456,-2.5474,-2.5472,-2.5437,-2.5411,-2.5419,-2.5419,-2.5427,-2.5459,-2.5518,-2.5554,-2.5576,-2.5576,-2.5576,-2.556,-2.5544,-2.5554,-2.5585,-2.5603,-2.562,-2.5649,-2.5671,-2.5677,-2.5688,-2.5694,-2.5694,-2.5701,-2.5697,-2.5701,-2.5366,-2.4996,-2.5119,-2.5344,-2.5137,-2.4869,-2.4418,-2.3963,-2.3506,-2.2831,-2.2342,-2.2157,-2.7479,-2.8318,-2.7598,-2.727,-2.7078,-2.6209,-2.6308,-2.6776,-2.6856,-2.7323,-2.8068,-2.8922,-2.925,-2.9625,-3.011,-3.0433,-3.0533,-3.0675,-3.0597,-3.0619,-3.0769,-3.0789,-3.0789,-3.0789,-3.0789,-3.0794,-3.0535,-3.0194,-3.0,-3.0466,-2.9948,-2.9282,-2.8037,-2.7823,-2.7699,-2.7358,-2.6705,-2.6627,-2.6574,-2.6264,-2.5894,-2.5699,-2.5699,-2.5699,-2.5697,-2.5694,-2.5694,-2.5691,-2.5691,-2.5684,-2.565,-2.5614,-2.5581,-2.5712,-2.5761,-2.572,-2.5956,-2.5959,-2.5917,-2.5648,-2.5546,-2.5727,-2.6205,-2.6887,-2.7294,-2.6923,-2.6695,-2.6587,-2.6222,-2.5807,-2.5633,-2.5421,-2.5632,-2.5613,-2.5614,-2.5421,-2.543,-2.5414,-2.5395,-2.5395,-2.5404,-2.5412,-2.5439,-2.5503,-2.5528,-2.5551,-2.5541,-2.5541,-2.5535,-2.5518,-2.5538,-2.5554,-2.5573,-2.5587,-2.5604,-2.563,-2.5636,-2.5668,-2.5681,-2.5694,-2.5691,-2.57,-2.57,-2.5538,-2.5265,-2.5418,-2.53,-2.4632,-2.4005,-2.3466,-2.3119,-2.3239,-2.3133,-2.2783,-2.2743,-2.6315,-2.6607,-2.6263,-2.6483,-2.6966,-2.6609,-2.6662,-2.6962,-2.7015,-2.7825,-2.9109,-2.9462,-2.99,-3.0376,-3.0638,-3.0869,-3.0811,-3.0789,-3.0794,-3.0794,-3.0789,-3.0794,-3.0789,-3.0789,-3.0789,-3.0774,-3.076,-3.072,-3.0474,-3.0642,-3.0615,-2.9949,-2.8996,-2.8876,-2.87,-2.8187,-2.7374,-2.6623,-2.6648,-2.6507,-2.5874,-2.5699,-2.5699,-2.5699,-2.5697,-2.5694,-2.5694,-2.5694,-2.5675,-2.565,-2.5604,-2.5605,-2.5706,-2.6028,-2.6217,-2.6356,-2.6795,-2.7036,-2.6602,-2.6117,-2.5677,-2.6365,-2.6992,-2.766,-2.8124,-2.7652,-2.7498,-2.7334,-2.7142,-2.6765,-2.6938,-2.6551,-2.6242,-2.6068,-2.5808,-2.55,-2.5386,-2.5387,-2.5387,-2.5386,-2.5386,-2.5395,-2.544,-2.5484,-2.5505,-2.5514,-2.5514,-2.5505,-2.5507,-2.549,-2.55,-2.5519,-2.5541,-2.5564,-2.5572,-2.5586,-2.5604,-2.5632,-2.567,-2.5683,-2.5697,-2.5693,-2.5674,-2.556,-2.5359,-2.5197,-2.4716,-2.3822,-2.3413,-2.3451,-2.355,-2.369,-2.3487,-2.3245,-2.3305,-2.557,-2.561,-2.5605,-2.5991,-2.6575,-2.6574,-2.673,-2.6976,-2.7011,-2.7975,-2.9603,-2.9845,-3.0289,-3.0775,-3.0862,-3.0856,-3.0813,-3.0789,-3.0793,-3.0784,-3.0779,-3.0784,-3.0799,-3.074,-3.0633,-3.0575,-3.0716,-3.0706,-3.0236,-3.0623,-3.072,-3.0552,-3.0244,-2.9948,-2.9747,-2.9252,-2.823,-2.7341,-2.6942,-2.6887,-2.6215,-2.5816,-2.5699,-2.5699,-2.5697,-2.57,-2.5681,-2.5675,-2.5648,-2.5614,-2.56,-2.571,-2.5949,-2.6281,-2.6707,-2.7305,-2.7909,-2.843,-2.7739,-2.7075,-2.6563,-2.7508,-2.7962,-2.8435,-2.8589,-2.8502,-2.8338,-2.826,-2.8116,-2.8,-2.7952,-2.7094,-2.6563,-2.6322,-2.5723,-2.5387,-2.5386,-2.5395,-2.5386,-2.5394,-2.5394,-2.5412,-2.5439,-2.5484,-2.549,-2.5507,-2.5515,-2.5495,-2.5453,-2.5453,-2.5443,-2.547,-2.5495,-2.5521,-2.5544,-2.5579,-2.561,-2.566,-2.5683,-2.5683,-2.5693,-2.5689,-2.5699,-2.5644,-2.5362,-2.4904,-2.4674,-2.4505,-2.4163,-2.3842,-2.3973,-2.4132,-2.4153,-2.3962,-2.3895,-2.5547,-2.5596,-2.56,-2.5678,-2.5818,-2.574,-2.6227,-2.6997,-2.7214,-2.8173,-2.9744,-3.0445,-3.078,-3.0898,-3.0845,-3.082,-3.0802,-3.0799,-3.0778,-3.0744,-3.0774,-3.0799,-3.0789,-3.0726,-3.0546,-2.9961,-3.0283,-3.0443,-2.9781,-3.0472,-3.076,-3.0793,-3.0626,-3.0507,-3.071,-3.0728,-3.0228,-2.9338,-2.8329,-2.7589,-2.6638,-2.5962,-2.5757,-2.5899,-2.5913,-2.5937,-2.5937,-2.6126,-2.61,-2.5877,-2.5954,-2.621,-2.6665,-2.6253,-2.6708,-2.7838,-2.8446,-2.8545,-2.8037,-2.7882,-2.8221,-2.8704,-2.8955,-2.9399,-2.9921,-2.9727,-2.9185,-2.9117,-2.8682,-2.821,-2.7728,-2.7305,-2.7084,-2.6795,-2.6265,-2.5735,-2.5791,-2.5693,-2.5751,-2.548,-2.5411,-2.5429,-2.5455,-2.548,-2.548,-2.549,-2.5502,-2.5482,-2.5429,-2.5415,-2.5414,-2.5403,-2.5439,-2.548,-2.5514,-2.5576,-2.5624,-2.5671,-2.5683,-2.5679,-2.5679,-2.5675,-2.5685,-2.5689,-2.5539,-2.5237,-2.5407,-2.5582,-2.5028,-2.4492,-2.4461,-2.4554,-2.4632,-2.4569,-2.4348,-2.5548,-2.5601,-2.5607,-2.5605,-2.5636,-2.5645,-2.6149,-2.7106,-2.8213,-2.9375,-3.0333,-3.0824,-3.0898,-3.0898,-3.0879,-3.0841,-3.0796,-3.0793,-3.0764,-3.0734,-3.073,-3.0794,-3.0789,-3.0721,-3.0594,-3.0507,-3.0701,-3.0706,-3.0438,-3.0701,-3.075,-3.0793,-3.0753,-3.0456,-3.0274,-3.0209,-2.995,-2.8264,-2.7798,-2.755,-2.6303,-2.5972,-2.6016,-2.6475,-2.6509,-2.6499,-2.6543,-2.685,-2.6875,-2.6563,-2.6653,-2.7162,-2.7547,-2.7219,-2.7959,-2.8806,-2.9348,-2.9756,-2.9584,-2.9527,-2.9366,-2.9513,-2.9717,-3.0083,-3.0353,-3.0257,-3.0052,-2.9932,-2.9542,-2.9302,-2.9432,-2.8754,-2.8429,-2.8288,-2.7769,-2.693,-2.664,-2.6417,-2.6252,-2.5673,-2.5401,-2.5401,-2.5427,-2.5439,-2.5448,-2.5422,-2.5426,-2.5441,-2.5405,-2.5399,-2.5399,-2.536,-2.5377,-2.5422,-2.548,-2.5528,-2.5587,-2.5634,-2.5639,-2.5634,-2.5634,-2.5657,-2.5648,-2.5642,-2.5638,-2.5638,-2.5643,-2.5624,-2.5451,-2.5177,-2.5061,-2.5047,-2.5158,-2.4881,-2.442,-2.5092,-2.5195,-2.5475,-2.562,-2.5626,-2.5639,-2.6157,-2.716,-2.8527,-2.9637,-3.0293,-3.0439,-3.0634,-3.0788,-3.0876,-3.0857,-3.0764,-3.0429,-3.0326,-3.0346,-3.0336,-3.0273,-3.0351,-3.0638,-3.0481,-3.0569,-3.0652,-3.0672,-3.0224,-3.0628,-3.0779,-3.0788,-3.079,-3.0563,-3.0359,-3.0336,-3.0195,-2.8963,-2.8819,-2.8344,-2.7454,-2.7011,-2.6899,-2.7221,-2.7342,-2.7332,-2.7507,-2.7731,-2.7929,-2.7575,-2.7665,-2.8128,-2.8367,-2.8501,-2.9068,-2.9562,-3.0005,-3.0354,-3.0285,-3.0269,-2.9983,-2.9781,-3.0228,-3.0401,-3.0417,-3.0369,-3.0377,-3.0342,-3.0345,-3.0309,-3.0179,-2.9536,-2.9171,-2.8986,-2.821,-2.7335,-2.6863,-2.6612,-2.6192,-2.5632,-2.5497,-2.5469,-2.5451,-2.5395,-2.5406,-2.5369,-2.5332,-2.5351,-2.5379,-2.537,-2.537,-2.5351,-2.5341,-2.5396,-2.5439,-2.5466,-2.5531,-2.5593,-2.56,-2.56,-2.5624,-2.5642,-2.5618,-2.5604,-2.5614,-2.5619,-2.5615,-2.5547,-2.5469,-2.5473,-2.5482,-2.5543,-2.5691,-2.5301,-2.4766,-2.4303,-2.4453,-2.5239,-2.5629,-2.5696,-2.5696,-2.6196,-2.7031,-2.79,-2.874,-2.9535,-2.9568,-2.9861,-3.0558,-3.0652,-3.0527,-3.0459,-2.9825,-2.974,-2.972,-2.9922,-2.9824,-3.0077,-3.0452,-3.0451,-3.0231,-3.027,-3.052,-2.9784,-3.0414,-3.0784,-3.0792,-3.0796,-3.0673,-3.0677,-3.0648,-3.0459,-2.9817,-2.9366,-2.8949,-2.833,-2.8169,-2.7989,-2.8119,-2.8196,-2.8182,-2.8265,-2.8343,-2.8226,-2.8054,-2.8024,-2.8472,-2.8589,-2.8335,-2.9136,-2.987,-3.0341,-3.0252,-3.039,-3.0394,-3.0377,-3.0175,-3.0321,-3.0398,-3.0396,-3.0425,-3.0412,-3.0388,-3.0345,-3.0314,-3.0199,-2.9723,-2.9254,-2.8651,-2.7898,-2.7285,-2.6814,-2.64,-2.5942,-2.5659,-2.5696,-2.5688,-2.5683,-2.5618,-2.5387,-2.5332,-2.5293,-2.5283,-2.5303,-2.5312,-2.5321,-2.5341,-2.5341,-2.5378,-2.5404,-2.541,-2.5454,-2.5522,-2.5576,-2.5583,-2.5615,-2.5624,-2.5615,-2.56,-2.5605,-2.56,-2.5605,-2.5594,-2.5565,-2.5605,-2.562,-2.5648,-2.5683,-2.5678,-2.5261,-2.5135,-2.5176,-2.5466,-2.56,-2.5632,-2.5686,-2.6201,-2.6992,-2.7314,-2.7869,-2.8676,-2.8678,-2.8948,-2.9041,-2.9004,-2.9101,-2.9248,-2.9365,-2.9559,-2.9695,-2.9955,-3.0266,-3.0456,-3.0548,-3.0562,-3.0552,-3.0568,-3.0569,-3.0502,-3.0789,-3.0789,-3.079,-3.0792,-3.0796,-3.0796,-3.0786,-3.0417,-3.0058,-2.9684,-2.9401,-2.8975,-2.8565,-2.8624,-2.8903,-2.9033,-2.9039,-2.9049,-2.8993,-2.8748,-2.8196,-2.8102,-2.8277,-2.813,-2.843,-2.9185,-3.014,-3.0053,-2.9744,-3.0258,-3.0385,-3.03,-3.024,-3.0329,-3.0398,-3.0396,-3.0367,-3.0364,-3.0369,-3.0333,-3.0311,-3.0289,-2.996,-2.9695,-2.9279,-2.8558,-2.7998,-2.7498,-2.6911,-2.6452,-2.6118,-2.6136,-2.5898,-2.5893,-2.5597,-2.5368,-2.5303,-2.5264,-2.5253,-2.5232,-2.525,-2.5261,-2.5292,-2.5302,-2.5332,-2.5332,-2.5341,-2.5392,-2.5437,-2.5505,-2.5557,-2.5593,-2.56,-2.5605,-2.5605,-2.561,-2.5605,-2.5604,-2.5583,-2.5553,-2.5585,-2.561,-2.5639,-2.567,-2.5675,-2.5671,-2.4503,-2.4575,-2.4927,-2.527,-2.5588,-2.5675,-2.6031,-2.6443,-2.6494,-2.6981,-2.7725,-2.7778,-2.8164,-2.8895,-2.8975,-2.9141,-2.9551,-2.9541,-2.9579,-2.9685,-3.0147,-3.0095,-3.025,-3.0373,-3.0455,-3.0562,-3.0544,-3.0346,-3.0662,-3.0793,-3.0794,-3.0788,-3.0798,-3.0793,-3.0789,-3.0726,-3.0278,-2.9956,-2.9677,-2.9557,-2.9276,-2.9029,-2.9479,-2.9654,-2.98,-2.9848,-2.9787,-2.9664,-2.9045,-2.8472,-2.8392,-2.8238,-2.8413,-2.9079,-2.8279,-2.9003,-2.9177,-2.9031,-2.9337,-2.9704,-2.9656,-2.9712,-3.0001,-3.0147,-3.0157,-3.0126,-3.0277,-3.0379,-3.033,-3.0305,-3.0283,-3.0264,-3.0273,-3.0235,-2.9588,-2.8943,-2.8309,-2.7672,-2.7213,-2.68,-2.65,-2.6202,-2.5927,-2.5622,-2.5377,-2.5322,-2.5272,-2.5249,-2.5227,-2.5225,-2.5227,-2.5239,-2.525,-2.5261,-2.5271,-2.5282,-2.5331,-2.5383,-2.5439,-2.5488,-2.5544,-2.5566,-2.5558,-2.5579,-2.5599,-2.5593,-2.5582,-2.555,-2.5528,-2.5568,-2.5615,-2.5634,-2.5662,-2.5687,-2.5694,-2.325,-2.3388,-2.405,-2.4943,-2.5552,-2.5679,-2.573,-2.5699,-2.5789,-2.6152,-2.6813,-2.6903,-2.7655,-2.8375,-2.8691,-2.9092,-2.9316,-2.9365,-2.9247,-2.9425,-2.99,-2.9946,-2.9749,-2.9642,-3.0178,-3.0289,-3.0324,-3.036,-3.0662,-3.0794,-3.0794,-3.0789,-3.0794,-3.0789,-3.0794,-3.0794,-3.034,-2.9685,-2.9988,-3.0231,-3.0083,-3.0224,-3.0513,-3.0387,-3.0453,-3.0539,-3.0385,-2.9965,-2.9346,-2.902,-2.866,-2.8424,-2.8869,-2.9302,-2.8068,-2.7817,-2.8463,-2.8617,-2.8808,-2.9127,-2.8791,-2.8915,-2.932,-2.9648,-2.9753,-3.0088,-3.0333,-3.0388,-3.034,-3.0283,-3.026,-3.0247,-3.0253,-3.0101,-2.9625,-2.9201,-2.88,-2.8338,-2.8073,-2.77,-2.7429,-2.7083,-2.6536,-2.627,-2.5657,-2.5466,-2.5522,-2.5528,-2.538,-2.5367,-2.5329,-2.5313,-2.5216,-2.5227,-2.5228,-2.5251,-2.5264,-2.5322,-2.5379,-2.5432,-2.5476,-2.5499,-2.5521,-2.5562,-2.5603,-2.5576,-2.5544,-2.5522,-2.5528,-2.5572,-2.5609,-2.5625,-2.5653,-2.5683,-2.5697,-2.484,-2.4842,-2.5166,-2.5411,-2.5586,-2.5675,-2.57,-2.5697,-2.5696,-2.5828,-2.5995,-2.6067,-2.6304,-2.7022,-2.7646,-2.7881,-2.7598,-2.8955,-2.8662,-2.886,-2.933,-2.976,-2.9698,-2.9741,-3.0086,-3.0057,-3.014,-3.0501,-3.0716,-3.0794,-3.0794,-3.0793,-3.0798,-3.0794,-3.0779,-3.0774,-3.0358,-2.9525,-3.0001,-2.9863,-2.91,-2.9419,-2.9679,-2.9941,-3.0172,-3.0591,-3.0393,-2.9868,-2.944,-2.9099,-2.8412,-2.8173,-2.8213,-2.8472,-2.8868,-2.9071,-2.8454,-2.8366,-2.8443,-2.8569,-2.8386,-2.8338,-2.8695,-2.908,-2.9504,-3.0067,-3.035,-3.0348,-3.0295,-3.0228,-3.0247,-3.023,-3.0178,-2.9918,-2.969,-2.9486,-2.926,-2.9052,-2.8855,-2.8612,-2.836,-2.7858,-2.7272,-2.6734,-2.611,-2.6005,-2.6217,-2.6226,-2.5906,-2.578,-2.567,-2.5584,-2.526,-2.5212,-2.5205,-2.5217,-2.5241,-2.5273,-2.5332,-2.5378,-2.5419,-2.5454,-2.5486,-2.556,-2.5601,-2.5579,-2.5548,-2.5522,-2.5538,-2.5587,-2.5609,-2.562,-2.5642,-2.5671,-2.5687,-2.4799,-2.4898,-2.5386,-2.5609,-2.5605,-2.5677,-2.57,-2.5703,-2.5699,-2.5696,-2.5699,-2.5715,-2.5878,-2.6189,-2.6807,-2.706,-2.6894,-2.8291,-2.8437,-2.8467,-2.8719,-2.937,-2.9587,-2.9429,-2.9819,-2.9867,-3.0404,-3.076,-3.0731,-3.0794,-3.0794,-3.0794,-3.0794,-3.073,-3.0725,-3.0675,-3.0269,-2.9473,-2.9921,-2.9348,-2.8375,-2.9092,-2.9849,-3.0168,-3.0313,-3.0623,-3.0324,-2.983,-2.9399,-2.9168,-2.8734,-2.8212,-2.8344,-2.8846,-2.9089,-2.8887,-2.8376,-2.7798,-2.7856,-2.7933,-2.7894,-2.7701,-2.8154,-2.8588,-2.8743,-2.9274,-3.0078,-3.0085,-2.9687,-2.9561,-3.0087,-3.0222,-3.0213,-3.0052,-3.0023,-2.9929,-2.9666,-2.9419,-2.9206,-2.8965,-2.8597,-2.8055,-2.7622,-2.7508,-2.7007,-2.6969,-2.7142,-2.7083,-2.6736,-2.6254,-2.6118,-2.5828,-2.5476,-2.5252,-2.5205,-2.5206,-2.5217,-2.5251,-2.5292,-2.5341,-2.5376,-2.5432,-2.5476,-2.5548,-2.5595,-2.5605,-2.5573,-2.5548,-2.5556,-2.56,-2.5605,-2.5605,-2.5636,-2.5665,-2.5688,-2.4254,-2.4399,-2.5221,-2.5582,-2.56,-2.5674,-2.5684,-2.5693,-2.5703,-2.5695,-2.5699,-2.5696,-2.6202,-2.6613,-2.7029,-2.747,-2.7881,-2.8232,-2.8193,-2.7851,-2.8193,-2.8559,-2.8437,-2.8166,-2.8907,-2.9571,-3.0054,-3.0341,-3.0468,-3.0643,-3.0789,-3.0793,-3.0686,-3.0589,-3.0567,-3.0403,-2.9933,-2.9272,-2.9174,-2.9036,-2.9158,-2.954,-3.0025,-3.0336,-3.0549,-3.0597,-3.0317,-2.9979,-2.9467,-2.938,-2.9358,-2.9017,-2.8794,-2.9239,-2.9176,-2.8975,-2.8058,-2.7335,-2.6948,-2.7198,-2.6808,-2.667,-2.7539,-2.8147,-2.8391,-2.8742,-2.9554,-2.9866,-2.9459,-2.9452,-2.9978,-3.0218,-3.0222,-3.023,-3.026,-3.0179,-2.9908,-2.967,-2.9468,-2.9245,-2.885,-2.8319,-2.8155,-2.8068,-2.8019,-2.8,-2.797,-2.7892,-2.767,-2.7092,-2.6716,-2.6175,-2.5624,-2.5429,-2.5246,-2.5206,-2.5206,-2.5217,-2.5251,-2.5303,-2.535,-2.5427,-2.5481,-2.5548,-2.5589,-2.5595,-2.5601,-2.5585,-2.5599,-2.5605,-2.5605,-2.5609,-2.5658,-2.5681,-2.569,-2.5033,-2.5166,-2.5381,-2.5473,-2.5518,-2.5594,-2.5634,-2.5639,-2.568,-2.5698,-2.5697,-2.5699,-2.5845,-2.5992,-2.6743,-2.7001,-2.6709,-2.7449,-2.7059,-2.6416,-2.746,-2.7697,-2.7813,-2.7924,-2.8288,-2.8688,-2.9051,-2.9202,-2.9864,-3.0443,-3.0765,-3.0711,-2.9976,-2.981,-2.9766,-2.9549,-2.9156,-2.8735,-2.9307,-2.9596,-2.8822,-2.9088,-2.9431,-2.9838,-3.03,-3.0505,-3.0554,-3.0505,-3.0365,-3.0269,-3.0129,-2.9911,-2.9788,-2.9646,-2.9486,-2.9081,-2.8145,-2.7855,-2.7612,-2.7561,-2.7278,-2.735,-2.8239,-2.8788,-2.8782,-2.8468,-2.9323,-3.0246,-3.0023,-2.9922,-3.0232,-3.0218,-3.0218,-3.0266,-3.0292,-2.9988,-2.9677,-2.9573,-2.9438,-2.9409,-2.931,-2.8962,-2.8758,-2.8669,-2.8571,-2.86,-2.8685,-2.8578,-2.8253,-2.7783,-2.7266,-2.659,-2.5896,-2.5462,-2.5201,-2.5208,-2.5208,-2.5206,-2.523,-2.5303,-2.5378,-2.545,-2.5505,-2.5544,-2.557,-2.5576,-2.5591,-2.5607,-2.56,-2.56,-2.5609,-2.5621,-2.5668,-2.5697,-2.5693]}]]